GFSSW_prec_cthk_000.txt.gz
RH
11 9 9 8 8 8 8 10 11 9 9 9 10 9 8 8 7 6 6 18 19 18 26 30 35 35 41 45 57 54 56 53 52 51 46 49 50 44 37 35 33 33 34 39 44
14 11 10 9 8 8 7 8 10 10 9 8 9 10 9 8 7 5 5 10 16 16 24 29 32 30 37 39 48 51 52 49 46 44 51 51 50 43 41 33 32 33 31 35 38
15 14 11 9 8 8 7 7 9 10 9 8 8 9 9 8 7 4 4 5 12 15 22 27 29 29 32 35 42 46 45 41 40 41 44 48 54 45 39 35 29 30 28 32 37
13 14 13 12 9 8 8 7 8 9 9 9 8 8 9 8 8 6 6 6 9 14 20 27 29 27 31 35 39 44 42 37 38 41 45 42 46 44 33 32 28 26 26 30 32
12 12 13 13 13 11 8 8 7 8 9 9 8 7 8 8 5 5 5 5 7 13 18 26 28 28 29 33 36 37 37 35 36 36 38 39 34 38 36 32 25 24 27 29 30
14 13 12 12 13 13 11 9 8 7 7 8 8 8 7 8 6 4 5 5 5 12 18 23 26 29 28 30 33 33 35 39 41 33 34 35 35 32 35 33 28 24 26 28 29
13 14 14 13 12 12 13 11 9 8 7 7 7 8 8 6 7 5 5 6 5 8 18 23 30 28 28 29 32 33 40 38 39 37 40 40 38 33 32 31 31 28 28 29 32
13 12 12 12 12 11 11 12 11 9 8 7 8 8 8 6 6 5 6 6 5 7 13 23 25 26 28 28 32 39 40 44 41 38 42 47 46 42 38 34 33 31 29 30 30
13 13 12 12 11 10 10 9 11 11 11 10 10 10 8 9 6 6 5 7 6 7 15 19 21 23 26 27 33 39 38 46 44 39 46 52 52 52 46 41 38 30 28 29 29
12 13 13 12 11 10 10 9 11 11 13 15 15 15 9 8 10 8 7 9 8 7 16 17 19 22 25 27 35 36 39 43 45 44 46 49 51 52 46 40 40 29 27 27 27
10 11 12 12 12 11 11 8 11 13 13 12 11 13 9 7 10 8 9 9 9 8 12 16 17 20 23 25 25 31 38 38 44 45 46 49 51 54 51 45 43 33 26 25 24
9 9 11 12 12 12 11 11 12 13 11 11 11 9 9 8 9 10 11 11 10 11 9 13 15 20 25 27 26 26 34 40 46 45 50 53 53 53 54 48 45 40 31 27 27
10 9 9 11 11 12 12 11 11 12 14 8 9 11 12 10 7 10 12 11 11 12 10 13 15 21 25 27 26 26 27 35 39 47 49 53 55 55 56 52 47 46 42 39 35
10 9 9 9 10 11 11 11 12 13 19 12 10 13 14 11 10 7 13 12 12 14 13 13 16 21 22 25 26 27 22 32 36 40 45 46 50 53 51 52 47 42 43 41 40
10 10 9 9 10 9 11 11 11 17 25 11 11 13 15 14 8 8 14 14 13 13 14 14 15 18 21 20 23 24 25 30 36 38 41 46 46 36 48 52 44 39 42 41 41
12 11 10 9 9 9 11 13 14 21 26 13 13 13 15 16 11 12 15 16 13 13 15 14 14 18 18 20 22 22 30 34 35 38 45 36 38 34 45 38 39 40 40 42 40
14 12 12 10 10 9 10 13 20 25 15 13 15 15 15 18 13 13 18 20 17 16 15 14 13 17 18 20 22 22 29 33 34 45 45 36 41 28 29 33 30 34 36 40 45
16 14 13 12 11 11 10 14 25 18 16 14 15 15 17 20 16 13 21 24 19 14 13 13 14 15 18 19 23 21 26 32 34 39 40 40 40 27 24 28 32 34 35 38 39
19 17 15 14 14 13 12 16 18 20 18 17 17 16 18 20 23 19 23 24 23 15 11 13 12 12 17 18 20 21 25 27 33 34 34 37 30 23 24 25 29 32 34 34 35
23 21 18 19 20 17 16 14 14 15 17 15 18 19 18 25 27 24 23 22 23 23 17 11 11 9 11 16 19 20 21 27 33 34 35 33 28 27 24 23 23 28 30 31 33
26 25 22 22 23 22 19 16 13 13 14 14 17 21 21 24 26 27 22 23 21 21 25 22 15 11 10 11 14 19 21 25 28 32 33 31 31 24 22 23 24 25 26 28 31
30 29 28 26 26 26 22 17 15 14 13 14 16 19 20 20 25 26 24 21 25 28 28 25 23 16 13 11 11 13 17 20 26 28 33 29 25 21 20 20 24 27 25 30 30
36 34 30 31 33 30 28 25 21 19 17 17 17 17 21 22 24 27 28 23 28 34 36 33 28 22 15 16 14 14 16 19 24 27 32 29 25 19 19 23 26 28 28 30 31
42 40 40 43 36 34 33 28 28 26 26 26 24 25 25 27 23 25 30 31 34 41 42 38 31 24 17 12 15 15 17 22 21 29 28 26 19 16 20 23 25 25 27 27 27
44 46 53 53 51 47 39 34 33 32 29 27 26 27 28 31 27 23 28 30 37 45 47 32 27 23 15 13 15 16 15 19 20 20 22 17 21 22 22 24 25 24 25 26 25
53 55 54 51 49 50 44 36 38 37 33 30 31 30 33 33 30 25 28 34 35 45 47 42 27 23 18 16 15 18 18 19 19 23 22 22 24 22 21 25 24 25 27 26 22
51 56 57 46 48 47 41 43 39 41 34 32 34 34 39 35 37 33 30 36 43 42 50 50 39 29 23 21 18 20 18 19 22 22 22 25 23 23 25 25 25 25 26 25 22

GFSSW_prec_cthk_003.txt.gz
RH
15 13 11 9 8 8 7 7 7 10 11 8 8 9 10 9 8 7 8 16 17 18 25 31 35 35 40 42 45 49 48 46 45 50 48 47 37 39 34 33 35 38 38 44 48
13 14 13 12 9 8 8 7 7 7 10 10 8 8 8 9 8 6 6 8 14 16 22 30 33 36 37 37 41 47 46 41 41 44 44 45 44 38 36 34 33 34 37 41 44
12 12 13 13 12 10 8 8 7 6 7 10 9 8 7 8 8 6 6 5 10 15 19 25 30 32 33 36 40 47 44 39 39 40 43 46 50 39 34 31 31 32 33 37 39
13 12 11 12 13 12 11 9 8 7 6 7 9 8 7 7 8 7 8 7 7 12 17 22 28 31 32 34 36 39 37 40 41 41 41 42 41 40 33 30 30 30 32 35 37
12 13 13 12 12 12 12 12 9 8 7 6 7 8 7 7 6 8 7 6 6 9 14 22 26 28 30 32 36 37 33 34 34 35 35 32 34 38 34 31 31 29 32 31 33
12 12 12 13 13 12 11 11 12 9 8 7 6 7 8 7 7 7 6 6 6 7 14 20 26 29 29 30 35 33 33 34 33 31 31 33 35 32 32 34 29 29 29 30 32
13 12 12 12 12 11 11 10 10 11 10 8 8 7 7 6 6 7 7 6 6 7 10 20 26 28 27 31 32 34 35 36 41 33 33 33 38 34 30 33 30 26 28 30 30
10 12 12 12 12 11 10 9 8 9 10 11 10 10 9 6 6 9 7 6 7 7 11 16 23 27 27 27 32 36 34 35 38 37 38 35 37 42 39 32 29 26 26 28 29
9 10 11 11 11 11 11 10 8 8 9 10 12 14 12 7 9 9 7 6 8 8 12 16 18 24 26 26 30 35 31 39 36 41 42 41 40 43 46 41 36 28 25 25 27
10 9 9 10 11 11 11 10 9 8 9 13 15 15 12 11 10 10 9 8 9 8 12 16 17 21 24 25 24 30 34 36 35 43 48 49 45 49 48 43 37 30 29 26 25
10 10 9 9 10 11 11 11 11 10 10 10 11 10 10 11 10 10 10 10 9 9 11 14 15 18 21 24 24 28 32 36 42 44 46 48 49 50 51 51 47 34 30 28 23
11 10 10 9 9 10 11 11 11 11 9 8 8 8 8 10 10 7 10 11 10 9 9 11 13 20 24 24 24 28 33 36 42 45 45 49 48 49 53 52 50 47 39 28 31
12 11 11 10 9 10 10 11 12 11 11 8 9 10 13 12 10 8 8 9 11 10 10 10 13 19 23 23 24 24 27 33 37 46 48 49 48 49 49 52 53 47 42 40 35
14 12 11 11 10 9 10 10 10 10 14 10 10 11 13 13 11 9 8 9 11 12 11 11 12 18 21 22 24 21 20 27 37 44 45 46 41 45 48 51 48 46 42 42 39
17 15 13 12 11 10 9 10 10 14 16 11 11 12 12 13 11 9 8 11 13 11 11 11 11 17 20 20 24 24 23 26 33 42 40 41 41 35 43 44 43 43 41 39 37
19 17 16 13 12 11 10 10 13 18 18 12 14 14 13 13 13 12 9 12 14 13 11 11 10 14 18 23 25 27 28 27 32 40 40 31 35 27 34 29 31 37 41 40 39
22 20 18 16 14 13 11 12 16 19 14 13 14 15 15 12 15 13 12 14 16 19 18 14 11 13 15 24 28 29 31 34 32 38 34 30 34 24 25 26 27 33 38 40 42
24 22 20 18 16 15 13 14 19 16 13 14 15 16 15 14 16 16 14 14 17 17 18 18 15 12 14 19 25 28 27 31 37 33 31 35 30 22 25 24 26 29 35 42 42
28 26 24 21 20 20 16 14 14 15 17 17 15 15 14 15 15 17 15 13 15 18 19 19 16 12 15 20 22 28 29 26 29 33 31 30 27 23 24 24 25 27 31 34 35
33 30 27 28 28 27 21 16 14 16 17 15 16 17 17 18 16 17 18 17 19 21 22 18 15 10 15 20 24 23 25 28 28 35 37 31 27 21 22 23 23 26 26 29 31
37 34 31 32 33 32 26 20 16 15 15 14 16 18 19 18 18 18 19 20 18 21 24 24 18 10 12 17 21 24 24 28 27 26 29 30 25 22 22 21 20 21 21 24 28
42 39 37 38 39 34 30 26 21 18 16 15 16 17 16 17 17 18 19 23 23 19 22 26 26 22 13 12 14 20 23 22 26 27 24 26 26 21 22 21 21 19 18 25 28
51 44 41 43 43 39 36 33 28 24 21 20 17 17 16 16 19 18 18 24 30 26 25 25 27 28 22 17 15 13 15 21 23 25 27 25 22 22 22 23 21 20 22 28 29
49 44 43 54 51 49 47 39 34 32 27 24 23 21 21 20 22 23 21 27 34 36 33 32 31 29 25 18 14 16 14 15 20 23 23 22 20 20 21 23 21 19 23 26 31
54 50 58 56 61 64 57 47 40 35 34 31 29 25 24 24 23 22 23 25 36 36 46 38 34 31 25 20 17 15 14 14 15 14 20 17 17 16 20 22 21 19 24 24 31
77 77 65 59 53 56 61 55 48 46 40 34 33 31 29 30 28 30 26 25 33 41 45 45 42 37 28 28 23 14 14 16 17 16 17 16 18 16 17 18 20 22 26 25 29
82 74 74 65 58 57 54 52 55 52 42 40 38 34 31 30 30 33 32 30 34 41 51 53 48 50 34 27 23 24 15 17 18 19 17 18 17 16 14 20 22 23 26 26 26

GFSSW_prec_cthk_006.txt.gz
RH
12 12 13 12 10 8 7 6 6 6 6 9 9 7 7 7 8 7 8 13 18 19 25 30 34 40 42 48 43 45 51 46 47 53 41 37 31 28 30 33 38 42 47 54 55
11 11 11 12 12 11 9 8 7 6 6 6 9 8 7 7 7 6 7 7 13 16 24 31 35 38 41 40 40 43 51 46 43 48 44 40 39 30 29 31 36 41 43 47 50
11 11 11 10 11 11 11 10 8 7 6 5 6 9 7 7 6 7 7 6 8 14 22 28 33 36 35 35 37 38 49 44 43 41 45 40 43 39 30 31 32 34 41 43 47
11 12 12 11 10 10 10 11 11 9 7 6 5 6 8 7 8 7 7 7 7 10 18 25 30 33 32 33 34 35 33 35 41 38 41 44 38 39 29 28 31 32 32 39 42
12 11 11 12 11 11 11 10 10 11 9 7 7 6 6 9 6 7 6 7 6 7 14 21 27 31 29 32 34 33 31 32 32 33 36 40 36 37 32 28 29 32 32 34 38
12 12 11 11 11 11 10 10 10 9 10 10 8 8 7 7 7 7 7 7 8 7 11 18 27 29 28 30 33 32 30 31 27 25 27 33 33 32 32 30 30 31 33 34 36
10 10 11 12 11 11 10 9 9 8 8 9 10 9 10 8 6 6 7 8 8 7 9 15 24 27 28 30 33 33 30 33 30 28 28 32 36 32 30 31 30 31 33 34 34
10 9 9 10 11 12 11 10 9 8 7 7 8 10 12 11 8 7 8 8 6 8 8 13 20 25 26 29 31 32 32 36 30 33 31 37 42 37 34 27 31 30 30 32 31
10 10 9 9 9 10 11 11 10 9 8 7 8 11 12 10 9 9 8 7 7 9 7 10 16 23 26 29 30 32 35 35 35 33 37 39 47 43 43 36 28 29 30 30 32
12 11 10 9 9 8 9 10 11 10 10 10 11 14 11 11 13 11 9 8 8 10 8 10 15 20 23 25 25 33 33 34 35 34 38 40 46 43 45 42 34 28 29 28 26
13 12 10 10 9 8 9 9 13 15 13 11 12 10 10 11 12 13 11 8 8 9 8 9 12 17 21 23 24 31 35 36 36 43 45 46 45 43 44 44 39 30 28 27 24
15 14 11 10 10 9 9 10 11 11 9 9 9 8 8 9 9 10 12 12 9 9 8 9 11 15 20 23 24 30 32 33 35 44 44 45 45 43 44 46 45 40 35 27 27
17 16 14 11 11 10 10 12 10 10 10 8 8 8 9 9 10 9 11 11 11 9 8 9 9 14 18 20 24 26 30 34 39 40 42 47 45 42 43 47 47 47 43 38 34
21 19 16 14 13 11 13 11 10 11 12 9 10 11 13 13 12 10 9 10 11 10 9 8 9 12 15 19 23 24 24 33 38 44 43 41 42 39 41 42 43 43 45 42 44
23 21 20 17 14 13 14 11 11 14 15 12 11 13 12 12 12 12 10 11 12 11 12 10 7 9 13 16 20 22 27 28 33 40 43 46 46 39 39 38 39 39 40 41 39
27 24 23 21 17 15 14 13 16 19 17 12 12 11 12 12 12 12 11 11 13 14 13 11 9 8 9 14 21 23 30 32 32 34 38 39 42 34 36 32 34 35 38 39 40
30 27 25 24 23 18 16 17 19 17 15 13 13 13 12 12 13 14 12 12 13 16 16 12 11 7 8 12 21 24 29 34 35 34 35 37 39 32 31 31 27 30 33 39 42
34 31 27 25 24 20 19 18 19 16 15 15 15 15 15 14 12 13 15 13 12 16 17 16 14 10 8 9 19 22 24 30 34 30 31 35 37 28 25 27 26 28 28 36 40
38 35 33 29 28 26 25 19 18 17 18 16 15 16 16 16 14 14 15 16 15 16 16 19 16 15 9 10 15 21 25 26 27 27 26 24 30 24 26 27 26 25 28 31 35
42 43 40 37 33 34 28 22 18 17 18 20 18 16 16 16 16 15 15 15 16 16 18 22 22 18 15 13 10 19 22 29 28 33 32 28 28 30 26 23 24 25 25 27 31
48 47 45 41 44 43 32 25 23 20 20 21 19 18 18 17 18 18 17 18 17 19 20 22 25 20 18 13 11 14 23 26 28 28 29 31 28 27 24 25 26 26 26 25 27
48 45 45 51 53 43 38 33 30 25 22 21 20 18 18 20 19 18 18 18 19 20 24 24 27 24 15 12 12 16 20 27 29 31 29 27 23 23 27 22 20 22 24 25 23
49 43 43 48 49 47 47 42 38 33 26 24 21 20 19 19 20 19 18 17 18 21 25 28 28 35 26 17 16 14 17 22 26 28 30 31 28 24 26 21 20 22 22 20 21
61 48 47 54 53 59 58 57 49 40 34 29 27 24 20 21 20 20 20 17 20 23 27 29 28 26 26 23 20 17 13 16 21 26 27 27 28 27 23 21 19 21 22 21 24
72 67 73 56 71 77 76 72 60 51 47 38 35 33 27 25 24 23 23 25 26 28 34 39 36 38 28 23 27 25 22 17 17 19 26 25 26 27 28 21 18 19 21 22 24
74 78 86 82 67 54 57 66 69 59 59 54 44 36 32 31 29 25 24 23 25 31 31 41 45 41 42 35 31 29 28 22 18 14 19 22 23 24 24 21 19 17 20 23 23
81 84 83 69 72 73 64 62 64 77 66 54 60 53 49 43 42 38 35 31 36 34 37 42 48 51 45 38 36 35 29 27 22 16 15 17 15 15 18 19 18 17 18 21 24

GFSSW_prec_cthk_009.txt.gz
RH
10 11 11 11 11 11 8 7 6 6 5 5 6 8 7 7 6 6 9 14 20 20 25 32 36 38 43 42 35 47 51 41 43 56 42 31 35 33 38 36 46 57 58 59 59
11 11 11 10 10 10 10 10 8 7 6 5 5 6 8 6 6 6 7 8 13 17 22 32 36 40 44 43 36 49 64 48 38 53 47 39 39 33 34 35 40 45 56 56 56
11 11 11 11 10 10 10 10 10 10 7 6 6 5 6 7 6 10 8 6 7 12 21 30 34 41 42 39 30 40 58 46 42 42 54 40 43 41 41 34 38 42 47 49 51
12 11 11 11 11 11 10 10 10 9 9 7 7 6 5 6 10 12 7 6 6 9 18 27 32 37 39 32 28 32 42 41 43 39 49 44 47 41 34 42 34 39 42 43 49
10 10 11 11 10 10 10 10 10 9 8 9 8 7 6 8 8 8 6 6 6 8 15 23 29 34 35 30 31 29 35 33 35 37 41 50 47 40 38 30 31 34 34 37 43
9 10 9 10 10 10 10 10 10 9 8 8 8 9 8 10 8 8 6 6 8 8 12 18 27 31 33 29 30 30 31 31 33 32 32 47 45 42 39 31 30 31 31 34 39
9 9 9 9 9 10 10 10 10 10 8 7 7 7 10 10 8 7 8 9 10 9 10 14 23 27 29 25 27 30 30 32 31 34 31 37 38 33 40 37 29 30 33 34 38
11 10 9 9 8 9 9 10 10 10 9 8 7 6 9 10 11 10 7 8 9 9 8 12 18 24 26 28 29 29 28 31 34 34 33 33 37 27 34 35 35 31 32 33 34
13 11 10 10 9 8 8 8 9 10 10 9 9 10 10 10 9 8 8 9 11 8 9 11 17 22 24 22 26 31 29 30 40 31 38 32 58 44 33 33 36 31 30 31 33
16 14 12 10 10 9 8 8 8 9 11 10 13 15 10 10 13 13 10 10 10 10 10 9 12 19 23 25 24 32 30 30 40 36 40 28 59 44 39 39 32 33 31 28 30
18 16 14 12 10 9 9 10 13 18 16 12 15 11 14 12 14 11 13 10 9 12 9 7 9 13 19 22 24 28 28 27 30 36 31 40 44 39 41 40 37 35 29 28 26
20 19 17 14 12 10 10 12 13 12 10 9 9 9 10 10 11 12 14 11 9 11 11 9 8 10 18 23 24 28 27 29 33 34 36 38 44 44 45 40 38 35 32 28 29
24 21 20 18 14 14 13 14 12 12 11 8 7 7 7 8 7 8 10 13 10 10 11 8 7 9 14 22 25 27 27 27 28 35 47 41 46 44 44 45 42 41 37 31 33
28 25 24 21 19 17 17 16 13 14 13 10 10 8 8 8 8 7 8 10 13 12 11 10 9 8 11 17 21 25 27 27 27 40 45 34 37 43 36 42 42 41 42 39 38
32 30 27 24 22 20 20 17 15 16 16 13 13 13 11 10 14 10 10 10 12 13 11 10 9 9 9 11 18 21 24 27 28 30 45 34 32 37 39 38 43 39 40 39 40
36 33 30 28 28 23 21 18 18 20 19 15 14 13 14 11 11 14 10 10 11 14 12 11 12 8 9 10 15 18 25 26 25 27 30 33 36 32 45 37 39 41 38 40 41
37 35 33 31 28 28 24 22 21 20 16 16 15 14 13 13 12 13 10 10 11 12 14 13 12 12 9 10 12 19 25 28 28 26 26 27 33 46 33 34 36 35 41 42 37
38 36 36 37 33 27 25 23 22 17 18 17 16 17 16 14 14 15 14 12 10 12 13 15 15 13 10 9 11 14 19 23 30 27 25 25 28 27 36 30 32 35 30 34 47
38 41 41 41 41 35 31 24 19 19 19 19 19 17 19 17 16 15 16 15 13 12 12 16 18 15 13 10 10 13 17 20 23 24 25 23 24 30 34 35 31 31 29 30 38
39 40 42 43 47 43 37 26 22 22 20 20 19 19 20 20 19 17 18 18 17 13 12 14 19 20 14 13 10 9 14 21 24 27 27 22 23 26 28 30 29 32 30 30 35
37 34 37 43 50 51 39 31 30 27 24 21 22 22 19 19 20 20 18 17 17 18 16 14 17 22 23 14 12 10 10 19 22 23 24 26 24 21 27 35 30 30 27 28 33
38 35 38 38 49 50 48 45 40 33 30 25 22 23 25 23 22 21 21 20 21 18 18 18 19 22 21 20 19 16 12 14 22 27 23 23 22 24 24 27 28 30 29 28 32
38 37 35 36 34 39 44 48 47 45 39 32 25 23 24 24 24 23 21 21 24 22 21 22 20 22 27 23 20 16 13 11 13 21 26 26 23 23 28 25 27 29 28 25 31
45 36 37 44 43 40 43 46 48 51 47 41 34 28 25 24 23 23 24 23 25 23 22 25 29 23 25 25 22 19 17 15 14 15 19 23 25 26 25 26 28 28 26 29 33
58 49 55 51 59 69 74 72 71 76 64 55 48 38 29 27 25 24 24 24 23 22 20 23 25 27 25 30 29 23 17 16 15 16 18 19 24 25 26 27 27 26 25 25 27
66 70 67 60 59 61 80 76 67 70 75 74 60 50 38 33 28 26 26 28 28 24 25 23 26 30 32 29 27 27 24 20 18 16 16 18 20 22 25 30 30 27 26 23 27
78 81 83 58 63 66 53 76 73 62 71 73 82 80 60 48 48 40 34 30 30 39 36 29 38 45 42 37 35 32 24 24 23 21 19 18 16 19 22 25 26 27 29 26 21

GFSSW_prec_cthk_012.txt.gz
RH
11 10 10 10 10 10 10 9 8 7 6 6 5 5 6 7 6 5 6 11 20 19 24 29 30 30 34 39 54 55 55 58 52 42 40 34 32 47 52 47 56 69 56 56 58
11 11 10 10 10 10 10 9 9 9 7 6 6 5 5 6 5 5 4 7 13 18 21 26 29 33 31 41 49 50 56 56 62 43 45 38 36 29 33 39 54 50 57 52 60
10 11 11 10 10 10 10 10 10 9 9 8 6 6 5 5 5 10 7 7 7 12 18 24 28 31 36 35 43 45 53 51 48 44 42 48 41 31 36 36 40 55 52 52 58
9 9 10 10 10 10 10 10 10 10 9 9 7 6 6 5 12 13 9 7 5 7 14 21 27 33 35 34 35 35 38 40 50 45 41 44 43 37 39 49 38 46 44 50 53
9 9 9 9 9 10 9 10 10 10 10 9 8 7 7 8 6 9 8 7 5 5 11 20 25 33 34 35 31 31 35 36 34 36 35 50 47 43 39 45 40 37 41 45 48
10 9 8 8 8 8 9 9 10 10 9 9 8 7 7 9 8 9 8 6 6 6 8 18 25 32 33 33 31 29 29 31 29 30 35 46 48 40 37 38 38 34 34 39 45
11 10 9 9 8 8 8 8 9 10 10 9 8 7 8 7 8 10 8 9 7 9 8 13 24 30 32 29 28 29 28 28 29 29 34 34 52 42 37 35 38 32 31 35 40
15 13 11 10 9 8 8 8 7 8 9 9 9 8 7 7 8 9 10 10 11 11 9 12 18 25 29 27 25 25 27 29 29 33 32 29 47 33 39 35 35 34 29 32 36
19 17 15 12 11 9 8 8 7 7 7 9 10 12 10 7 8 9 10 9 8 10 10 10 15 18 26 24 25 24 28 27 28 36 35 27 46 51 44 37 36 37 32 28 32
21 19 17 15 13 11 9 8 8 8 9 10 10 16 10 10 11 9 9 8 8 11 9 11 12 15 20 22 23 23 26 27 27 31 34 42 37 42 44 50 43 35 33 30 28
24 22 20 18 15 12 11 10 13 14 20 15 16 12 12 11 11 14 13 13 12 11 11 12 11 12 17 20 20 22 28 26 29 39 38 47 51 40 41 52 43 34 34 31 30
29 26 24 21 18 16 14 14 14 12 10 9 9 13 12 14 13 14 13 13 11 11 11 11 10 8 13 20 21 21 28 28 28 33 43 41 46 39 51 51 41 33 29 29 28
34 31 28 26 22 22 19 16 16 13 12 9 8 7 7 13 12 10 12 15 11 10 13 11 9 7 9 15 20 21 26 28 29 34 35 34 37 48 52 47 39 34 32 27 27
35 33 30 29 26 23 21 22 17 15 14 10 9 9 8 8 8 8 9 13 14 11 11 12 10 10 7 10 16 21 22 26 26 34 38 35 41 42 50 45 41 30 34 31 27
35 35 32 30 30 25 25 24 20 19 19 13 11 10 9 8 8 8 7 9 10 12 12 10 11 10 9 8 13 18 21 24 25 31 39 43 43 42 42 48 49 40 32 34 34
34 34 34 33 35 29 25 23 22 22 19 14 14 13 11 10 10 13 9 8 9 11 14 13 11 10 9 9 10 16 24 23 24 27 32 36 38 32 43 33 44 49 46 34 33
33 33 33 34 35 32 32 28 25 22 16 15 15 16 15 13 11 15 12 10 11 12 13 13 11 11 10 10 11 12 21 25 25 26 27 28 38 32 39 36 34 46 54 44 34
31 32 33 35 39 34 32 30 27 19 18 17 16 16 17 18 14 14 16 15 11 12 13 14 14 11 12 8 11 11 16 21 28 26 25 21 26 29 37 37 35 45 48 44 38
23 25 28 34 40 42 39 29 23 22 21 20 19 18 18 18 18 16 15 16 12 12 13 13 13 14 12 12 9 10 14 14 21 22 24 22 22 19 26 34 33 42 37 36 41
21 23 20 28 34 42 41 33 26 25 24 24 22 21 20 20 20 19 18 18 17 14 12 13 15 16 16 14 11 9 11 14 18 25 26 22 24 26 24 31 37 35 37 32 27
24 26 17 27 29 40 39 32 35 34 31 28 24 21 20 22 21 21 19 18 18 19 17 14 16 16 21 16 13 13 10 12 15 18 22 25 23 22 25 26 29 31 29 33 29
32 29 29 38 38 40 38 40 42 39 39 34 31 26 22 22 23 22 22 21 20 21 22 19 17 18 18 22 19 14 10 10 14 19 17 21 21 21 22 24 28 30 28 27 21
37 29 18 29 36 32 30 33 42 45 46 47 40 32 27 24 24 24 22 20 21 21 20 21 22 20 18 21 23 19 13 14 12 13 19 21 20 19 23 31 34 31 28 27 30
50 37 29 35 38 42 40 32 32 37 44 50 52 48 39 31 26 24 25 23 20 21 22 21 23 23 19 19 23 24 18 16 15 14 13 19 23 19 22 25 28 33 32 32 28
63 52 51 47 42 61 82 81 59 53 54 65 70 65 57 46 33 27 25 25 23 23 24 25 26 26 22 22 25 25 23 21 20 14 16 11 19 23 20 25 29 29 32 31 29
69 70 68 61 51 51 65 78 72 60 65 74 75 78 73 65 63 49 32 27 27 26 26 26 29 29 28 28 26 28 26 21 19 17 14 14 16 14 20 21 25 33 31 31 28
75 73 85 76 67 62 44 59 74 80 79 78 78 83 83 82 73 56 44 35 31 28 28 29 27 31 30 26 31 30 28 27 23 17 17 17 12 15 16 18 21 28 31 32 31

GFSSW_prec_cthk_015.txt.gz
RH
10 10 10 9 9 9 10 9 9 8 7 7 6 5 5 4 4 5 4 5 14 17 23 28 32 35 36 51 60 64 68 77 62 54 49 52 53 59 50 63 52 61 54 50 48
10 10 10 10 9 9 9 10 9 9 9 8 7 6 5 5 4 4 3 3 7 17 20 25 28 34 37 48 50 52 63 63 54 53 49 48 50 46 47 47 51 61 58 54 49
8 9 9 10 10 9 9 9 9 9 10 9 8 6 6 5 4 8 8 5 6 12 17 22 26 29 32 45 45 54 51 51 53 46 50 48 47 40 38 46 46 39 50 51 46
9 8 8 9 9 9 9 9 9 9 9 9 9 8 6 6 7 13 10 7 6 7 13 19 23 26 28 41 41 46 44 44 47 47 45 48 50 48 36 39 47 42 44 45 49
10 10 9 8 8 8 8 9 9 9 9 9 8 8 7 7 5 6 8 8 7 5 8 16 21 25 29 31 33 37 37 38 44 43 44 44 45 52 43 40 39 44 41 41 44
14 12 10 9 9 8 7 8 8 8 8 8 8 8 7 8 6 7 7 7 7 6 5 10 20 25 31 31 29 32 33 33 35 43 39 38 50 50 54 43 35 37 37 41 40
20 18 15 12 10 9 8 7 7 8 8 8 8 8 7 5 7 8 9 8 6 6 6 8 16 25 30 33 29 30 32 30 30 30 38 41 45 57 55 43 36 37 31 37 45
22 21 19 17 14 11 10 8 7 7 7 7 8 8 7 6 6 7 9 8 9 9 8 8 13 22 28 30 29 29 28 30 30 28 31 40 51 52 53 44 35 34 30 32 40
26 23 21 19 17 15 12 10 8 7 6 6 7 9 10 7 6 5 7 9 9 11 11 10 13 18 24 28 28 26 25 24 28 30 35 38 44 33 46 51 41 33 29 30 37
29 27 24 21 19 17 15 11 10 11 12 11 10 14 8 9 8 6 7 10 11 9 10 12 13 15 18 23 26 24 22 23 29 30 32 39 41 42 42 43 41 31 29 26 31
33 31 28 25 22 19 17 14 13 13 18 16 16 11 9 10 12 11 9 9 9 9 11 10 12 12 14 17 22 23 23 23 27 29 40 42 42 44 42 41 37 28 29 28 25
34 32 31 29 26 23 20 18 16 15 12 11 9 9 10 13 14 13 14 12 10 11 13 11 11 10 13 16 19 23 21 22 28 32 38 41 42 42 44 33 35 30 30 26 27
33 32 32 32 28 27 23 22 20 17 14 11 10 9 8 12 13 14 14 13 14 12 12 11 12 11 10 13 17 20 22 23 29 37 39 44 46 45 46 42 49 41 34 28 22
32 31 31 32 31 28 24 25 23 18 19 13 12 10 9 8 11 12 15 13 13 13 12 11 11 12 10 10 12 18 22 23 29 32 44 49 52 54 49 49 49 48 47 32 24
31 31 31 30 34 32 27 27 22 22 27 14 12 10 10 9 9 11 12 13 13 14 12 10 12 12 13 10 9 11 20 24 28 30 36 39 44 50 50 49 43 48 52 39 32
24 26 29 30 32 32 31 28 25 26 26 16 13 12 11 11 10 10 12 11 11 14 14 11 11 11 11 12 9 8 14 20 26 28 33 34 42 46 56 49 48 48 51 48 46
21 20 22 27 32 32 34 31 30 28 20 17 17 15 13 12 12 11 12 12 11 11 11 11 12 12 11 11 12 9 12 19 27 30 31 30 35 37 38 43 37 44 53 51 53
18 16 15 18 23 32 35 34 34 24 22 20 21 20 18 16 14 12 15 14 12 10 11 11 12 11 11 11 11 10 10 15 25 26 26 26 30 29 29 31 34 43 49 47 45
17 13 10 11 18 26 36 38 29 27 26 25 23 21 19 20 18 16 16 16 13 11 13 12 12 11 12 11 11 12 11 10 16 22 27 23 24 24 26 28 36 43 42 43 47
21 16 7 16 22 25 31 33 30 30 28 31 32 24 23 23 24 22 19 16 17 16 15 13 17 12 13 13 12 11 11 13 13 17 22 18 24 24 26 26 29 35 38 39 38
24 27 8 21 25 29 29 28 30 34 38 39 35 32 28 25 25 24 20 19 18 19 20 17 15 14 16 16 15 13 11 12 13 15 18 24 18 19 25 29 31 32 33 33 33
32 33 17 26 31 34 32 32 31 33 42 45 42 40 37 32 28 26 22 20 21 21 22 20 19 16 15 16 17 15 14 12 14 16 19 19 16 18 21 25 30 28 30 30 32
41 34 13 28 39 35 35 34 37 37 38 40 48 52 46 40 38 30 26 22 22 23 22 22 21 22 17 17 17 18 18 15 12 14 16 22 14 12 20 28 34 37 39 36 34
60 48 29 37 41 44 38 42 46 43 47 47 48 57 56 51 48 38 33 27 25 22 22 25 23 21 21 17 19 21 20 20 17 14 11 11 11 12 18 21 23 31 36 37 36
81 72 67 53 52 65 73 77 64 52 50 54 58 71 77 71 69 52 45 38 31 25 24 24 24 23 21 21 19 19 22 23 20 14 15 11 11 12 13 21 23 28 29 31 32
94 88 78 64 60 60 63 63 68 59 64 55 73 73 76 88 91 79 65 55 46 33 33 29 30 26 24 24 23 19 21 24 24 21 18 16 12 12 13 17 23 30 27 28 29
96 94 95 84 70 65 61 66 77 86 79 77 80 76 80 82 89 80 70 57 51 46 39 34 33 31 27 25 29 28 19 24 26 24 23 18 13 14 12 16 20 22 29 32 29

GFSSW_prec_cthk_018.txt.gz
RH
10 10 10 10 9 9 8 9 9 9 8 8 8 7 5 4 4 4 4 5 11 21 26 30 33 34 49 56 69 64 61 60 56 56 61 63 62 60 44 50 47 54 45 45 46
8 8 8 9 9 9 9 8 9 9 9 9 8 7 6 5 4 3 5 4 6 14 22 28 29 35 42 46 59 62 59 54 50 53 58 58 57 50 45 37 36 53 50 47 46
9 8 8 8 8 8 9 9 8 9 9 9 9 8 7 6 5 6 7 6 3 9 20 26 27 28 35 39 45 51 54 56 47 52 52 57 52 53 53 43 35 32 43 45 41
12 10 9 9 8 7 8 8 9 8 8 8 8 8 8 7 6 10 10 7 4 7 17 22 25 27 29 28 44 43 46 51 50 52 50 51 48 54 49 36 39 35 31 40 40
18 16 13 10 9 8 7 7 7 8 8 8 8 8 7 7 6 6 8 8 7 7 10 17 24 26 27 32 42 38 42 47 51 48 52 54 50 50 50 43 43 43 35 37 41
23 20 18 16 14 11 9 8 7 7 7 8 8 8 7 7 6 6 6 6 8 7 7 12 19 24 29 32 37 37 36 38 40 45 51 51 50 49 53 49 47 44 36 34 40
27 25 22 20 18 16 13 10 9 7 6 6 7 7 7 6 7 8 9 9 8 7 7 10 16 23 27 31 33 33 32 30 31 35 53 47 50 47 44 47 40 44 39 31 36
27 25 24 23 21 18 17 14 11 8 7 6 6 6 6 6 7 6 6 7 8 10 6 7 12 20 26 31 31 30 28 28 30 31 43 43 49 47 45 49 55 48 42 31 32
31 28 25 24 23 20 18 16 13 10 9 8 7 7 7 6 6 6 5 7 7 9 10 8 11 15 22 28 32 31 29 27 27 31 44 46 50 46 50 46 44 54 47 32 29
33 31 29 27 25 22 21 17 15 14 14 14 13 13 7 6 8 7 6 7 9 9 11 12 12 14 18 23 29 30 29 27 27 30 37 41 42 45 49 51 49 51 45 36 24
31 30 29 29 28 26 23 19 17 16 16 14 14 12 10 11 10 9 7 7 10 10 10 11 13 14 15 19 23 30 30 27 28 31 34 37 40 43 49 53 51 48 40 34 27
30 30 29 29 29 28 25 24 24 22 17 15 13 11 10 10 12 12 11 10 11 11 10 11 12 12 14 16 19 25 27 26 26 28 32 43 40 43 47 48 45 43 44 32 31
25 27 28 29 30 29 27 26 24 22 19 15 15 12 11 9 10 12 13 12 11 11 10 10 10 10 11 14 16 18 24 25 25 28 35 42 47 48 47 50 50 47 41 31 29
21 22 23 25 29 29 27 27 25 23 22 16 15 13 12 10 9 11 14 13 14 12 11 12 11 12 10 12 14 16 18 24 27 30 37 48 53 51 50 51 49 47 43 32 30
15 14 16 20 24 29 31 28 27 25 30 17 14 13 12 11 10 11 13 15 14 13 14 12 11 11 13 11 11 11 16 25 28 30 33 40 47 46 47 49 48 45 44 43 31
14 12 12 13 16 22 29 30 29 29 31 19 15 14 14 12 12 11 14 15 15 15 15 13 12 12 11 11 12 9 12 20 27 31 36 32 38 42 45 43 45 44 42 43 39
15 13 10 11 11 17 25 29 31 32 23 20 20 16 15 15 13 12 15 18 18 17 16 16 15 12 12 13 13 12 11 16 24 30 29 29 37 33 33 36 38 41 42 41 43
17 14 10 9 8 13 22 28 33 26 26 23 23 20 18 16 16 14 15 19 18 16 14 16 17 13 12 12 12 13 12 12 18 26 27 27 35 25 28 34 36 38 41 40 41
18 13 8 12 15 19 23 33 28 28 29 29 27 26 24 22 21 18 16 14 15 17 15 16 13 10 11 11 13 13 13 11 12 17 25 25 26 23 25 31 32 36 40 38 38
23 20 7 19 25 29 31 30 26 27 31 34 34 30 33 30 27 25 21 16 14 15 16 15 15 11 9 12 13 13 12 13 14 14 16 18 22 21 21 26 27 30 35 34 36
29 31 10 19 25 28 38 32 23 18 31 38 39 42 37 37 34 33 26 19 18 17 17 16 17 12 12 14 14 14 14 14 13 14 12 17 12 14 15 24 28 29 28 32 34
40 41 14 27 29 37 40 31 29 27 21 33 43 44 44 39 35 36 32 27 23 24 24 20 19 16 14 12 14 16 14 13 14 14 15 10 8 9 13 22 27 28 33 36 33
50 43 28 39 45 51 52 51 46 45 43 37 44 48 49 51 48 41 38 33 36 33 30 30 20 22 20 17 17 18 15 14 14 13 12 16 11 9 11 21 25 29 34 38 44
66 62 44 46 59 58 60 62 62 58 53 52 44 47 58 58 56 56 49 43 44 41 37 31 28 22 19 17 15 16 16 16 16 16 13 11 11 9 11 18 24 26 26 34 43
79 78 73 64 64 73 70 65 69 72 66 58 56 56 62 70 67 60 58 55 48 47 43 39 34 24 20 19 19 16 16 16 16 14 15 11 12 10 8 15 21 23 27 26 31
88 88 86 76 76 73 75 79 78 70 74 68 62 58 60 64 68 76 71 59 59 53 52 46 40 33 27 22 18 20 18 17 17 15 15 15 14 13 10 9 17 21 21 31 31
87 90 92 87 87 80 75 76 84 85 85 86 78 71 58 49 51 58 69 61 59 60 58 55 46 42 36 26 23 27 16 18 18 18 17 18 17 15 13 10 11 15 21 28 33

GFSSW_prec_cthk_021.txt.gz
RH
8 8 8 8 9 9 9 9 9 8 9 9 9 8 7 6 5 4 4 4 10 22 28 30 36 43 49 59 69 71 67 63 53 52 53 55 58 59 48 43 50 53 46 46 46
10 9 9 8 8 8 8 9 9 8 8 9 9 9 8 7 5 4 4 4 6 13 24 31 36 41 53 52 66 67 64 56 53 50 49 55 59 64 57 41 41 53 44 45 45
16 14 11 10 9 8 8 7 8 9 9 8 8 9 9 8 7 5 7 7 5 6 19 27 34 36 44 44 55 58 57 52 51 54 53 53 59 62 61 49 37 41 40 46 45
24 20 18 15 12 10 9 8 7 7 8 8 8 8 8 8 8 9 9 7 5 4 13 23 27 32 37 41 48 53 49 48 49 55 59 58 55 56 59 38 34 32 32 40 39
27 25 23 21 18 15 13 10 8 7 7 7 8 8 7 7 8 8 11 10 5 4 8 19 23 26 26 26 37 44 45 42 44 53 55 56 53 50 54 48 44 32 34 33 36
29 27 25 23 22 19 17 15 12 10 8 7 6 7 7 7 8 7 6 9 9 7 9 14 19 24 28 26 38 39 39 38 36 39 44 55 57 53 56 55 53 41 36 29 35
29 28 26 24 23 22 20 17 15 13 10 8 7 6 5 6 8 7 7 6 7 9 7 9 15 20 26 27 36 34 36 34 33 35 40 50 57 49 52 58 61 57 42 32 32
30 29 27 26 23 22 22 20 17 15 12 10 8 7 6 5 7 7 8 8 9 9 9 9 12 17 24 27 32 32 33 32 32 31 32 43 45 49 54 55 59 57 54 38 27
29 29 28 27 25 24 24 21 18 16 14 13 10 9 7 5 5 6 7 7 9 9 9 10 12 14 20 26 30 32 31 31 31 29 30 34 40 47 52 56 57 58 52 45 28
28 27 27 27 26 25 25 22 20 19 19 18 17 16 9 7 10 9 7 7 8 9 12 12 12 14 16 23 28 29 29 31 31 32 35 36 42 52 54 55 55 52 44 46 33
23 23 23 25 26 27 26 23 22 20 20 18 17 15 11 11 9 10 9 7 10 10 12 12 15 15 14 18 24 29 28 31 31 30 33 35 43 51 51 55 56 58 47 40 33
18 19 19 19 24 27 27 26 27 27 23 19 17 15 14 12 13 12 11 9 10 11 10 13 13 12 13 15 20 26 28 29 31 31 30 32 35 41 50 50 50 48 52 39 39
13 14 14 14 18 25 27 27 27 26 23 17 18 16 16 14 13 12 12 10 10 11 10 11 10 10 11 14 16 20 24 28 30 31 33 35 38 41 49 54 54 51 46 43 38
10 10 11 11 13 17 26 26 27 26 25 18 17 15 15 15 14 12 14 12 12 12 12 12 10 10 11 12 14 17 19 28 29 32 33 36 47 44 44 53 51 55 48 42 36
9 8 9 10 11 10 18 25 26 27 33 19 16 15 14 14 13 15 13 15 14 14 14 12 10 10 11 10 11 12 17 26 30 31 31 32 39 37 46 49 50 50 45 47 36
12 10 9 9 8 10 12 21 25 28 30 21 17 16 16 14 13 14 13 17 16 16 16 13 12 12 10 11 10 10 14 19 30 33 36 28 34 32 45 41 43 41 45 48 44
14 11 10 10 11 8 10 17 24 29 22 22 22 20 19 16 14 14 14 18 18 20 19 18 15 14 13 13 13 12 13 20 25 31 25 27 33 24 35 34 37 39 41 44 46
16 12 9 17 17 12 10 21 24 21 24 24 25 23 21 20 17 17 17 19 19 17 20 22 21 15 14 14 13 14 13 18 20 24 22 24 29 20 26 29 33 38 39 42 42
17 11 11 19 24 19 16 28 20 20 26 29 29 28 27 25 23 21 19 20 19 19 19 22 20 15 14 13 13 14 16 11 14 17 21 21 20 19 22 27 32 35 39 39 40
21 13 16 19 27 29 31 29 26 24 26 28 34 36 37 33 29 28 24 20 23 24 21 19 17 15 14 15 15 14 13 14 16 18 19 15 17 18 20 23 29 32 30 33 35
23 20 23 23 23 33 42 38 28 25 28 30 32 37 40 39 35 33 31 28 27 26 26 24 20 16 16 15 13 15 15 16 16 15 14 15 11 10 14 20 25 30 28 29 31
29 33 30 31 32 44 53 53 42 34 31 36 35 36 41 46 43 38 35 35 35 32 33 29 24 20 18 15 11 12 13 16 18 16 15 12 10 8 8 13 20 23 25 24 26
36 37 37 39 52 53 58 60 59 52 39 41 43 41 46 49 49 52 47 44 42 39 42 37 32 22 18 18 16 16 15 14 14 15 14 15 13 8 8 9 14 21 23 21 26
50 51 48 56 59 61 64 65 71 70 59 51 48 49 50 56 58 59 53 52 48 43 43 39 38 32 25 20 18 17 15 14 14 16 14 13 11 10 9 9 9 17 21 24 25
62 64 69 68 72 76 74 65 74 80 80 74 61 62 59 55 61 66 64 59 50 49 46 46 48 36 33 28 24 19 17 15 15 14 15 12 12 10 9 9 10 10 17 22 25
73 76 74 78 83 88 86 77 82 76 72 83 91 73 61 60 54 60 65 66 63 55 51 51 52 46 37 28 25 23 18 15 14 14 15 13 13 11 11 10 9 10 13 17 19
83 87 85 81 89 90 92 86 77 83 82 87 81 80 71 66 58 50 54 64 63 61 60 57 56 55 49 35 33 27 16 17 15 15 15 14 13 13 13 13 12 10 12 15 17

GFSSW_prec_cthk_024.txt.gz
RH
13 11 10 9 8 8 8 8 8 9 9 9 9 9 9 8 7 5 4 4 8 14 24 29 34 39 49 64 65 71 69 65 57 61 57 58 60 52 44 44 54 53 51 52 50
22 19 17 14 11 10 9 8 7 8 8 9 9 9 9 9 8 6 5 4 5 10 23 27 35 44 51 61 63 71 69 57 48 52 59 64 59 56 52 39 44 53 45 44 45
26 25 23 20 18 15 12 10 8 7 7 8 8 8 8 9 9 7 7 6 4 5 19 27 33 41 48 55 59 62 62 54 47 47 53 65 65 58 53 44 36 40 39 41 42
29 28 26 24 22 20 18 15 12 9 8 7 7 8 8 8 9 9 9 7 7 4 10 25 33 42 41 49 48 56 54 54 46 42 50 54 66 60 57 50 44 34 27 39 37
31 29 28 26 24 22 21 19 16 14 11 9 8 7 7 7 8 9 10 9 8 6 7 15 32 35 35 39 43 52 52 49 42 40 42 52 56 58 62 61 59 47 36 32 35
29 28 28 26 25 24 22 21 19 17 15 13 10 8 7 6 8 8 8 9 8 5 7 10 23 31 30 31 33 42 42 43 42 38 36 43 48 54 61 66 65 60 57 35 32
28 27 26 26 25 24 23 21 20 19 17 15 12 10 8 6 7 8 7 7 9 6 6 8 13 21 25 29 28 37 40 38 41 35 32 39 49 50 58 66 68 67 61 48 32
24 24 24 25 26 26 25 23 22 20 18 16 13 11 9 6 5 7 9 7 7 9 8 9 12 17 21 25 26 33 36 36 37 33 31 37 44 45 54 60 67 67 64 49 38
20 20 19 19 22 24 26 25 23 21 20 18 16 13 11 8 6 6 8 8 8 8 10 11 12 14 18 23 28 28 34 35 35 34 32 38 41 42 50 57 63 68 60 49 42
18 18 18 17 18 23 25 26 25 24 24 22 22 18 13 10 9 6 8 9 9 10 13 13 13 14 17 20 22 25 28 31 32 34 35 37 36 41 50 56 59 64 63 50 43
14 15 15 15 15 21 23 25 25 25 23 23 22 19 14 12 12 11 10 9 10 11 13 13 15 15 13 15 19 25 27 31 32 33 34 33 36 45 48 57 57 60 62 52 40
9 10 11 11 12 17 22 25 28 30 27 21 20 18 19 17 15 13 13 10 10 11 12 15 14 12 11 13 15 21 26 29 32 33 31 29 35 41 47 46 51 60 61 57 40
8 8 8 8 8 11 16 21 23 26 27 21 20 19 20 19 17 14 14 11 10 12 13 14 12 12 12 13 15 17 21 28 31 33 35 36 33 32 41 47 51 56 60 52 48
8 8 8 8 7 7 11 16 18 23 25 20 19 19 18 19 18 17 16 13 12 12 13 14 12 12 13 12 12 16 17 23 31 33 35 37 37 35 40 46 50 49 53 47 45
8 9 9 9 10 7 9 12 18 21 30 19 17 17 17 17 17 18 17 17 13 13 13 14 12 12 13 11 11 12 13 21 28 32 33 33 35 28 34 47 47 49 46 40 37
11 11 11 11 11 12 10 10 18 23 31 20 17 17 18 17 16 17 19 21 16 15 14 14 14 13 10 10 10 10 12 16 24 31 34 28 30 27 34 35 42 47 46 41 38
11 10 14 16 16 14 12 14 20 26 18 21 22 21 21 19 17 17 20 21 20 21 18 16 15 14 12 12 12 12 15 21 23 29 24 26 30 20 22 26 34 42 40 44 43
9 10 13 18 20 17 13 20 25 19 19 22 25 24 23 24 21 21 19 20 22 20 21 21 22 17 15 13 12 14 15 21 22 23 22 25 22 19 19 25 34 34 37 41 42
10 10 14 17 19 19 20 25 24 24 25 26 26 28 29 27 25 23 23 22 23 21 22 25 23 18 16 15 14 16 16 12 15 17 19 20 17 17 18 22 30 32 35 38 39
15 14 17 18 20 21 29 29 29 34 35 30 31 33 36 35 30 30 26 33 30 28 26 22 23 18 18 19 17 15 14 18 19 20 20 17 14 17 16 17 25 31 34 33 38
21 22 22 22 23 26 40 44 33 37 38 38 36 35 38 39 36 34 34 38 35 33 32 31 22 19 19 21 18 17 17 17 17 18 19 19 14 11 11 13 17 26 31 31 31
32 35 31 29 33 41 45 47 49 39 41 45 43 45 41 42 43 41 43 44 39 39 41 38 35 27 20 18 18 17 16 17 18 17 17 17 12 9 7 7 13 20 28 27 28
41 42 42 41 50 52 52 52 54 58 54 50 51 49 49 44 46 53 49 47 43 41 46 41 40 31 25 24 20 19 19 17 15 16 16 16 12 8 8 8 8 13 23 27 25
51 54 52 57 61 62 60 56 56 62 71 67 62 60 56 54 51 59 57 54 47 47 44 42 45 40 37 32 31 27 20 18 17 18 15 14 12 11 9 8 8 8 13 20 22
66 69 73 73 71 71 71 68 71 65 66 79 85 72 63 60 57 56 57 57 51 50 47 47 48 44 41 36 32 28 25 21 19 16 17 13 12 12 11 11 10 8 8 12 17
77 80 80 83 83 81 78 82 80 74 71 70 87 91 78 68 59 58 56 61 63 56 53 53 51 49 45 37 32 31 26 24 21 19 18 15 14 11 10 10 10 9 9 8 11
83 85 87 87 90 91 88 84 85 80 71 78 82 92 85 74 73 61 55 49 57 64 58 58 55 54 51 43 39 31 23 23 21 18 17 15 14 13 11 11 11 10 9 9 10

GFSSW_prec_cthk_027.txt.gz
RH
24 23 20 17 14 11 10 9 8 7 8 9 9 8 8 8 8 6 5 6 7 12 21 28 34 35 50 60 64 69 70 63 55 57 55 58 53 44 42 48 54 54 54 55 54
27 26 25 23 21 18 16 12 10 8 7 7 8 8 8 8 8 7 6 5 5 8 16 26 36 38 49 62 64 68 64 55 51 51 49 53 54 51 42 46 54 52 48 50 53
29 29 27 26 24 22 20 18 16 12 9 8 7 7 8 8 8 7 7 6 4 4 10 25 34 37 47 56 61 64 57 52 49 48 49 52 55 57 48 38 37 43 47 45 47
27 27 27 26 25 23 22 20 19 17 14 11 9 7 7 7 8 8 8 7 6 4 6 26 33 38 42 51 57 58 54 50 47 46 47 51 49 55 57 50 45 41 39 44 45
26 26 25 25 24 24 23 22 20 19 17 15 12 10 8 6 7 8 9 8 7 5 8 19 32 38 37 43 49 55 51 50 44 42 42 51 46 49 55 61 56 49 41 40 42
21 20 20 21 21 22 22 22 21 21 20 18 16 13 11 8 6 7 8 9 8 10 11 16 26 32 34 32 39 40 42 42 35 37 41 47 41 45 53 60 63 58 46 39 39
19 18 18 17 17 18 21 23 23 22 21 20 18 16 13 9 6 7 8 8 9 7 12 9 14 25 27 29 32 35 34 36 36 34 39 40 44 48 51 57 64 62 56 44 36
17 16 16 16 16 16 19 21 24 24 23 21 19 17 15 12 8 7 8 8 9 10 9 7 10 21 24 25 28 33 33 36 38 36 36 37 36 43 47 55 58 61 60 52 39
13 14 14 13 14 15 18 21 24 26 25 23 21 18 16 13 10 7 8 9 9 11 10 10 12 13 17 21 23 27 29 37 39 36 34 36 36 40 45 50 55 59 59 53 44
8 9 9 11 12 14 17 19 22 25 28 27 25 22 17 14 10 8 7 10 11 12 14 13 15 15 14 17 19 22 26 34 37 35 31 34 37 40 47 48 52 57 61 55 47
7 7 7 7 7 11 14 16 19 23 25 28 28 24 19 16 17 10 8 11 11 12 12 13 13 12 11 13 17 21 24 31 36 35 31 31 34 40 47 48 53 59 62 59 51
8 8 8 6 6 9 10 14 18 20 22 21 23 24 22 19 20 17 10 11 12 12 13 15 13 11 11 12 14 17 23 26 33 32 30 30 33 35 44 45 44 50 59 58 53
10 8 8 7 7 7 8 13 14 17 21 17 19 22 24 22 21 20 16 12 12 12 13 13 12 12 13 12 12 14 16 22 26 31 30 30 29 33 37 42 45 51 52 61 54
11 10 10 8 8 8 10 12 12 17 17 13 16 19 21 24 22 21 21 16 14 13 14 13 14 13 12 12 12 11 13 19 26 29 31 29 27 33 33 37 39 47 44 47 51
11 12 11 9 12 13 12 12 13 19 14 16 16 17 18 22 21 22 21 21 16 13 15 13 13 14 14 10 12 10 12 14 21 28 30 28 29 25 35 36 38 42 44 41 46
9 11 11 13 12 14 12 11 18 20 18 17 16 17 19 18 19 21 23 22 21 17 14 13 15 16 13 12 12 12 13 14 18 22 26 25 27 22 26 30 32 38 44 38 41
8 9 11 14 14 12 12 12 22 23 16 20 21 21 21 20 18 20 23 22 23 20 18 16 15 14 14 14 14 14 15 17 17 18 18 20 25 18 23 25 28 31 38 35 36
9 10 13 15 15 13 13 14 25 21 24 25 26 24 22 23 21 22 22 24 25 22 20 20 19 15 14 14 13 14 14 14 15 12 13 18 17 16 18 22 26 30 35 38 39
12 11 15 15 14 14 16 15 27 36 35 32 27 30 29 28 25 24 22 24 27 25 23 22 19 16 14 15 15 16 16 12 12 14 13 11 11 12 14 18 22 28 35 34 31
19 16 20 19 19 19 21 26 34 42 40 36 34 33 36 33 31 27 28 33 31 32 29 25 25 19 18 18 18 16 14 17 15 15 15 11 13 10 11 13 20 29 31 34 30
25 25 27 26 27 30 31 34 35 39 42 43 44 41 41 41 37 34 38 37 33 34 34 30 25 22 21 19 19 19 18 16 16 13 12 11 8 8 9 10 14 23 27 34 35
32 32 35 34 36 41 43 42 38 39 46 47 47 48 46 46 42 42 45 43 38 39 38 36 30 25 23 22 20 20 19 18 17 19 13 12 10 8 8 8 9 14 24 30 33
46 46 47 46 53 56 54 48 44 46 50 56 56 56 54 50 48 50 51 49 44 42 42 38 37 33 27 23 22 23 22 21 18 16 19 14 11 8 9 8 8 9 16 26 31
60 62 59 59 65 67 64 61 54 55 59 64 74 60 56 57 52 55 55 55 47 45 44 41 39 35 29 28 29 27 23 23 20 21 17 15 12 11 10 10 9 8 11 19 27
68 76 75 68 70 78 73 68 68 66 62 62 78 86 74 60 55 52 56 58 52 50 46 46 44 41 37 36 33 30 27 25 24 21 21 15 14 14 12 10 9 8 9 15 22
77 83 83 80 81 84 84 77 78 79 74 67 73 93 88 86 67 61 58 57 61 56 51 49 47 45 40 36 34 33 29 27 25 21 20 16 16 15 13 12 10 9 9 10 15
77 85 90 89 82 88 87 86 82 80 81 81 85 90 90 90 78 73 59 53 52 60 58 51 46 45 41 39 35 32 26 26 26 24 21 18 16 14 12 11 11 10 10 9 9

GFSSW_prec_cthk_030.txt.gz
RH
27 26 25 24 23 20 18 15 12 10 8 7 8 8 8 8 8 7 6 7 8 12 22 31 42 45 53 62 68 68 65 57 52 53 48 50 46 41 49 52 53 59 58 60 63
27 26 26 25 24 23 21 20 17 14 10 8 7 7 8 8 8 7 7 6 5 7 19 31 41 40 54 60 64 64 68 57 51 44 43 49 49 40 45 51 49 52 53 56 58
25 25 24 24 24 23 22 21 20 18 16 12 9 7 7 7 8 8 7 7 5 5 14 28 39 41 48 57 61 59 67 55 49 45 42 49 50 47 44 44 46 48 47 51 55
20 20 20 20 21 22 22 22 21 20 19 17 14 10 8 7 8 8 8 8 6 6 11 23 36 38 39 55 57 59 55 53 49 43 40 44 50 51 48 43 36 37 46 48 51
18 18 17 17 17 17 18 19 21 21 20 19 17 15 12 10 7 7 8 8 7 8 10 18 32 34 36 43 54 56 53 49 47 44 42 39 48 53 54 51 46 35 40 43 48
16 16 16 16 16 16 16 17 20 23 22 21 20 18 16 13 8 7 8 8 10 11 11 16 24 34 36 40 49 49 50 48 42 38 38 36 42 46 50 54 51 49 34 36 42
13 13 13 13 13 15 15 17 19 22 24 24 22 21 20 15 9 7 11 12 13 14 13 15 20 31 30 34 33 45 41 40 37 36 39 38 41 46 50 53 55 53 50 34 36
7 9 11 12 12 12 14 15 18 21 24 25 25 23 21 17 13 9 11 17 19 17 18 21 19 28 27 25 26 32 34 33 40 34 37 36 41 44 46 50 55 53 53 46 32
6 6 6 7 8 10 12 14 16 18 22 25 26 27 22 19 16 11 13 14 19 19 20 22 23 20 26 26 25 27 29 32 38 38 38 37 39 43 46 45 50 53 53 53 38
7 7 6 6 5 6 8 12 15 18 22 27 30 29 23 18 16 14 12 13 19 18 17 17 13 13 18 20 22 25 28 30 38 37 37 38 40 42 46 46 51 50 53 54 47
8 7 7 7 6 7 6 10 16 21 19 24 29 26 25 21 20 14 11 15 20 20 14 12 12 11 9 14 17 22 24 28 33 37 34 35 38 38 43 47 49 52 48 52 51
11 10 9 7 6 7 8 11 14 16 16 13 15 21 28 25 23 18 13 15 15 18 15 14 11 10 11 11 14 17 19 22 30 36 35 35 37 37 40 45 48 52 47 51 55
10 9 8 9 9 11 13 15 16 16 17 11 13 15 20 25 24 21 16 15 14 16 13 12 12 11 12 12 12 12 17 22 24 34 33 33 30 34 35 43 46 48 44 48 47
9 8 7 7 12 12 17 14 14 17 17 10 11 14 16 22 24 24 18 17 16 15 14 13 13 12 12 11 11 11 11 18 22 26 31 31 30 32 32 38 38 40 47 47 49
8 7 6 7 9 15 14 15 15 20 13 15 14 14 15 18 21 23 24 19 16 17 15 13 13 14 13 10 11 10 10 12 18 23 29 29 27 27 31 33 33 36 41 43 45
9 8 7 10 13 14 12 13 18 22 16 17 15 16 17 19 19 22 24 22 21 19 17 16 15 15 14 14 12 12 11 12 14 18 22 22 25 22 26 29 31 36 39 41 38
11 9 10 10 12 10 10 16 19 18 17 24 23 21 20 18 21 21 24 25 26 23 19 18 16 16 14 15 14 13 16 15 15 14 14 17 21 19 23 26 29 32 36 35 39
14 12 15 15 14 11 12 19 19 22 31 31 28 24 23 23 21 21 24 26 26 25 23 22 19 15 15 14 15 14 15 13 16 11 11 14 14 15 18 21 26 28 32 35 35
18 20 22 19 16 16 20 20 21 44 44 34 28 28 27 28 26 23 23 24 26 27 26 23 21 16 16 15 15 16 14 10 13 13 13 10 10 11 15 17 21 23 29 27 32
22 23 27 24 22 24 27 37 45 46 42 36 36 38 41 37 32 27 25 30 28 31 33 28 25 21 19 16 15 16 14 15 13 17 16 9 10 11 11 13 17 22 27 29 31
30 31 32 33 33 33 33 38 35 38 41 42 45 45 48 45 40 35 38 35 35 36 37 32 27 26 22 18 17 17 18 15 14 11 12 12 10 9 9 10 14 17 22 27 34
36 34 36 43 47 41 41 39 38 44 49 45 47 46 49 53 49 48 49 46 39 38 36 35 32 31 23 22 20 18 17 16 15 17 13 13 12 10 8 8 13 16 23 30 34
44 45 44 45 50 50 48 50 49 49 54 52 60 57 58 55 57 56 55 49 42 40 43 41 33 34 31 27 24 21 19 18 17 15 17 15 12 11 10 10 11 16 21 27 28
54 52 54 56 60 61 59 61 60 58 58 59 71 76 60 53 57 62 59 52 47 43 40 41 36 33 29 28 27 25 21 20 20 18 15 16 15 14 11 11 10 10 17 23 28
68 61 68 63 65 69 68 68 66 70 64 60 75 87 86 61 67 61 66 59 53 50 43 41 40 40 38 37 32 27 24 23 21 20 18 16 16 16 15 11 11 11 14 18 25
82 68 71 69 68 67 68 72 73 71 68 70 72 80 89 84 75 89 71 66 60 56 51 45 46 44 39 36 33 31 28 26 24 22 21 18 18 18 18 15 12 12 10 11 17
93 82 77 72 68 68 65 68 66 67 70 75 71 72 78 85 74 71 67 67 58 58 55 52 45 43 40 36 36 36 30 28 26 23 22 20 20 19 19 17 14 11 10 9 10

GFSSW_prec_cthk_033.txt.gz
RH
25 24 24 23 23 22 21 20 19 15 12 9 7 7 8 8 8 7 7 7 9 13 20 26 39 53 55 58 61 56 76 66 50 55 52 48 44 50 52 51 55 57 60 62 65
21 21 21 21 21 22 21 21 20 19 17 13 9 7 7 7 8 8 7 7 6 8 20 33 40 46 54 54 59 57 87 69 53 47 60 50 47 39 47 48 51 56 57 61 63
17 17 17 17 17 17 18 20 20 19 18 18 15 10 8 7 9 7 7 7 6 5 13 32 41 45 49 53 58 61 77 67 49 44 55 50 53 44 47 50 48 49 51 55 56
16 16 16 16 17 17 16 16 17 18 19 19 18 16 11 8 10 11 7 7 6 6 10 25 38 43 41 54 57 56 62 61 52 42 44 52 56 55 52 47 48 42 45 50 54
13 13 14 14 15 15 15 15 15 18 20 21 20 19 16 14 8 8 7 8 8 7 9 20 31 39 40 53 56 54 57 55 51 44 42 44 57 66 52 44 35 33 41 46 51
9 10 12 12 13 13 13 14 15 16 19 22 22 20 19 17 12 9 9 8 8 9 9 16 23 35 40 46 54 56 56 53 48 46 40 36 51 49 56 47 43 31 35 40 46
6 6 6 8 10 12 12 12 13 15 18 21 24 24 23 19 14 10 10 10 11 10 11 14 18 32 36 37 42 53 47 50 47 41 37 34 44 48 56 52 50 44 34 33 40
7 6 6 6 5 7 9 11 12 14 16 20 24 26 25 21 18 12 11 13 15 15 14 14 19 27 35 37 33 43 47 43 37 36 34 33 41 41 49 51 55 52 46 37 32
8 7 6 6 6 6 6 7 10 13 15 18 23 29 27 22 20 18 13 16 19 20 21 21 22 26 33 34 28 28 35 39 38 35 36 34 39 46 48 51 54 56 53 50 36
8 7 7 6 5 6 6 7 9 12 19 23 26 30 25 24 20 19 16 17 24 23 23 25 24 22 28 33 25 25 26 35 39 39 36 36 35 47 48 55 54 56 52 52 47
8 7 7 7 7 7 8 11 15 24 21 19 26 23 24 24 23 19 21 20 25 26 25 24 24 23 16 26 23 26 30 31 33 35 38 38 39 38 46 51 55 54 53 47 52
8 7 7 7 8 10 14 14 17 18 15 10 9 14 20 25 27 21 21 19 24 24 21 20 21 15 13 15 20 22 27 29 31 33 39 38 38 38 40 48 52 56 54 53 48
6 6 6 6 9 12 17 15 14 17 18 9 8 8 11 20 24 26 20 20 22 28 18 13 13 12 12 12 13 14 20 25 27 32 34 37 37 38 38 42 50 54 54 54 50
7 6 5 5 10 11 14 11 14 17 18 10 10 10 10 13 19 24 21 21 23 24 23 16 15 13 12 12 11 11 12 20 26 29 31 33 35 35 35 37 49 48 54 47 47
8 7 7 9 11 16 11 9 11 18 16 14 15 14 13 11 14 18 23 21 20 21 22 17 15 14 13 10 11 11 13 13 19 27 29 29 32 30 33 33 38 46 47 48 49
11 10 9 14 15 14 11 9 13 21 16 18 18 17 15 14 14 19 21 22 25 22 20 20 16 15 13 13 12 12 13 13 14 16 23 24 26 27 27 30 35 40 43 45 45
14 13 12 14 16 13 12 14 21 18 16 32 28 25 20 19 18 21 21 21 22 22 20 19 17 15 14 15 13 13 13 15 14 14 15 18 19 20 26 26 31 35 40 42 43
17 18 22 21 19 15 17 22 26 21 41 43 38 32 27 24 21 21 24 24 21 22 22 21 20 16 15 14 15 14 11 13 16 13 12 12 16 15 20 27 27 33 36 40 43
20 26 28 20 20 18 24 33 37 52 58 50 38 33 25 26 29 26 23 23 23 20 22 24 21 19 17 16 16 17 13 10 15 14 12 11 12 12 19 22 23 29 33 38 43
29 33 33 22 22 26 36 45 52 63 55 48 45 45 50 49 36 34 27 26 28 25 28 28 31 24 20 20 17 18 14 15 14 18 17 14 14 15 14 16 19 23 28 30 35
42 40 37 24 29 37 43 48 47 39 36 46 44 52 65 72 61 46 37 38 35 33 31 30 33 30 26 19 17 16 19 16 13 12 16 19 14 12 16 15 16 22 23 27 29
52 49 41 31 40 43 48 49 48 47 46 49 50 50 63 70 70 60 62 60 38 37 36 36 38 35 23 21 21 18 17 18 15 16 12 15 16 14 14 13 15 18 22 24 28
63 59 50 42 45 47 51 51 67 63 61 55 51 69 78 78 83 81 73 61 45 44 46 43 38 38 35 29 23 21 19 18 17 15 18 16 18 17 15 11 13 16 22 26 32
77 69 58 56 51 52 54 59 66 75 66 59 63 54 56 67 71 74 81 67 55 47 46 47 40 37 32 26 24 24 21 19 18 18 17 18 17 18 17 14 14 18 21 26 31
86 79 77 65 58 51 57 64 70 76 68 64 67 72 68 61 80 95 85 69 58 53 51 47 47 40 37 36 33 28 24 21 19 19 18 20 21 23 20 16 15 17 22 25 27
96 91 87 79 70 61 60 73 72 65 61 61 64 73 76 69 66 79 87 79 72 63 54 48 45 46 42 41 42 35 29 24 22 21 20 20 22 24 24 18 16 16 18 21 22
97 97 97 88 81 74 65 61 58 59 60 68 70 65 67 76 71 64 77 74 69 64 58 54 47 51 48 45 45 40 30 29 28 26 22 22 23 27 27 24 20 17 16 15 18

GFSSW_prec_cthk_036.txt.gz
RH
18 17 17 17 17 17 18 18 19 18 17 16 12 8 7 7 8 7 6 7 10 13 20 28 31 43 55 62 68 72 85 78 71 58 57 47 51 52 59 51 60 63 62 66 70
16 16 15 16 16 16 16 15 16 17 17 16 16 13 9 7 7 7 7 7 7 11 16 27 31 45 49 56 62 69 86 75 64 71 62 57 50 41 48 51 56 55 61 62 67
14 14 14 15 15 15 15 15 15 14 15 18 17 16 14 9 7 6 7 7 6 6 12 26 30 41 48 51 57 64 66 57 52 60 57 57 46 50 47 49 51 50 55 58 64
10 11 12 12 13 14 14 14 14 14 15 17 19 18 17 13 12 13 7 7 6 6 8 21 33 39 44 49 53 60 67 58 50 46 47 66 57 47 51 58 45 45 49 51 57
8 8 9 10 11 12 12 13 13 14 14 16 18 19 19 18 11 10 7 7 7 7 6 14 30 35 37 47 53 57 63 63 61 49 46 53 60 61 53 55 42 41 44 47 52
6 6 6 6 7 9 11 11 12 13 14 16 19 21 21 19 14 13 10 7 7 8 7 9 22 34 41 41 51 56 59 63 59 53 44 38 56 50 54 37 34 33 38 43 49
8 7 7 6 6 5 5 8 11 12 12 14 18 22 24 20 17 12 13 10 9 8 8 8 17 29 40 44 48 53 55 53 55 49 46 37 46 52 66 55 41 36 34 37 44
7 7 6 6 6 5 5 6 5 10 13 13 16 20 23 24 19 16 12 12 10 10 10 10 15 24 35 42 46 44 50 49 49 51 43 34 36 48 49 52 45 48 44 36 39
6 6 6 6 5 5 6 7 8 9 10 12 18 23 23 23 23 21 16 13 13 14 12 14 15 18 29 40 41 40 41 42 49 45 38 33 37 45 56 65 50 48 49 47 39
5 5 6 6 6 7 8 8 10 11 17 14 17 25 20 22 23 23 21 16 17 18 18 18 17 16 23 32 35 36 31 38 45 39 37 36 34 41 44 53 59 50 50 49 47
6 6 6 6 7 9 12 13 11 19 16 22 24 15 20 24 23 23 23 20 21 25 24 23 23 17 16 26 29 33 27 27 38 36 37 33 35 44 45 60 64 55 47 50 50
6 5 5 5 7 9 14 13 12 13 13 11 11 14 14 18 23 23 23 21 22 26 27 28 21 18 22 24 26 32 29 30 28 34 37 38 32 37 38 39 58 65 52 51 53
7 6 6 5 7 10 13 10 10 13 14 10 8 8 8 13 16 22 22 23 23 28 27 23 19 23 24 23 21 32 31 28 28 29 37 40 38 36 39 43 45 51 61 51 54
9 8 7 6 9 11 12 8 9 11 14 8 9 9 9 9 10 15 20 26 28 27 28 25 25 21 23 22 19 21 22 25 31 27 30 38 36 37 37 36 43 46 57 52 51
12 11 9 11 10 15 11 9 9 12 19 15 15 15 13 10 11 11 18 23 27 24 31 24 19 18 20 16 13 14 17 21 26 28 27 27 31 30 34 34 39 49 49 51 52
16 14 12 15 18 16 14 11 14 22 17 29 28 25 20 15 13 16 17 18 24 27 30 29 25 18 16 14 12 13 14 15 14 25 27 27 29 30 30 33 33 36 45 51 56
18 16 18 18 19 17 18 18 20 24 19 35 38 33 28 25 19 18 23 22 17 28 27 29 29 24 16 18 15 15 14 17 18 16 18 22 27 24 27 31 33 34 39 51 51
18 20 27 26 25 21 22 23 29 21 39 43 41 39 32 31 30 23 28 28 20 21 27 25 23 21 18 17 15 15 14 14 18 16 15 14 17 15 21 25 28 31 37 43 47
21 30 37 37 29 26 29 31 38 34 33 41 41 48 52 51 42 39 26 28 26 18 24 26 22 22 21 17 17 18 14 12 13 16 15 14 14 13 17 21 26 26 29 36 40
27 40 48 47 34 35 39 36 38 39 33 37 43 47 57 55 51 56 43 32 33 23 23 25 29 23 20 20 17 17 17 16 15 20 20 16 15 15 14 16 20 26 27 32 36
34 48 54 56 43 47 48 37 38 38 37 37 39 42 50 74 70 70 62 55 44 42 33 26 29 27 26 22 19 18 22 20 15 13 18 20 14 14 15 15 18 22 23 30 34
56 66 60 54 53 51 47 47 45 45 51 53 51 43 60 75 79 88 87 84 63 50 45 34 27 31 34 26 23 20 19 20 18 18 16 18 17 15 15 15 17 16 20 30 35
63 65 65 59 60 56 55 50 42 51 63 63 55 48 60 70 79 89 93 89 69 54 56 52 34 35 39 34 28 23 20 19 21 16 18 18 17 19 16 19 20 14 22 26 31
68 65 66 62 67 66 61 50 43 51 74 68 60 59 51 69 71 92 89 86 76 65 52 49 42 40 37 31 31 27 25 23 21 20 18 18 21 22 20 18 17 15 19 23 26
69 76 74 70 74 74 64 60 64 68 72 69 56 65 63 67 76 83 89 80 83 70 55 53 48 44 42 37 32 25 23 24 19 21 20 20 20 24 22 19 18 20 22 26 29
79 87 79 80 78 77 76 67 70 58 53 55 55 64 70 63 70 77 80 81 89 73 64 54 51 52 49 45 45 39 28 24 24 21 24 21 21 24 26 19 20 19 24 27 30
83 89 89 83 78 81 82 77 57 56 62 61 61 55 51 64 71 68 68 67 74 72 68 64 61 57 49 49 46 44 37 29 26 24 24 23 23 25 26 27 23 19 22 26 27

GFSSW_prec_cthk_039.txt.gz
RH
14 14 14 13 13 13 14 14 13 13 14 15 15 15 11 7 6 6 6 7 9 12 20 27 27 42 58 68 71 81 93 92 87 75 71 65 57 58 64 55 62 63 64 66 64
12 13 13 14 14 13 13 13 13 13 12 13 15 16 15 12 7 5 5 7 7 11 15 23 28 36 58 60 71 85 90 78 79 72 69 70 62 55 49 52 59 58 63 63 61
10 10 10 11 12 13 13 13 13 13 12 12 14 16 16 15 11 5 5 6 6 7 12 17 26 34 47 55 61 72 76 64 72 69 70 65 67 58 49 49 44 48 53 59 60
6 7 7 8 9 10 11 12 12 12 13 12 13 15 17 17 14 12 8 6 6 6 9 15 27 34 43 53 59 66 67 67 58 60 68 63 70 64 49 50 40 41 46 51 55
7 7 7 6 6 6 7 8 10 12 12 13 13 15 16 18 15 12 9 7 7 6 5 11 24 31 39 48 57 58 65 65 59 58 54 50 61 62 62 58 48 39 44 47 52
6 5 6 6 6 6 6 6 6 8 11 13 13 15 17 20 17 14 11 8 7 7 6 6 17 28 37 43 51 53 58 67 65 58 59 49 50 60 59 51 35 33 37 42 47
5 5 5 5 5 5 6 6 7 8 8 11 13 14 18 18 18 16 14 12 8 7 7 5 10 26 34 38 45 53 59 64 63 58 59 59 48 56 59 61 48 35 36 39 40
5 5 5 4 5 6 7 8 8 8 8 9 9 14 16 15 19 18 17 15 11 9 7 8 7 19 31 35 40 51 53 59 54 59 52 57 52 53 53 52 55 47 41 36 37
6 6 5 5 5 6 8 8 7 7 10 12 12 15 16 17 19 21 19 16 14 12 10 9 11 15 25 35 39 46 49 47 50 52 50 47 41 51 61 60 70 59 49 46 35
7 6 5 5 5 7 9 8 7 13 12 15 19 18 9 12 21 22 21 19 15 14 14 12 14 15 20 29 33 43 43 43 44 48 46 45 35 52 65 56 56 75 63 51 48
8 7 6 5 5 8 9 8 7 11 10 10 10 17 14 17 18 23 25 25 20 18 18 15 18 15 13 20 26 38 42 39 36 44 49 37 34 52 59 64 62 68 70 59 54
9 8 7 6 6 7 11 10 8 9 9 8 8 7 11 18 17 17 24 26 22 21 20 22 19 14 14 16 22 31 36 37 30 38 44 39 37 39 53 52 51 51 70 72 59
12 10 9 8 7 8 11 9 7 9 10 8 8 8 8 12 16 15 18 26 24 25 24 23 17 17 20 16 20 25 30 32 30 33 37 40 38 39 49 51 59 59 58 67 61
13 12 11 9 8 9 11 8 8 11 15 16 14 13 14 10 12 17 16 19 27 26 29 26 24 26 22 21 19 25 24 27 29 36 36 37 47 41 45 48 54 57 52 54 64
13 11 10 11 12 14 12 11 13 16 22 28 26 25 19 13 10 10 19 17 21 27 32 27 26 27 28 20 23 25 21 24 28 38 36 38 39 38 36 46 48 52 53 51 59
14 13 10 14 18 18 16 17 17 22 23 24 31 29 25 22 18 16 18 22 19 26 31 32 35 30 26 24 26 27 28 27 27 35 37 33 38 39 35 33 39 43 43 50 49
14 14 15 19 18 20 20 22 27 24 16 18 30 31 37 34 32 30 24 27 24 26 34 36 33 36 26 27 25 25 23 23 22 30 28 28 31 29 33 33 31 33 42 47 47
15 17 24 31 32 28 27 32 39 29 27 20 19 28 38 43 41 37 35 27 30 24 30 36 33 32 33 22 23 19 15 19 23 20 21 21 20 21 26 30 33 33 37 42 46
17 29 31 35 37 39 38 45 46 38 33 26 18 16 28 46 51 48 46 41 32 32 26 33 30 33 35 26 21 20 17 15 17 17 19 16 14 16 19 24 26 29 37 40 45
26 37 32 34 36 34 42 50 55 50 41 32 29 22 20 40 55 63 63 54 60 55 51 25 36 32 32 38 24 20 21 19 17 22 23 16 15 11 11 11 22 25 30 34 37
36 45 39 42 40 41 47 57 56 53 45 42 36 35 29 44 61 68 72 71 78 70 61 47 33 25 34 31 26 21 24 20 18 19 24 25 20 16 15 14 14 21 27 34 37
46 53 45 46 42 47 48 57 54 52 51 43 39 44 40 48 61 66 74 85 88 87 71 59 45 32 29 26 25 26 20 21 20 19 16 18 20 19 18 15 14 17 21 27 34
50 59 52 49 50 51 54 56 56 50 47 45 50 52 49 64 68 78 85 82 86 89 79 72 51 44 34 33 31 28 23 20 22 22 18 22 22 19 19 15 15 16 20 21 30
59 58 60 53 62 62 59 57 50 57 54 57 58 65 59 53 62 79 82 88 84 87 88 77 55 51 43 30 30 32 27 23 23 23 18 20 20 23 21 18 17 17 17 18 23
62 70 73 69 68 70 69 64 64 56 58 53 53 65 60 60 65 72 80 80 79 84 85 73 54 48 43 36 35 37 29 27 24 22 21 17 22 24 22 21 22 20 20 21 24
67 77 80 84 82 74 77 77 78 68 59 53 54 55 61 66 86 77 73 72 80 83 88 71 66 57 47 40 43 46 37 28 25 22 21 18 19 24 22 23 22 22 21 25 26
73 84 89 93 91 85 84 87 86 82 77 62 55 52 47 59 66 69 64 63 68 76 84 75 67 59 51 47 49 49 44 35 29 25 21 21 21 28 28 26 23 23 22 22 26

GFSSW_prec_cthk_042.txt.gz
RH
11 11 11 12 12 12 11 11 11 11 12 12 12 14 14 14 10 6 5 7 10 12 17 22 30 37 53 61 73 74 77 82 78 81 80 75 78 77 69 62 66 66 62 63 59
8 8 8 8 9 10 11 12 11 11 11 11 11 12 14 14 13 9 5 6 8 10 14 20 28 41 58 58 71 75 82 79 70 75 79 81 73 58 59 59 65 62 56 61 59
7 6 6 7 7 7 8 9 10 11 11 11 11 11 13 15 15 10 6 5 6 7 12 17 22 34 48 58 67 76 75 69 68 71 68 69 74 61 52 52 50 49 55 57 58
6 6 6 6 6 6 6 7 7 10 12 11 11 11 13 14 17 11 9 6 6 7 9 15 25 30 40 52 57 69 67 68 65 66 68 65 64 72 54 52 39 42 47 53 55
5 5 5 5 5 5 6 7 7 8 8 11 12 12 14 14 16 15 13 9 6 7 6 10 21 28 37 41 55 60 61 63 65 61 59 62 57 59 62 58 45 45 46 51 51
5 5 5 4 4 5 6 7 8 8 8 8 9 13 14 18 16 16 16 11 8 7 7 7 14 27 38 39 49 56 62 65 66 61 54 53 56 54 63 59 39 37 40 46 48
6 5 5 5 4 4 6 6 6 6 7 7 8 10 15 13 14 18 18 15 10 8 7 7 8 23 32 41 45 54 62 61 61 59 62 58 57 63 58 62 52 50 40 43 45
7 6 6 5 5 5 6 7 5 8 9 10 11 11 9 10 13 16 21 20 16 12 8 8 7 17 29 36 41 50 55 58 53 63 62 64 58 61 61 59 57 56 44 40 39
8 7 7 6 5 6 7 7 6 8 10 7 13 15 10 7 13 15 19 23 19 14 11 10 9 13 26 33 39 48 47 50 58 61 63 68 66 63 64 59 61 56 45 40 38
10 9 8 7 6 6 7 7 4 5 9 7 16 16 8 10 14 18 21 23 24 18 17 14 12 12 19 30 32 41 46 45 50 52 54 66 67 62 57 55 58 59 53 48 47
9 10 9 8 7 7 7 6 6 7 5 9 8 9 10 14 15 17 22 25 27 23 19 17 16 15 13 20 26 34 43 45 43 44 56 52 61 65 56 53 57 59 57 53 45
9 9 8 8 8 8 9 9 8 9 7 11 11 9 8 12 15 18 21 21 24 25 24 22 18 12 14 17 22 31 36 41 43 43 44 50 63 64 55 45 48 52 59 55 47
10 10 8 7 7 8 10 9 8 10 10 14 14 15 12 12 11 19 22 22 24 26 27 25 18 16 15 16 19 25 32 35 38 39 40 47 56 65 57 56 56 53 54 51 51
9 9 9 7 8 9 10 10 12 12 16 17 18 19 17 15 11 19 24 26 26 26 30 29 24 23 19 16 15 20 21 31 32 43 45 43 47 64 61 59 57 54 52 49 51
7 9 10 9 12 13 11 12 13 14 15 16 15 21 23 20 19 14 24 27 26 26 27 26 28 29 26 16 17 14 19 30 27 41 47 44 47 52 58 62 52 52 51 52 52
8 10 12 19 17 15 14 15 16 22 25 19 17 16 24 26 24 21 23 25 27 28 26 29 33 34 28 26 23 20 19 28 29 40 49 42 44 40 60 53 50 51 49 47 47
9 12 21 23 20 20 19 19 22 26 23 23 19 18 23 30 30 27 29 32 44 36 26 31 34 39 42 38 36 31 31 36 39 43 42 33 42 31 41 46 44 44 46 43 41
9 19 26 27 25 22 24 27 31 27 25 28 26 23 19 33 38 33 37 42 49 50 42 27 33 33 39 43 38 34 34 39 42 35 31 25 32 28 30 36 39 43 39 40 42
12 25 30 36 31 26 30 38 37 34 31 30 33 31 28 23 39 41 44 54 63 70 72 55 25 33 37 38 39 34 33 28 29 22 23 23 22 24 24 27 28 33 48 44 43
12 29 37 40 34 30 38 43 43 40 36 38 46 43 39 33 28 41 45 59 72 78 72 66 51 30 36 44 40 29 29 30 29 26 23 19 19 21 21 21 22 27 32 32 41
14 36 43 43 39 36 46 44 42 42 40 47 57 56 47 41 30 33 47 55 70 79 76 73 61 33 43 42 36 36 30 27 24 24 24 21 15 12 16 19 21 24 29 29 34
19 47 48 43 43 46 53 52 49 48 45 47 48 50 47 45 40 37 43 59 64 80 87 78 75 64 41 32 37 41 34 30 26 22 21 19 15 16 16 15 15 16 26 29 26
28 52 53 47 61 65 61 62 61 58 51 48 43 42 41 46 50 49 45 48 60 76 91 93 87 71 40 39 40 42 37 29 24 23 21 17 15 16 19 19 19 17 15 24 25
37 60 62 61 69 75 75 68 65 61 56 52 46 44 43 49 51 51 47 47 65 82 89 96 87 77 65 51 50 38 35 33 27 26 21 16 16 19 20 19 18 15 14 19 26
45 67 77 80 80 84 82 76 73 72 70 66 57 53 57 54 60 53 49 58 70 84 89 96 88 70 54 48 48 42 39 33 30 23 21 17 19 20 20 22 18 16 15 21 27
54 75 85 88 90 92 84 82 88 86 85 79 83 75 68 58 56 54 67 70 78 87 92 94 93 70 49 46 45 41 37 35 30 25 21 19 20 20 23 27 20 19 19 22 22
70 81 91 91 95 97 91 92 90 89 92 92 88 84 69 60 54 50 60 63 76 78 88 93 90 75 60 54 50 47 45 41 31 27 23 22 21 22 30 34 30 24 22 24 23

GFSSW_prec_cthk_045.txt.gz
RH
8 8 8 8 8 9 9 10 10 10 11 11 11 11 12 14 14 11 7 7 9 12 16 21 26 33 49 60 77 78 80 80 80 83 82 80 81 77 77 72 74 70 66 65 65
7 7 7 7 7 7 7 8 9 11 12 11 11 11 11 13 14 12 9 7 7 9 12 18 27 37 51 59 72 77 82 76 76 80 76 78 70 72 67 68 69 63 59 63 63
6 6 6 6 6 6 6 8 9 9 11 12 11 11 11 13 14 14 10 6 6 8 10 14 23 33 49 60 67 74 76 73 74 76 74 70 62 58 57 58 59 54 57 58 63
6 5 5 5 5 5 5 7 8 9 8 9 11 11 12 13 17 15 12 7 6 7 9 14 26 34 40 55 60 75 72 73 73 72 69 69 64 64 60 52 49 49 45 51 58
6 6 5 5 4 4 5 6 6 6 7 7 7 10 13 14 13 15 16 10 6 7 7 10 18 31 33 46 53 69 70 70 70 73 70 65 63 66 58 48 45 44 45 48 54
7 6 6 5 5 5 5 6 5 5 7 6 7 8 10 16 14 17 17 15 10 7 8 9 12 22 32 38 52 64 67 64 61 63 62 62 57 58 65 56 55 41 39 44 46
10 8 7 6 5 5 6 6 5 4 6 5 6 10 10 8 13 19 21 19 14 10 8 8 8 15 28 33 48 57 60 60 57 61 58 59 57 56 61 65 57 51 39 42 45
9 9 8 7 6 5 5 6 5 4 8 7 6 11 9 6 8 14 19 24 19 15 11 10 9 12 25 31 40 47 56 58 54 55 54 53 58 64 63 65 58 53 43 37 40
8 8 8 8 7 6 6 6 5 5 8 7 10 12 10 10 11 13 17 24 24 20 15 13 11 11 19 32 37 41 49 51 54 52 62 56 62 64 61 63 60 56 49 41 37
8 7 7 7 6 6 7 6 5 5 7 9 12 12 8 12 13 14 15 24 27 26 20 16 13 13 15 28 37 36 44 43 46 51 61 61 59 63 61 62 62 58 57 52 46
8 8 7 7 7 6 7 6 7 6 7 9 11 12 9 9 12 18 17 21 31 27 24 19 17 14 9 15 25 33 40 43 39 56 64 61 60 64 56 63 63 59 60 58 51
8 7 7 7 7 7 8 8 11 11 8 9 11 14 12 10 11 18 22 24 28 29 27 27 21 14 12 13 21 29 33 39 37 50 52 54 46 61 59 53 52 52 55 58 56
7 7 7 8 8 10 10 11 11 12 11 10 13 13 13 13 12 20 21 27 27 30 31 29 24 20 18 14 18 24 30 35 35 51 49 55 54 55 58 62 63 57 62 63 56
7 7 7 8 10 12 12 11 12 13 15 15 16 16 15 16 16 17 23 26 28 27 31 32 27 30 20 18 16 21 21 30 38 53 51 50 59 62 69 55 60 59 60 61 62
8 6 7 13 14 16 11 13 13 13 16 15 15 15 14 15 19 20 23 31 31 30 28 26 29 29 30 18 17 17 17 27 35 42 53 48 52 64 58 57 59 54 55 58 59
7 9 15 17 17 18 15 13 14 18 21 19 18 17 17 18 20 22 23 30 35 37 28 28 30 34 29 29 21 19 19 23 38 45 49 43 49 47 53 42 54 52 51 53 54
6 14 17 18 21 21 19 16 19 22 21 23 23 20 21 23 24 25 30 40 50 49 45 34 28 32 39 37 34 23 24 30 42 54 42 33 45 36 37 35 41 47 44 42 50
7 17 20 23 23 24 22 20 25 26 28 27 27 25 23 30 29 32 31 48 53 55 62 65 36 32 35 42 38 37 30 37 41 51 43 30 38 32 29 32 36 41 43 44 45
8 17 24 27 27 27 24 30 32 34 33 33 31 32 30 28 34 33 40 55 62 60 68 70 49 35 39 37 44 42 36 31 30 29 37 27 30 25 27 31 38 38 41 46 50
9 19 28 32 33 33 31 36 39 37 37 37 39 37 37 34 36 43 41 51 65 67 66 71 66 43 35 44 48 45 43 40 36 37 31 25 26 25 26 26 30 35 32 35 42
12 24 33 35 39 37 40 43 43 45 44 44 43 41 37 37 45 53 43 50 56 66 70 70 70 52 44 43 40 44 46 43 39 35 33 25 19 17 18 24 28 31 27 28 35
15 29 37 39 43 49 52 55 54 52 52 51 48 44 40 38 46 55 55 47 50 59 70 79 81 75 53 42 47 53 46 46 43 38 33 29 20 12 14 18 27 27 27 24 29
21 32 45 50 62 66 67 69 65 63 61 59 55 48 42 44 51 57 56 50 48 57 69 79 88 72 48 44 48 55 48 42 39 38 34 33 18 14 12 13 21 26 26 24 24
30 41 57 64 71 77 83 80 77 75 70 70 61 55 51 51 50 51 53 56 50 45 68 73 85 75 68 70 69 60 54 47 44 38 30 22 15 16 14 15 19 21 22 20 20
42 56 75 81 82 89 92 87 84 86 81 78 70 73 74 67 56 54 50 50 55 55 53 76 81 79 67 69 66 59 55 47 47 35 29 20 19 18 19 21 23 23 19 17 16
61 75 80 87 91 96 93 91 92 91 90 89 87 86 85 78 68 62 55 53 55 58 54 75 85 80 66 58 60 61 56 50 43 38 33 23 21 21 26 26 27 27 21 17 17
78 81 87 90 95 97 98 98 96 98 94 96 97 97 95 82 71 61 55 49 49 55 58 75 89 86 70 58 61 64 63 57 49 49 38 26 21 26 30 30 32 31 27 18 15

GFSSW_prec_cthk_051.txt.gz
RH
7 6 6 6 6 5 6 7 8 9 9 10 11 11 11 11 11 11 11 10 8 10 13 21 32 37 50 64 76 81 82 79 80 81 81 79 80 81 81 79 74 73 71 71 71
8 7 6 6 5 5 5 6 6 7 7 8 10 11 12 12 11 11 11 10 7 8 9 13 29 38 48 62 73 81 80 75 78 79 79 79 80 80 80 75 73 71 68 70 67
9 8 7 6 6 5 5 5 5 5 6 6 7 8 10 12 13 17 16 16 8 8 10 15 23 31 44 55 67 74 76 76 79 79 76 77 75 75 76 70 66 63 65 66 64
8 8 8 7 7 6 5 5 5 5 4 5 6 6 7 10 15 19 16 15 13 7 11 16 20 31 39 48 58 70 76 80 79 76 70 73 72 69 66 60 54 57 60 61 63
7 7 7 7 7 7 6 5 4 4 4 5 6 6 7 8 9 17 18 17 14 8 13 14 18 24 33 40 53 64 77 81 78 75 69 64 61 60 58 55 52 51 57 59 63
7 7 7 6 6 6 5 5 5 5 5 6 6 7 7 8 8 11 17 19 15 11 14 14 17 18 25 42 46 57 75 76 77 74 74 68 58 50 52 53 55 50 53 56 56
8 7 6 6 6 6 5 5 5 5 5 5 7 9 7 8 10 11 16 21 19 18 15 16 16 18 18 29 39 53 64 70 70 71 72 67 55 49 52 51 50 48 51 53 53
8 7 7 7 6 6 5 5 5 5 5 6 8 9 11 10 9 11 13 20 22 20 18 17 17 20 17 22 30 40 46 62 66 69 69 64 56 51 50 49 48 47 48 48 48
8 7 7 8 7 6 6 6 6 6 6 8 8 9 10 9 8 11 14 18 21 24 19 18 18 19 16 21 29 38 37 55 64 63 63 62 58 54 52 52 50 43 42 47 45
9 8 7 7 7 7 6 7 7 7 8 9 9 10 10 11 10 10 13 18 23 24 22 20 21 18 15 18 20 34 35 51 61 57 58 60 58 58 55 56 57 50 39 41 43
11 9 8 9 9 9 8 8 9 10 9 10 10 11 11 11 11 13 15 19 23 22 21 21 21 20 15 14 17 32 37 46 59 57 60 58 58 59 58 58 59 58 49 45 40
13 11 10 11 12 11 11 11 13 13 10 11 11 11 12 12 12 12 16 21 22 23 22 21 20 21 20 16 15 21 33 41 54 56 57 60 56 57 58 58 60 61 59 47 48
15 12 12 12 12 14 12 13 12 11 10 11 11 11 12 12 13 13 14 21 24 25 24 22 21 22 24 20 15 13 23 36 48 53 52 55 57 61 57 59 60 61 64 61 50
15 12 12 13 14 16 16 14 12 12 10 13 12 12 12 13 14 14 16 18 19 28 28 29 25 25 26 25 20 16 12 26 42 49 53 53 51 51 56 55 56 59 58 61 61
16 12 14 15 17 17 18 16 12 11 10 13 13 14 13 13 14 13 15 19 20 23 31 29 27 29 27 28 26 19 16 11 30 46 50 47 51 42 54 58 52 51 53 58 62
16 12 14 16 18 17 17 16 13 13 13 15 15 15 15 15 16 16 17 19 21 24 27 28 31 30 30 30 33 27 24 18 14 30 49 40 45 36 48 55 50 49 51 57 59
15 13 14 17 19 20 18 17 16 14 16 18 18 18 19 19 19 20 23 23 25 24 26 27 25 30 35 32 35 35 31 33 29 23 27 31 42 35 34 48 47 46 49 51 55
18 11 15 18 22 23 21 20 18 19 20 20 21 22 23 23 25 24 26 29 28 30 32 30 22 28 34 36 37 37 36 30 34 21 15 24 36 32 32 28 40 45 44 51 53
13 14 17 20 24 27 26 26 24 24 24 25 26 26 27 28 28 27 30 34 37 31 33 36 32 30 33 42 41 39 43 33 31 28 21 16 24 26 26 29 36 42 45 49 49
13 16 20 21 24 28 31 32 29 30 31 32 32 33 34 34 34 34 31 40 41 34 32 40 38 30 34 40 43 39 42 51 43 33 29 22 20 18 21 24 30 38 43 44 45
18 22 24 26 26 31 37 39 41 42 43 41 41 42 43 43 43 42 37 41 41 37 34 35 36 29 34 38 40 45 49 52 46 37 27 28 22 16 14 18 26 38 41 42 44
26 28 34 36 39 49 52 56 55 53 54 54 56 57 56 55 51 50 43 39 40 35 35 40 41 39 32 36 44 55 52 47 57 48 39 35 23 16 14 13 18 27 35 40 43
35 41 47 51 58 64 69 67 67 66 67 66 66 62 60 61 63 59 54 50 44 38 39 42 48 40 20 33 44 53 60 52 50 55 48 39 28 20 17 17 18 21 30 36 41
48 53 59 62 68 69 72 72 71 72 73 75 75 75 72 72 72 68 65 57 52 47 48 45 43 37 37 50 64 63 62 61 54 56 50 46 36 23 17 18 17 18 26 29 35
61 67 69 67 66 70 70 72 73 73 76 80 84 87 86 84 79 77 72 68 64 60 57 47 43 42 34 44 56 55 59 59 60 55 55 48 43 33 26 21 19 17 21 31 35
70 71 68 67 71 71 71 74 77 81 86 90 95 95 97 96 83 79 80 74 72 70 64 56 44 43 39 37 52 57 56 56 54 54 56 53 48 35 34 27 24 25 26 28 37
69 67 67 68 70 73 76 78 83 89 89 88 93 94 94 96 96 88 87 84 80 81 76 63 53 48 40 48 72 67 57 56 54 56 54 52 47 44 38 40 33 30 28 29 32

GFSSW_prec_cthk_054.txt.gz
RH
9 8 7 7 6 5 5 5 6 7 7 8 10 11 11 11 11 10 11 10 8 10 16 30 38 43 51 62 70 78 72 72 75 80 80 80 81 82 83 81 79 77 75 74 76
7 7 7 7 6 5 5 5 5 5 5 6 7 8 11 11 11 11 11 11 8 8 20 25 31 38 47 59 70 77 78 72 72 75 80 79 80 82 81 78 76 75 73 73 73
6 6 6 6 6 6 5 5 4 5 5 5 5 6 8 10 14 18 15 15 10 7 19 24 31 35 43 55 66 70 73 73 76 77 79 81 81 81 78 76 72 71 69 72 69
6 6 6 6 5 5 5 5 5 4 4 4 5 6 7 7 16 19 17 16 15 8 17 23 27 29 40 49 58 64 70 77 78 76 76 75 75 73 76 75 65 66 65 66 67
7 7 6 6 6 5 5 5 5 5 5 4 5 6 5 10 9 15 18 16 16 14 17 18 22 26 31 41 51 61 72 77 80 73 72 73 71 71 70 64 56 59 61 63 66
8 7 6 6 6 5 5 5 4 5 5 5 6 7 8 8 9 10 16 20 19 19 19 18 19 22 26 37 40 52 64 76 78 73 65 62 62 62 64 55 53 55 59 61 63
8 7 7 6 6 6 5 5 5 5 5 6 7 7 10 10 11 12 15 20 25 21 21 18 20 21 19 30 37 43 59 67 70 71 65 65 56 50 52 51 51 53 56 60 60
10 9 8 7 7 7 6 6 6 5 6 7 9 10 12 9 9 13 17 19 28 25 24 23 19 20 17 23 26 31 47 65 66 69 69 69 62 50 50 50 49 51 55 57 58
11 10 9 8 8 7 7 6 6 7 7 8 10 12 10 9 8 10 14 22 26 23 25 25 22 21 20 14 20 25 32 47 60 65 68 68 64 58 50 48 47 46 51 54 56
14 12 10 10 9 9 8 8 8 7 8 9 9 11 10 11 11 10 12 21 24 25 21 19 21 20 17 13 13 22 29 33 47 62 65 65 63 58 49 47 45 43 45 48 51
17 14 13 13 12 11 10 11 13 12 10 10 9 9 10 11 10 13 17 18 22 27 21 19 21 18 16 15 13 19 28 34 51 63 63 64 63 60 53 48 45 40 37 44 46
20 16 15 15 14 14 14 14 13 14 13 11 11 10 10 11 12 12 17 20 18 24 23 21 18 19 20 18 16 16 27 36 45 59 61 61 61 61 56 52 52 52 44 37 43
24 19 17 16 16 18 17 16 13 13 13 12 11 10 11 11 12 12 15 20 23 20 21 20 19 19 19 23 20 13 15 30 42 50 55 59 61 60 60 59 56 53 53 52 43
27 21 17 17 18 17 19 16 13 12 13 15 12 11 11 12 13 13 13 16 18 25 24 20 20 22 20 21 22 17 10 16 36 44 50 53 59 54 56 59 59 58 54 53 54
31 20 16 16 17 20 18 16 14 13 11 15 13 12 12 13 13 13 13 16 17 19 25 25 22 23 22 23 23 22 16 13 18 39 49 50 54 57 52 56 57 57 55 53 55
27 20 13 16 19 21 19 17 14 14 13 13 13 13 13 13 13 13 15 14 16 17 19 20 28 25 27 24 27 27 25 17 13 19 40 42 47 42 54 54 52 54 55 53 54
21 17 15 17 21 21 20 18 16 14 14 14 15 16 16 16 15 16 17 18 17 18 17 19 18 22 29 31 30 28 30 28 22 16 14 26 41 39 46 50 47 49 52 52 56
20 18 18 17 21 23 22 20 21 19 17 16 17 17 18 18 19 18 19 21 22 20 18 23 18 17 23 30 32 29 31 29 28 18 12 10 23 31 38 37 46 51 54 55 56
20 19 21 20 21 23 26 25 24 21 20 20 20 20 22 22 22 22 23 25 28 25 23 25 21 25 25 27 33 37 35 27 31 26 22 14 11 16 30 31 38 45 51 54 52
22 23 24 22 22 25 27 28 26 25 25 25 26 26 27 29 29 29 27 34 33 29 27 33 26 25 29 27 25 38 35 40 39 37 29 25 19 15 24 25 29 44 47 48 51
27 31 29 30 30 32 35 35 36 37 38 37 38 37 37 37 37 37 35 38 38 33 30 33 29 26 28 26 22 28 38 49 42 36 31 30 24 18 19 18 22 31 42 43 47
33 34 41 40 41 43 46 50 49 48 50 50 50 51 51 52 52 49 48 46 46 39 35 36 31 31 27 35 34 38 47 39 51 46 35 36 30 28 22 17 19 23 30 40 42
45 46 50 50 52 51 53 53 54 55 58 59 59 58 59 60 62 60 60 59 55 43 41 46 32 34 23 20 28 33 37 45 53 50 46 43 37 34 26 22 17 20 26 32 40
53 53 53 52 53 53 54 55 55 56 58 61 60 62 65 65 66 69 66 71 62 53 49 41 34 37 27 39 40 48 47 48 50 55 45 49 48 41 33 25 22 21 22 28 38
54 54 53 53 54 55 55 57 58 60 62 65 67 71 72 73 71 69 72 74 73 67 62 52 45 41 37 29 36 40 38 39 43 53 49 46 53 51 34 25 24 24 27 27 34
54 56 54 52 54 54 54 56 58 66 68 69 72 75 81 87 81 82 75 76 74 74 76 67 54 41 36 28 21 26 36 37 40 45 47 48 49 51 45 38 34 28 32 35 37
53 53 55 57 57 61 63 66 66 64 65 66 66 71 78 80 81 85 88 84 80 74 79 78 67 56 47 32 33 34 26 38 35 38 44 46 46 56 46 44 41 33 28 29 35

GFSSW_prec_cthk_057.txt.gz
RH
6 6 6 6 6 6 6 5 5 5 6 6 7 9 11 11 10 10 13 11 9 10 15 23 33 43 53 57 61 78 76 81 85 77 80 76 78 82 81 75 77 75 77 76 78
5 5 5 5 5 5 5 5 5 5 4 5 5 7 9 10 11 14 14 12 8 8 19 25 33 41 48 60 62 76 73 88 70 78 76 75 75 78 78 75 77 75 76 75 75
6 5 5 5 5 4 4 5 5 4 4 4 4 5 7 8 15 20 14 13 10 6 22 30 35 40 43 52 62 66 68 70 70 72 72 77 81 88 79 74 72 71 74 73 73
6 6 6 5 5 5 4 4 4 4 4 4 4 5 6 7 18 20 17 14 14 7 25 31 31 33 42 48 58 62 67 69 75 74 74 77 84 78 75 78 71 68 70 71 70
7 7 6 6 5 5 5 5 4 4 4 4 4 6 5 9 10 13 16 17 16 12 21 27 26 29 34 43 50 56 66 71 74 77 74 72 66 90 73 78 65 64 66 66 67
8 8 7 6 6 6 5 5 5 5 5 4 6 6 8 12 10 12 17 17 19 16 20 23 23 25 30 35 40 46 55 72 71 70 73 69 69 67 73 62 59 58 61 62 64
9 9 8 7 6 6 6 5 5 5 5 6 6 7 13 14 10 14 15 19 19 22 25 23 25 25 22 30 34 39 49 59 75 66 67 62 69 63 76 59 55 52 58 63 62
13 11 10 9 8 7 7 7 6 6 6 8 8 13 15 8 8 12 16 18 21 23 28 24 22 21 20 23 28 34 41 56 58 63 61 57 63 56 56 53 53 51 57 60 61
18 15 13 11 10 10 9 7 7 7 8 8 11 14 12 9 8 9 17 19 23 25 25 24 24 20 22 17 20 25 31 43 57 61 59 61 68 78 46 49 50 48 53 57 58
23 21 17 15 14 13 11 9 8 9 9 10 11 13 9 10 11 9 11 21 25 21 26 27 23 23 22 19 12 19 24 31 49 62 59 64 69 93 57 50 48 44 48 52 53
25 23 21 19 17 15 15 15 19 17 13 13 12 11 11 10 10 12 15 19 28 22 20 24 22 18 22 21 15 16 25 28 39 54 62 60 69 93 55 52 47 43 42 48 49
29 25 21 20 19 19 18 17 15 20 16 11 11 10 10 10 11 14 18 19 21 24 21 19 17 18 19 18 17 15 20 26 35 49 59 63 64 66 58 47 45 40 38 44 48
36 31 25 22 19 21 20 18 15 16 17 14 12 12 11 10 12 12 15 22 22 24 24 21 18 18 20 20 19 16 14 26 36 45 55 60 65 58 69 49 47 44 42 38 43
34 35 27 24 27 23 24 19 18 16 17 18 13 12 11 11 12 11 13 18 20 24 22 21 21 20 19 19 20 19 16 14 26 45 49 51 59 55 65 61 45 49 46 40 41
30 31 28 22 22 28 22 20 17 17 14 20 17 13 12 12 16 13 12 15 17 19 25 22 20 19 20 19 19 21 20 14 13 25 40 46 54 52 55 65 53 52 50 45 45
25 22 19 25 26 25 22 20 18 16 15 18 15 14 13 13 13 13 13 12 16 17 19 22 30 23 19 22 21 22 22 20 17 14 21 34 49 46 52 55 63 53 54 51 49
21 19 18 19 30 24 23 20 19 14 21 22 19 14 13 17 14 14 15 15 14 16 13 13 15 22 27 24 23 22 24 28 25 19 13 14 35 40 44 51 55 56 52 54 51
25 22 24 23 23 22 22 22 23 25 23 22 15 14 14 17 16 14 15 15 18 16 16 19 22 17 18 24 29 26 24 27 30 21 14 10 17 30 39 48 50 61 62 51 54
23 24 26 25 22 21 24 26 30 29 22 17 15 15 16 16 14 16 15 17 23 22 19 17 17 29 26 24 26 28 32 23 30 26 21 15 10 14 28 42 50 55 53 64 51
25 27 26 21 19 21 25 32 30 24 19 19 20 21 26 26 21 21 23 24 27 25 21 22 25 25 24 27 26 29 33 32 30 37 33 23 19 14 13 24 38 45 50 45 70
28 36 34 33 30 31 38 42 34 29 30 30 31 31 31 32 35 31 34 31 31 30 23 23 26 22 26 29 23 27 27 42 41 31 34 32 22 22 18 16 24 32 38 39 58
40 43 42 43 45 43 46 44 42 41 42 43 42 44 45 45 46 47 43 42 37 37 31 28 25 23 23 27 27 26 30 26 46 46 32 32 27 23 22 21 22 28 34 38 42
49 48 46 46 52 48 46 45 43 45 47 47 49 50 51 53 57 55 53 52 49 43 39 38 31 29 26 24 25 26 28 41 37 38 41 36 33 30 30 26 27 25 25 35 45
47 52 46 43 42 43 45 45 45 44 45 46 49 49 52 54 57 59 61 59 60 56 52 48 44 39 30 37 39 33 35 39 42 43 38 41 36 33 39 38 36 29 25 34 39
47 43 42 43 41 41 42 44 45 49 45 43 45 46 50 50 52 65 64 62 64 63 59 53 48 42 40 41 39 35 40 45 55 57 58 43 44 43 39 42 42 37 33 33 42
47 47 44 43 43 45 46 51 51 47 48 45 46 48 50 55 55 62 74 79 73 71 68 64 64 57 52 45 42 38 32 36 36 37 51 48 50 49 52 50 48 40 40 40 38
43 43 46 43 43 46 47 48 49 51 47 50 52 49 51 52 55 58 58 65 73 73 74 75 73 76 61 49 41 35 29 26 23 23 25 46 44 54 55 61 59 57 48 52 44

GFSSW_prec_cthk_060.txt.gz
RH
5 5 5 4 5 5 5 5 5 5 5 5 6 7 9 10 10 9 11 12 10 12 12 18 29 44 47 58 60 71 81 87 87 75 85 80 81 87 84 81 77 75 75 76 74
5 5 5 4 4 4 4 4 5 5 4 4 5 5 7 9 10 13 13 13 9 9 12 21 27 41 48 56 56 69 85 86 85 79 84 78 77 81 78 77 73 76 76 75 72
6 5 5 5 4 4 4 4 4 4 4 4 4 5 5 7 12 17 15 13 11 6 13 25 31 41 43 51 57 63 73 77 71 79 74 80 77 80 78 77 72 73 73 73 69
7 7 6 5 5 5 5 4 4 4 4 4 4 4 6 6 20 20 18 12 13 7 21 29 35 39 44 45 54 61 64 71 73 68 71 77 84 86 93 86 77 70 71 72 69
9 8 8 7 6 5 5 5 5 4 4 4 4 5 6 8 16 12 15 16 15 10 20 28 32 37 40 42 47 51 59 63 67 73 72 75 82 86 92 81 81 66 66 71 66
11 11 10 9 7 6 6 5 5 5 5 5 5 6 6 15 12 14 15 17 16 15 20 29 31 30 32 38 38 48 49 61 65 70 71 73 76 74 84 73 67 63 64 66 61
15 14 13 11 9 8 7 6 6 5 5 6 6 7 14 18 13 13 13 18 17 15 20 29 29 27 28 31 32 32 43 50 60 68 75 70 80 72 89 85 63 57 63 62 62
21 19 17 14 12 10 9 7 7 6 6 8 10 14 19 10 8 11 17 17 18 17 21 25 27 24 24 24 27 30 36 41 54 62 62 69 74 83 78 85 67 55 58 59 60
25 22 21 18 16 14 11 9 8 8 8 9 12 20 23 10 8 10 16 20 19 20 26 31 27 25 21 22 22 25 31 36 46 58 61 57 68 73 82 69 60 56 53 57 56
31 26 23 22 20 17 16 14 10 9 9 10 11 16 14 11 10 8 9 20 24 21 23 25 25 24 22 20 20 20 25 29 38 56 58 63 67 68 85 78 50 53 55 57 53
37 33 29 25 23 21 20 19 23 27 14 17 19 15 14 13 9 12 11 19 26 23 24 25 27 24 23 19 21 18 21 24 27 46 52 60 71 73 60 70 78 48 50 54 52
36 33 33 29 26 24 23 24 20 25 20 14 12 10 10 10 13 16 18 21 26 26 22 25 26 23 19 23 22 21 20 20 26 39 51 64 71 76 63 61 72 46 45 50 51
30 28 29 29 26 28 27 22 19 17 16 20 13 13 12 10 14 17 18 22 24 24 23 19 18 18 21 19 20 17 17 18 27 36 49 50 72 73 70 63 80 59 42 46 43
30 26 25 23 34 33 33 23 20 18 19 21 16 14 11 11 12 12 13 20 22 26 24 25 21 23 18 19 20 19 17 14 20 35 39 47 55 71 62 84 93 72 44 42 42
30 23 23 21 26 34 34 24 21 18 23 23 19 16 15 12 17 14 12 14 19 23 23 22 25 22 24 19 20 21 22 19 16 19 32 38 50 45 64 68 79 67 62 42 38
22 22 19 22 28 29 27 25 21 22 18 21 20 16 14 14 14 17 14 11 16 19 20 20 26 23 21 24 20 21 20 21 21 15 15 22 38 39 64 60 61 60 76 55 43
15 17 20 24 36 29 26 27 25 21 22 23 20 17 16 18 16 13 15 14 12 14 11 12 18 25 28 23 22 23 23 24 25 21 14 10 17 29 42 45 54 56 76 65 50
15 15 22 23 29 27 28 32 30 28 25 24 21 19 18 18 17 17 13 14 15 16 18 23 19 12 14 23 26 24 24 26 29 23 17 14 13 10 24 42 63 60 57 70 53
19 26 30 29 23 22 26 30 36 38 31 28 24 19 17 17 13 18 15 14 18 27 23 17 16 24 26 20 20 25 32 21 24 26 23 22 15 12 11 30 47 58 63 67 71
22 28 32 25 19 20 26 42 47 34 29 23 20 23 25 26 25 21 17 24 22 25 24 19 19 19 25 31 25 23 25 36 30 31 31 27 24 19 15 13 34 47 51 51 57
34 42 38 34 25 28 49 52 38 29 27 26 25 27 31 27 32 30 35 32 31 27 26 21 18 14 23 28 28 31 26 29 38 36 27 31 26 22 20 17 17 32 37 39 53
45 53 47 42 48 48 53 47 44 41 39 38 36 36 37 37 38 40 41 45 36 35 34 30 23 21 19 22 29 35 30 27 38 41 40 31 27 23 23 22 20 20 36 47 50
45 44 39 43 56 59 46 41 39 40 41 39 40 41 40 42 45 44 48 51 45 42 42 35 28 27 21 18 19 30 27 28 31 31 41 42 33 21 28 28 24 21 20 37 52
45 49 44 35 39 40 45 46 46 38 39 39 37 35 34 39 38 38 40 44 47 49 47 42 38 40 33 26 34 35 34 29 29 31 29 35 38 27 29 36 31 27 27 30 49
39 35 37 39 39 40 42 42 42 43 39 36 37 37 39 38 42 39 43 46 48 49 48 47 44 44 37 31 37 33 32 29 31 29 36 30 35 32 42 46 44 40 34 30 31
39 43 44 36 36 44 41 43 39 39 37 45 44 46 44 45 51 51 50 50 52 58 63 64 54 54 50 46 42 34 32 29 28 26 35 41 42 40 49 55 49 47 47 48 37
42 42 39 36 36 37 38 40 41 41 43 44 46 46 45 51 52 50 47 47 50 59 63 70 70 77 63 57 57 50 39 32 28 26 33 38 37 45 52 55 59 57 60 64 59

GFSSW_prec_cthk_063.txt.gz
RH
5 4 4 4 4 4 4 4 4 5 5 5 6 6 7 9 9 9 10 12 9 12 13 17 22 35 46 60 70 73 83 88 88 83 80 84 85 84 86 92 83 80 77 74 70
5 5 5 4 4 4 4 4 4 4 4 4 4 5 6 8 9 9 9 12 9 11 12 16 22 38 49 57 65 69 82 80 77 79 80 77 75 74 75 79 89 82 79 74 70
7 6 6 5 5 4 4 4 4 4 4 4 4 4 5 6 9 13 10 12 11 8 9 18 23 37 46 54 59 62 74 82 77 78 81 87 90 75 74 74 87 75 77 74 70
9 9 8 7 6 6 5 5 4 4 4 4 4 4 5 6 19 18 17 15 13 7 7 19 28 35 45 48 57 62 62 71 72 69 75 82 83 76 79 87 85 74 73 71 71
12 12 11 10 9 7 6 5 5 5 4 4 4 4 6 7 13 13 14 16 13 9 9 19 26 36 42 44 52 56 57 63 69 75 78 77 78 79 81 85 92 80 73 69 70
18 16 14 13 12 10 9 7 6 5 5 5 5 6 6 11 11 12 13 15 15 12 16 22 27 32 39 42 45 49 56 59 66 74 76 76 77 77 77 82 82 74 70 66 66
30 22 19 17 14 12 11 9 8 6 6 6 7 7 10 15 13 13 14 13 15 15 20 24 28 35 34 38 38 37 43 48 63 66 73 84 80 79 79 83 82 74 69 64 60
34 30 24 22 19 15 13 11 9 7 7 7 10 12 19 11 9 9 15 15 16 15 18 28 30 32 28 32 32 32 35 41 50 60 71 71 83 87 78 77 76 70 65 61 58
35 35 30 26 23 21 17 13 11 10 9 9 13 20 21 14 9 9 16 16 17 18 16 23 25 27 25 26 29 28 30 33 43 50 67 69 77 80 79 84 78 59 62 61 61
29 32 33 31 27 24 22 17 14 12 12 11 12 16 16 13 10 8 15 20 18 18 22 24 28 28 26 23 27 25 27 30 34 44 56 72 75 77 88 97 82 65 56 60 56
21 26 28 31 29 29 26 23 26 28 16 23 20 18 14 14 11 10 10 19 22 21 23 24 29 26 23 21 19 22 27 28 28 32 44 62 77 82 81 75 82 69 52 54 61
27 24 26 27 28 32 32 29 25 26 26 17 17 15 13 11 12 15 15 19 26 25 24 26 25 23 24 24 22 21 24 25 24 25 43 62 74 78 71 75 81 92 54 47 53
26 28 25 25 24 29 33 32 26 22 21 16 17 13 12 10 14 17 18 22 26 31 24 25 23 22 23 23 23 23 24 22 23 28 54 61 75 73 69 71 73 95 69 67 45
15 21 25 25 27 31 34 35 29 24 22 21 18 15 15 11 13 16 18 21 25 28 25 25 19 23 25 22 22 22 20 19 20 26 39 58 77 64 60 72 68 71 79 69 49
12 11 16 23 30 33 33 29 25 22 34 26 21 18 16 13 15 14 12 14 20 24 26 24 20 23 23 21 20 20 21 20 21 24 23 30 45 59 66 72 72 65 69 64 66
11 12 12 19 27 28 28 29 24 26 31 26 24 20 17 16 17 19 17 13 15 18 22 22 23 24 24 23 23 20 20 21 22 22 25 26 30 41 59 57 62 64 57 52 52
14 12 11 23 33 28 27 30 30 29 27 24 23 20 17 16 17 16 16 15 13 13 18 16 19 22 23 24 22 24 22 27 28 26 23 20 28 24 40 48 47 55 50 56 52
16 20 23 20 26 23 26 33 43 42 31 28 25 22 20 22 21 19 16 18 17 16 17 19 18 16 24 24 27 24 25 28 29 28 24 19 19 16 25 34 43 47 49 57 58
18 27 28 23 20 22 29 44 52 41 36 32 29 26 22 22 22 21 18 15 20 22 22 23 21 19 17 20 20 26 28 21 24 21 28 25 21 18 16 24 39 44 49 63 63
28 31 30 30 21 20 48 57 48 48 42 36 33 27 28 30 25 25 22 24 24 23 25 26 23 21 20 21 17 18 20 33 30 29 32 26 24 25 25 21 30 44 48 50 62
46 49 41 29 35 44 55 60 48 43 42 40 36 30 29 37 36 35 40 33 28 26 25 23 23 19 23 26 28 28 24 27 31 32 36 31 24 20 29 27 30 30 38 45 47
44 47 38 41 47 54 55 55 49 42 40 37 33 31 28 33 36 38 37 36 32 29 29 26 23 24 16 20 26 26 27 29 36 33 34 38 29 24 29 30 35 42 41 42 46
42 42 36 46 51 55 51 44 41 38 39 36 37 37 37 35 37 40 41 40 34 33 37 33 33 33 23 12 23 28 28 30 32 32 34 39 31 25 31 34 37 46 58 58 52
38 41 38 35 41 44 45 44 39 37 36 33 37 35 35 34 32 34 34 33 34 35 34 31 34 38 37 29 29 35 31 29 29 31 30 34 28 21 34 38 39 42 47 55 54
38 37 37 37 35 37 40 40 39 40 36 33 37 35 35 37 37 38 35 37 37 38 37 35 34 31 28 31 34 30 31 30 31 26 28 27 28 38 37 40 41 47 50 57 59
38 41 40 32 37 37 36 37 36 36 35 36 39 38 33 37 39 41 44 47 44 41 46 48 47 43 37 32 38 38 36 34 30 25 24 27 26 41 39 37 44 49 51 59 62
33 35 30 31 33 35 37 36 39 35 38 37 35 35 38 42 41 41 41 44 44 42 47 55 64 65 55 49 52 54 38 38 33 27 23 27 27 40 44 39 50 57 59 61 62

GFSSW_prec_cthk_066.txt.gz
RH
5 5 5 5 4 4 4 4 4 4 4 4 5 6 6 7 9 9 10 12 10 14 16 20 22 27 50 61 68 77 83 84 80 84 84 87 88 93 91 86 85 85 74 70 70
6 6 6 5 5 5 4 4 4 4 3 4 4 4 5 7 8 9 9 11 9 11 14 15 20 37 44 62 69 79 82 83 81 82 84 83 89 85 92 90 84 88 82 76 73
9 8 8 7 7 6 5 5 4 4 4 3 4 4 4 5 8 11 10 10 12 10 12 14 19 36 47 54 61 70 74 75 79 81 82 81 84 85 83 91 89 93 78 77 76
19 12 11 10 9 8 7 6 5 5 4 4 4 4 4 5 15 16 15 13 13 9 9 17 27 37 43 48 58 66 64 71 75 78 82 81 77 84 83 90 81 87 78 75 74
30 26 17 13 12 11 9 8 7 6 5 5 4 4 4 7 9 14 14 17 15 11 7 15 21 35 40 45 54 58 60 63 65 76 79 81 86 87 84 92 89 88 83 78 73
32 31 28 22 17 14 12 10 8 7 6 5 5 6 6 8 8 12 13 15 15 15 8 16 19 28 39 45 49 51 52 46 54 71 75 79 82 80 83 89 88 88 79 76 71
27 30 32 27 23 20 15 13 10 8 7 6 7 8 8 7 10 11 13 14 17 16 11 15 28 29 39 42 43 42 42 39 56 71 77 78 80 80 86 88 88 83 75 70 69
18 23 27 30 28 24 21 17 14 10 8 7 10 12 12 11 12 10 11 14 18 17 16 28 36 36 36 38 35 36 36 38 50 67 76 73 82 83 84 82 82 79 74 68 67
22 18 23 24 26 27 24 22 18 13 10 10 12 17 16 13 9 7 13 16 17 16 18 35 36 30 29 29 33 34 35 40 44 59 64 68 82 82 81 82 77 72 65 64 66
21 21 21 22 24 25 26 26 22 17 13 13 13 16 13 12 11 10 14 18 19 17 21 29 28 29 29 27 32 31 35 38 44 53 57 63 78 79 75 80 77 72 61 60 62
17 20 23 23 24 23 29 30 30 28 20 15 20 17 16 14 12 10 15 17 21 18 22 26 29 29 28 25 22 26 30 34 36 40 46 49 75 72 74 75 75 74 68 57 56
13 14 22 24 25 24 31 33 31 28 25 18 20 19 17 14 15 14 18 19 22 23 25 27 27 26 28 24 21 24 28 30 31 32 36 51 68 72 76 71 74 71 58 60 57
12 11 12 22 27 28 30 31 30 31 26 23 20 17 15 14 14 17 16 20 23 26 25 28 23 24 27 27 27 27 27 27 31 36 46 63 85 85 79 75 78 79 80 69 62
10 11 11 11 28 37 37 33 32 29 29 20 19 17 14 14 17 20 20 22 27 29 28 28 23 26 27 26 28 29 22 24 28 27 37 53 93 87 83 79 80 78 76 64 54
9 10 9 9 26 42 40 35 30 27 34 24 21 17 17 15 18 17 21 21 24 26 27 26 21 25 26 22 23 24 23 23 24 27 28 41 62 54 76 80 80 79 70 55 59
12 12 10 15 23 38 34 31 27 34 40 29 25 20 19 18 18 18 16 13 18 22 22 22 21 20 23 23 24 22 21 23 25 27 31 27 30 44 60 57 72 72 69 62 54
14 14 12 20 26 27 29 27 30 35 30 27 26 21 18 19 18 17 18 16 15 17 20 20 20 21 21 22 23 22 23 27 27 31 31 29 30 24 44 45 56 62 68 60 57
18 21 23 20 21 23 24 35 45 34 35 29 24 22 21 20 21 19 17 19 20 19 19 18 19 21 21 21 25 25 24 26 26 27 31 28 32 29 30 39 43 49 55 61 60
22 27 24 24 19 28 40 49 49 42 38 33 28 27 28 25 24 22 22 24 23 21 21 21 18 18 21 23 22 24 25 25 26 25 27 24 22 22 32 33 31 41 48 47 48
38 32 27 21 28 44 43 49 52 48 41 37 38 36 36 32 28 24 26 26 25 23 22 22 20 19 18 23 23 23 26 28 29 31 31 27 24 24 31 33 36 38 37 44 48
39 35 36 37 45 48 58 50 50 51 46 43 43 40 37 31 33 35 34 31 29 26 23 22 21 23 21 24 25 23 24 25 27 32 34 32 27 29 40 39 39 43 44 48 54
35 37 38 40 45 47 52 48 47 51 52 51 48 45 42 41 41 36 34 30 27 28 27 24 24 25 26 24 25 25 27 27 31 32 35 37 32 34 40 40 41 41 37 38 49
36 37 38 39 47 46 41 41 42 40 43 42 41 39 39 39 42 40 38 36 32 31 30 27 30 30 20 27 28 32 33 33 29 30 32 36 34 32 41 46 47 45 41 40 45
39 40 37 34 38 46 45 43 40 37 37 39 39 36 37 38 36 40 44 40 36 33 30 27 31 32 33 30 30 33 37 38 34 34 33 35 33 33 39 46 49 50 50 54 53
30 35 34 36 34 36 40 40 37 38 34 33 33 30 31 37 35 37 36 36 34 33 30 28 29 27 27 27 25 25 27 38 37 35 33 31 33 37 44 48 53 54 55 56 67
30 34 30 34 32 32 35 38 34 35 34 35 36 34 34 35 37 40 37 36 37 37 39 42 41 39 41 32 27 26 25 27 38 39 41 35 28 41 49 44 51 58 58 60 71
28 30 29 33 34 33 36 35 35 36 36 34 33 32 34 33 33 33 33 36 40 42 42 44 48 49 53 43 38 32 24 28 35 53 51 43 44 41 45 49 48 54 62 66 70

GFSSW_prec_cthk_069.txt.gz
RH
6 5 5 5 5 5 5 4 4 4 4 4 4 5 6 7 8 9 10 11 12 15 18 23 27 30 52 61 71 82 86 86 83 85 88 90 90 93 89 85 81 81 72 71 64
16 11 7 7 6 6 6 5 4 4 4 4 4 4 5 6 7 8 9 11 10 13 15 18 22 33 51 58 66 84 84 79 77 84 87 88 93 90 89 86 87 83 78 70 65
26 23 18 11 9 8 7 6 6 5 4 4 4 4 4 5 7 12 9 10 13 11 13 15 20 37 47 53 66 79 80 70 75 82 84 83 88 89 87 90 89 83 80 73 66
30 28 25 22 15 11 9 8 7 6 5 5 4 4 4 5 14 14 10 10 14 10 12 13 24 36 46 52 65 75 68 65 70 77 83 87 87 88 87 91 88 81 82 78 71
27 27 28 26 23 17 14 11 9 8 6 5 5 5 5 5 7 15 14 15 15 12 9 13 23 37 47 50 63 71 64 56 57 61 77 83 87 89 90 90 93 88 84 79 77
19 19 23 27 26 22 18 16 12 9 8 6 5 6 6 7 8 13 15 15 18 16 9 13 18 28 43 47 59 57 54 48 45 51 70 81 83 83 89 90 91 89 87 79 76
20 18 16 20 23 24 22 20 18 13 9 7 7 8 8 7 9 11 14 17 18 17 12 12 18 33 41 50 53 45 44 40 50 57 75 84 84 83 79 85 93 89 85 78 73
18 18 18 16 20 22 20 22 20 19 12 9 9 12 10 11 13 12 13 17 21 19 15 15 27 32 38 47 43 41 39 34 54 63 74 79 82 78 84 86 86 87 78 72 70
13 14 16 17 19 22 20 20 22 21 17 11 12 16 14 14 12 10 12 17 21 20 17 24 33 33 33 36 40 41 42 36 55 69 74 75 78 81 81 79 78 78 71 65 67
11 11 13 16 18 22 20 24 24 24 19 18 15 18 16 14 12 10 15 18 20 20 22 31 36 32 30 32 39 38 41 40 40 63 64 67 68 79 80 78 80 76 65 61 63
9 9 10 14 17 22 27 28 30 30 26 19 18 16 17 15 13 13 14 20 23 19 23 30 37 34 31 28 30 31 38 43 42 41 48 49 58 66 80 79 77 80 67 58 58
9 9 9 10 16 20 31 31 31 31 29 23 22 20 18 17 16 13 15 22 22 20 27 35 33 31 31 30 26 30 34 44 42 41 37 41 59 67 81 83 81 77 71 57 52
8 8 8 8 13 23 31 34 31 33 31 26 23 21 18 16 17 18 19 22 23 23 28 33 28 30 30 32 27 25 31 43 43 37 43 54 68 75 79 81 79 76 74 67 51
9 9 8 8 15 25 33 35 35 37 35 27 25 24 20 16 15 22 21 24 26 27 29 29 29 28 30 30 30 27 31 37 35 31 29 51 72 78 80 79 73 75 79 71 59
9 10 8 12 20 25 38 41 36 34 36 24 25 19 19 17 19 23 25 25 26 28 31 30 26 29 27 26 28 26 26 34 34 29 36 41 45 58 80 79 72 73 77 71 60
12 12 11 20 22 26 38 42 34 37 39 27 22 20 19 19 21 21 20 25 26 27 27 24 22 24 24 26 25 26 25 26 34 32 31 29 31 40 76 62 62 65 71 70 60
18 14 15 19 25 27 33 31 35 45 37 32 25 22 20 20 18 20 18 18 20 27 26 23 23 23 20 22 23 23 25 28 29 35 32 29 28 26 45 47 47 52 61 65 63
27 23 17 20 21 32 35 41 45 41 40 35 28 22 22 21 20 19 20 21 20 18 23 23 24 22 20 21 23 24 25 28 28 34 35 32 33 29 32 39 40 40 54 65 59
31 25 20 21 31 39 44 49 46 43 40 33 30 30 30 25 22 23 25 25 23 22 22 22 23 24 21 23 24 25 28 25 28 29 29 33 31 31 36 35 37 40 37 52 56
29 24 24 31 35 42 45 52 45 45 40 35 35 35 35 32 29 27 28 28 25 23 22 23 21 23 24 25 26 27 27 28 30 32 30 29 32 38 39 38 41 38 38 41 49
30 31 33 35 36 37 49 55 50 46 43 40 40 39 38 36 35 33 33 30 28 26 23 22 22 23 23 28 29 31 31 32 32 35 38 34 33 38 40 37 41 41 35 37 37
35 37 35 34 39 42 46 52 55 53 47 45 44 43 42 39 37 34 37 36 32 29 27 25 24 27 28 28 27 28 31 32 35 34 40 39 39 33 39 39 40 43 40 31 30
30 32 37 37 43 42 42 43 43 45 53 51 50 47 45 44 42 38 35 34 31 28 29 27 29 28 29 30 28 30 30 29 31 35 39 40 35 32 37 45 45 44 44 39 37
27 31 28 33 39 39 40 44 41 35 39 47 49 44 45 49 43 45 43 39 36 35 32 30 33 31 32 35 35 34 34 32 32 38 38 34 31 40 45 46 46 48 54 51 49
24 28 27 34 33 39 42 42 38 36 33 34 37 40 39 46 46 48 44 40 36 36 34 30 33 29 30 31 34 36 37 37 36 36 39 33 35 49 49 50 50 52 55 58 59
27 29 29 31 30 31 36 39 33 35 33 32 34 31 28 34 37 41 40 39 36 33 32 34 39 34 33 28 27 29 30 32 35 39 38 39 39 49 52 52 48 49 57 60 61
28 29 28 33 35 34 37 35 35 35 34 33 31 32 31 30 30 29 29 29 33 35 36 39 43 43 41 32 26 27 31 31 42 48 46 44 49 49 50 49 51 50 52 58 59

GFSSW_prec_cthk_072.txt.gz
RH
20 17 14 9 6 6 6 5 5 4 4 4 4 5 6 6 7 9 10 12 11 14 22 30 31 44 55 62 76 80 86 83 81 84 91 91 93 94 90 85 83 77 75 69 65
27 25 22 19 13 8 7 6 6 5 4 4 4 4 5 6 6 7 9 11 11 11 16 23 29 41 54 66 79 86 82 78 78 82 85 91 94 93 87 82 84 78 76 68 62
29 27 25 24 22 17 11 9 7 6 5 4 4 4 4 5 6 11 10 10 14 11 13 18 25 39 52 63 76 83 79 74 77 79 83 85 90 91 86 88 87 79 76 68 62
22 23 24 24 24 23 17 13 11 8 6 5 5 4 4 4 11 13 9 11 14 11 13 15 22 34 50 57 67 80 75 68 71 78 84 88 88 90 88 88 87 79 72 64 57
19 18 16 17 21 24 22 17 14 12 9 7 6 5 5 5 6 14 9 12 16 13 11 12 19 33 47 53 68 78 65 63 58 66 72 82 87 88 93 86 86 80 76 69 60
17 19 18 16 14 19 22 21 18 15 13 9 6 6 6 6 7 13 14 13 16 16 11 12 19 29 41 50 63 61 53 53 50 54 64 80 85 85 91 88 87 89 84 74 66
11 13 14 15 16 15 18 19 18 19 17 12 8 7 8 6 10 14 16 16 18 18 13 12 17 34 44 50 57 51 47 46 56 60 71 82 85 80 81 87 90 91 90 80 67
9 9 10 11 12 15 17 17 16 18 19 16 11 11 11 9 11 13 17 17 17 21 17 14 20 28 40 46 47 43 43 42 58 67 73 80 79 83 85 88 91 90 88 79 73
8 8 9 10 11 13 14 17 19 20 19 19 15 16 15 13 14 14 14 20 19 21 19 16 25 32 34 42 42 45 44 38 54 68 73 79 77 80 87 86 88 85 80 74 71
9 8 8 8 10 12 12 16 24 23 20 20 20 22 17 16 15 13 16 22 22 19 20 22 27 31 34 38 45 43 41 39 44 66 67 72 70 77 84 82 84 79 72 66 65
8 8 8 8 9 12 16 19 23 29 24 21 21 21 22 18 15 13 16 24 23 19 20 24 32 31 31 34 35 36 40 41 40 47 59 54 56 66 81 85 80 81 72 61 66
8 8 8 7 7 10 21 23 26 30 31 27 24 24 23 19 18 18 21 24 24 20 21 30 36 35 35 33 32 35 38 44 42 42 47 49 58 64 73 83 83 81 76 62 62
9 9 8 7 8 14 21 27 30 35 36 32 26 26 24 21 19 17 20 25 25 23 24 32 32 41 36 34 31 33 36 41 42 35 54 55 58 66 72 81 81 83 80 70 60
11 11 9 10 14 17 22 31 38 42 39 31 29 28 24 22 20 21 22 27 28 25 28 34 34 36 34 32 32 30 32 37 40 35 35 49 58 60 73 78 80 81 80 74 61
15 14 10 15 18 21 26 35 39 43 40 31 31 27 25 21 22 26 29 30 32 29 29 35 36 30 31 30 32 29 36 37 37 36 42 43 43 44 70 73 77 78 76 73 69
19 15 14 18 21 23 33 41 45 44 44 32 33 28 26 23 23 26 28 29 30 29 28 32 26 29 28 27 29 30 30 34 34 34 33 33 31 30 64 71 61 68 72 70 71
22 18 16 17 23 24 38 44 44 52 40 34 29 27 22 25 28 26 28 32 31 31 30 27 26 23 23 25 26 28 29 37 38 38 34 29 28 29 42 58 45 45 56 69 61
26 21 19 21 27 34 41 48 53 48 43 35 30 27 25 25 24 25 23 29 27 30 30 29 27 25 24 24 24 27 28 32 33 40 35 31 29 32 41 57 49 41 50 59 66
26 19 24 28 32 38 44 53 58 52 45 39 33 29 29 27 25 27 28 28 25 25 29 31 28 24 24 25 24 27 30 29 32 32 32 33 29 27 32 41 47 50 48 62 67
27 30 29 30 38 41 48 54 54 52 44 38 34 32 33 32 30 30 31 29 27 25 23 26 29 27 25 24 27 28 28 32 33 34 31 32 39 41 35 36 52 58 52 52 62
26 31 35 32 37 41 50 56 53 51 45 42 42 39 36 34 33 32 35 31 30 27 24 25 25 26 27 31 31 29 33 32 34 34 36 37 44 40 43 47 49 50 55 49 46
24 30 33 33 38 46 59 55 55 54 51 45 43 43 43 44 41 37 39 36 31 28 27 26 29 35 32 31 31 32 34 35 37 32 37 38 37 51 52 49 49 50 48 46 44
24 25 26 32 40 43 48 54 51 53 50 52 51 47 46 45 45 46 45 38 36 35 32 27 30 33 32 30 30 33 33 34 34 36 37 41 38 44 45 44 46 48 49 47 49
23 25 24 27 34 37 41 46 45 41 46 50 54 53 50 52 49 49 45 41 40 40 37 33 34 30 30 31 33 35 34 31 33 37 37 34 33 44 44 45 44 47 50 53 55
21 26 27 30 32 35 37 38 35 35 35 41 52 52 51 49 49 52 49 45 40 38 37 37 43 40 39 34 35 36 34 32 31 33 34 35 36 46 48 50 48 48 52 53 55
24 26 30 34 34 30 35 35 32 33 31 31 35 41 45 51 50 50 47 46 44 39 35 35 42 34 37 34 31 31 31 31 30 30 33 35 40 46 49 50 47 46 52 55 56
24 26 26 34 35 34 36 34 36 34 33 32 30 29 30 30 32 35 36 36 36 34 32 34 37 37 36 35 29 33 28 28 34 38 40 40 46 45 46 48 45 42 44 50 53

GFSSW_prec_cthk_075.txt.gz
RH
28 26 23 21 18 13 7 6 6 5 4 4 4 4 5 6 6 8 10 12 10 15 24 28 33 52 60 62 79 81 83 82 81 83 85 88 93 96 94 89 85 82 79 65 59
29 28 26 24 23 21 16 9 8 6 5 4 4 4 4 5 6 7 9 11 10 11 20 28 34 50 59 64 79 81 81 77 78 82 88 93 90 88 90 87 87 81 77 63 61
19 19 20 23 24 23 22 17 12 9 7 6 4 4 4 4 6 8 10 10 13 10 16 24 31 46 56 72 79 81 78 76 74 77 83 92 95 90 85 85 83 78 72 62 59
18 18 18 17 15 20 23 23 17 12 10 8 6 4 4 4 8 11 9 10 14 10 13 17 30 41 51 69 77 80 71 72 74 80 81 87 89 91 89 88 80 78 70 62 56
11 12 14 16 15 14 15 21 21 17 13 11 8 5 5 5 6 12 7 10 15 12 11 15 20 37 46 57 68 72 69 65 65 73 76 80 82 85 89 87 84 77 70 62 58
10 9 11 11 12 13 14 14 18 18 18 14 10 8 6 6 7 12 6 10 17 15 12 14 17 29 43 51 66 61 59 55 54 60 70 74 83 84 90 86 84 78 70 61 53
8 8 8 9 9 11 13 14 14 16 16 18 14 9 8 6 12 13 12 10 16 17 13 13 16 27 40 48 62 60 55 52 58 59 67 76 83 81 86 87 85 82 73 61 52
8 8 7 7 8 10 11 12 13 15 17 17 16 13 12 9 13 16 15 16 16 21 17 13 17 28 41 46 50 50 49 42 58 63 74 76 79 84 87 89 89 86 81 69 60
8 8 7 7 7 9 10 12 13 15 16 17 17 16 18 14 15 17 18 18 18 18 19 17 20 26 39 44 45 48 46 40 60 68 73 76 74 84 87 90 92 91 88 74 65
9 8 8 8 7 8 10 14 17 16 16 18 20 20 19 18 18 17 21 24 19 20 19 19 24 22 30 39 46 46 41 41 50 67 75 72 70 78 85 89 91 89 86 77 69
9 8 7 7 6 7 10 17 19 22 18 17 18 22 23 21 22 20 22 25 22 21 18 19 24 22 29 33 37 42 42 39 41 56 60 55 61 67 81 86 84 84 76 72 71
11 8 8 6 6 11 16 19 21 22 23 22 21 22 27 23 22 23 23 27 22 21 20 20 25 25 31 33 35 37 42 39 39 43 47 48 57 61 73 85 83 78 74 69 68
12 11 9 10 11 15 18 19 22 26 25 24 26 24 29 27 22 22 26 27 23 22 21 21 26 31 34 32 33 33 37 41 38 38 58 63 63 63 67 82 85 82 76 65 64
15 13 10 14 17 21 21 21 25 31 30 27 31 32 31 28 25 25 30 28 28 22 23 27 33 37 35 33 30 32 34 40 38 35 37 54 50 62 64 76 81 83 80 74 61
16 13 14 17 18 24 23 26 35 39 39 33 35 34 31 28 25 27 30 33 30 25 29 31 35 40 38 34 33 31 30 40 38 33 36 46 41 45 70 77 83 84 85 81 69
18 17 16 18 21 25 30 34 43 48 48 39 37 33 30 29 28 30 32 34 37 30 31 32 37 34 34 34 33 32 28 33 33 29 30 38 35 36 51 63 64 72 79 83 79
23 22 18 19 21 23 29 44 48 55 45 40 38 33 29 27 31 34 34 34 35 37 34 32 30 32 28 29 33 32 29 35 33 31 32 29 35 43 49 66 65 61 54 70 76
21 23 26 28 29 32 36 49 58 57 48 43 40 37 32 34 34 35 37 37 35 34 33 38 33 28 26 24 28 31 29 31 35 31 29 30 31 39 43 62 72 61 55 59 68
21 27 30 31 35 39 43 56 63 59 49 43 39 36 37 36 33 32 38 40 37 35 37 32 30 27 27 24 27 29 29 27 29 30 30 31 31 32 39 50 63 62 59 69 63
24 29 31 34 38 43 51 59 61 56 48 43 40 38 39 35 32 31 32 34 32 32 35 34 30 28 26 27 26 28 29 30 27 31 32 35 38 36 47 57 68 63 61 72 71
25 29 33 32 40 46 52 61 61 55 48 44 42 40 40 36 33 33 35 33 32 28 31 33 29 29 27 31 31 28 29 31 30 27 27 29 34 49 56 52 60 64 63 63 67
22 25 27 32 37 46 56 58 57 57 54 49 44 39 43 41 41 40 38 38 34 30 27 29 31 33 31 30 31 31 31 30 30 33 31 27 34 50 51 52 53 66 68 64 62
21 21 21 25 33 41 49 56 58 56 57 55 53 48 45 45 47 46 43 41 37 35 32 27 30 31 30 29 29 30 31 30 30 30 34 29 33 47 47 48 51 52 57 61 61
19 20 23 25 30 33 38 44 47 50 51 53 55 52 48 51 51 55 52 46 44 43 36 30 30 29 26 30 30 31 31 30 28 30 33 32 32 48 44 45 47 46 51 54 56
18 24 26 28 27 30 33 35 30 32 33 42 48 54 54 54 51 52 51 51 50 46 43 38 38 35 33 32 32 32 30 29 29 32 33 35 38 49 46 47 46 46 46 49 54
21 24 27 31 30 29 29 31 31 30 31 31 38 49 51 54 54 53 50 49 49 46 48 42 46 41 38 33 30 28 30 30 28 28 31 34 42 47 49 48 47 44 43 45 48
21 23 24 30 29 28 31 33 35 32 32 30 29 29 36 46 47 47 46 45 42 41 42 41 41 41 41 36 29 23 22 25 30 35 32 33 38 43 45 47 43 39 39 43 44

GFSSW_prec_cthk_078.txt.gz
RH
27 28 28 25 23 20 17 11 7 6 5 4 3 4 4 5 6 7 10 12 11 16 26 34 44 58 64 72 74 75 79 79 83 81 85 88 85 90 90 86 84 79 70 59 52
18 18 19 22 24 23 21 19 13 8 7 6 4 4 3 4 5 6 8 11 9 14 23 34 43 54 61 65 73 78 79 77 79 83 84 87 85 88 91 89 86 82 71 60 53
14 16 16 17 16 18 23 22 19 13 10 7 5 4 4 4 6 8 7 9 12 11 23 30 42 51 58 65 71 73 76 72 74 82 85 83 82 84 86 85 80 78 71 58 52
10 9 10 12 14 14 13 19 23 19 13 10 8 5 4 4 9 11 10 9 13 12 19 25 42 47 54 64 71 74 73 70 76 79 86 87 84 86 85 84 78 76 67 59 53
9 9 9 9 10 11 13 13 16 20 18 14 11 7 5 7 6 10 8 9 14 14 16 18 34 42 51 66 77 72 67 67 69 75 81 82 84 86 88 83 77 76 67 58 54
10 9 8 8 8 9 10 12 13 16 17 17 14 9 8 8 7 11 6 9 19 16 14 16 22 40 48 61 64 64 66 59 58 71 75 76 82 82 87 87 80 76 68 59 55
10 9 9 8 7 8 8 10 12 13 15 17 16 13 11 11 12 12 11 13 20 18 16 16 18 29 43 49 54 59 55 56 60 59 68 74 82 83 86 87 82 78 71 61 56
11 9 8 7 7 7 8 9 11 12 14 15 17 16 17 9 16 15 14 18 19 20 19 18 18 27 39 46 46 57 50 50 60 62 68 71 80 83 85 85 85 80 73 62 56
11 8 7 7 7 6 7 9 12 13 13 16 15 23 21 11 18 19 18 16 18 18 21 20 18 26 32 37 41 50 52 45 57 64 68 70 77 85 85 86 85 83 73 64 55
11 9 8 7 6 5 6 9 13 14 14 14 18 20 21 19 19 21 19 19 17 19 19 20 24 22 28 36 37 49 48 41 56 63 69 70 74 80 88 93 91 88 84 69 63
12 9 8 6 5 5 7 11 16 22 19 18 17 22 22 25 21 23 23 20 21 19 19 19 23 19 20 33 43 48 45 45 48 60 66 67 66 71 85 90 93 93 89 78 69
12 9 9 7 7 11 13 16 16 18 19 20 17 19 23 25 26 25 26 25 20 20 19 19 21 18 20 32 36 40 40 40 39 44 49 45 54 66 78 84 86 87 82 78 71
12 10 8 10 12 15 17 20 19 20 20 20 20 18 23 24 28 30 25 29 21 20 19 19 20 24 29 31 28 35 43 40 40 39 46 50 57 65 73 83 85 81 78 73 68
12 10 10 13 16 18 22 22 22 21 21 22 23 19 24 26 28 30 25 28 24 22 23 20 29 29 31 28 23 28 38 40 35 36 46 50 68 65 66 80 89 86 80 72 66
15 13 13 15 17 23 23 26 27 30 36 28 30 28 32 30 33 34 32 32 28 22 23 25 31 33 32 32 25 35 34 36 33 34 32 43 52 62 64 71 87 89 87 82 70
17 16 14 16 19 21 25 33 31 41 51 38 38 34 35 35 34 38 40 32 38 28 24 33 33 39 37 36 29 33 28 33 31 30 32 41 45 48 62 65 71 78 84 85 80
17 16 20 25 29 26 29 35 47 56 46 42 40 39 36 36 37 38 35 32 40 34 31 35 38 40 43 42 37 33 26 33 35 27 27 36 40 53 53 69 74 78 70 72 84
16 22 24 29 32 29 37 51 60 57 53 45 42 40 39 41 41 43 38 40 37 38 35 34 36 34 31 35 35 32 28 28 36 29 29 31 39 47 56 61 72 69 66 58 76
20 25 29 35 36 38 46 56 59 58 50 50 47 40 41 41 40 46 43 42 33 36 47 46 36 29 27 27 29 32 32 33 34 31 29 29 43 45 53 54 70 72 65 65 73
21 27 28 34 40 44 58 59 60 58 51 55 51 45 42 42 44 47 43 41 38 36 41 45 38 29 27 26 27 33 31 32 28 35 35 35 35 44 50 55 58 67 68 70 71
21 28 27 29 41 47 56 61 60 54 52 51 49 48 48 48 47 45 46 44 44 38 39 34 32 29 31 30 29 28 30 28 29 29 30 39 41 50 52 55 58 67 67 71 80
19 26 23 28 41 44 56 58 56 53 52 48 50 45 51 44 44 41 40 39 36 34 38 38 33 32 31 28 29 28 30 30 30 31 28 31 57 52 51 56 62 78 72 70 77
20 19 19 24 39 40 47 56 58 55 55 53 48 47 49 48 45 44 40 41 36 31 33 34 34 32 29 29 30 32 30 29 28 33 32 28 54 51 50 51 56 58 70 72 72
18 23 22 24 28 33 38 46 55 54 54 54 53 48 48 50 45 50 45 41 41 34 31 29 31 36 32 32 28 29 31 30 30 34 39 34 53 50 50 49 49 52 58 67 70
19 21 23 28 27 30 32 31 34 38 40 47 49 55 51 52 51 50 51 47 44 38 33 32 33 31 32 31 29 29 27 29 32 34 38 42 47 48 50 45 47 48 48 53 60
21 23 24 25 27 28 23 28 27 26 28 29 44 49 54 54 52 50 50 53 53 47 42 36 37 33 31 29 28 28 28 28 27 30 34 38 46 50 48 47 44 42 42 43 44
20 19 24 26 27 27 29 30 29 29 27 26 28 39 51 55 55 54 51 50 47 46 47 47 44 36 32 30 25 23 24 25 28 28 30 37 41 43 45 46 43 41 41 41 41

GFSSW_prec_cthk_081.txt.gz
RH
18 18 20 23 23 21 20 17 12 7 6 5 4 4 4 5 6 9 15 18 15 18 27 38 51 60 73 75 74 76 83 79 77 78 85 85 85 86 81 73 72 69 57 47 43
12 14 15 16 17 20 21 20 19 13 8 6 5 4 4 4 5 8 10 13 11 14 25 40 45 55 63 67 73 80 80 76 80 74 80 85 84 84 83 78 74 67 61 51 45
10 9 9 11 14 15 15 20 21 19 13 8 6 4 4 4 8 9 9 9 11 11 27 36 47 54 58 62 71 78 77 74 79 77 81 81 84 84 82 82 78 69 63 55 44
10 9 9 8 10 11 13 12 16 21 18 12 9 6 4 4 14 16 8 8 11 10 25 32 45 52 57 60 72 73 74 70 76 79 80 80 77 81 85 82 81 72 65 55 45
11 10 9 8 8 8 10 11 12 15 20 17 13 9 5 8 9 9 9 8 12 13 21 26 40 50 55 59 62 72 71 64 70 76 80 79 81 86 89 85 81 70 67 55 49
13 10 9 9 8 7 8 9 12 13 16 18 16 12 8 10 11 7 8 8 14 15 21 21 34 46 50 58 71 69 67 65 62 71 76 78 83 83 83 82 78 70 66 56 49
13 11 10 9 8 7 7 8 10 12 14 14 16 15 15 13 13 10 9 9 17 20 20 18 24 35 45 55 64 64 60 55 60 64 70 76 82 83 85 83 78 72 65 56 51
13 10 9 9 8 7 7 8 10 10 12 14 14 17 24 13 15 13 13 14 21 20 18 18 19 27 38 49 53 55 57 55 57 60 64 71 84 85 82 83 81 76 66 59 58
14 9 7 6 5 5 6 7 12 12 12 13 15 18 22 18 15 16 19 17 18 20 19 19 20 22 35 43 46 50 54 53 57 60 63 67 83 90 82 81 82 80 72 64 61
14 10 8 7 5 4 5 9 11 13 12 14 19 20 20 22 20 18 22 22 17 20 21 22 19 20 29 38 39 46 50 48 57 58 58 73 77 76 82 83 83 83 76 69 59
13 10 8 6 5 6 8 16 24 29 18 20 18 18 19 18 27 20 21 22 18 19 18 18 21 18 24 25 36 42 43 65 55 53 63 62 80 72 81 88 89 82 76 69 61
10 9 7 7 9 11 13 21 16 17 15 17 15 16 21 27 27 25 21 22 20 19 17 18 20 22 21 29 38 41 46 43 47 60 59 78 75 72 73 87 91 88 86 73 67
10 8 8 8 11 13 16 17 16 17 17 18 18 15 18 26 26 29 24 22 21 20 18 18 16 21 19 28 37 43 44 44 39 43 42 43 59 70 71 84 90 87 87 81 74
10 10 10 13 19 15 21 18 18 18 20 21 16 18 19 21 25 30 29 27 24 23 22 19 21 21 19 28 31 37 41 44 41 38 42 40 67 59 70 70 90 87 85 75 72
13 11 10 11 13 21 20 19 22 22 31 27 24 21 24 23 26 34 32 36 30 22 25 20 22 23 25 30 29 35 40 50 44 33 42 50 60 72 70 68 77 86 92 71 69
14 13 13 16 16 19 22 27 31 30 46 37 31 26 27 30 33 38 33 38 32 26 28 26 22 30 27 29 31 35 42 46 44 33 35 35 44 78 74 72 72 78 77 84 86
13 18 20 22 29 26 26 35 47 51 53 40 36 36 41 38 41 42 38 44 39 34 28 31 31 37 33 36 35 42 47 47 41 35 31 28 42 63 70 64 66 76 81 86 75
14 20 22 25 25 26 35 52 62 60 52 42 37 42 38 35 38 48 49 47 42 38 29 33 47 41 41 38 38 35 38 36 38 30 25 26 46 67 65 58 65 75 77 69 77
15 20 24 30 27 32 47 76 70 51 49 48 41 41 40 40 44 48 50 44 44 44 35 37 44 50 44 45 45 37 33 28 25 24 20 35 61 68 63 57 63 70 66 64 65
16 30 39 26 29 34 63 66 57 53 48 45 46 44 43 44 51 48 51 57 52 46 44 43 47 40 30 30 34 39 36 33 29 31 24 34 49 52 52 55 59 69 65 65 73
18 33 34 22 29 48 73 60 53 51 50 55 55 54 45 44 46 56 52 50 45 42 45 52 47 36 29 26 29 31 32 37 29 28 25 45 58 62 53 55 60 62 65 70 67
24 44 28 18 44 48 58 55 53 54 54 58 55 60 61 54 66 66 55 47 42 42 49 46 42 40 31 32 29 33 37 36 36 32 28 29 73 65 54 51 58 59 65 64 63
27 23 19 22 64 52 42 48 55 57 54 53 52 46 53 58 56 51 43 39 44 42 49 44 36 41 38 31 28 27 30 34 34 31 31 29 67 67 64 55 57 58 67 66 62
26 37 30 24 26 37 44 48 56 54 59 57 53 51 49 49 48 45 45 41 35 33 34 33 35 38 40 29 29 31 30 29 33 35 34 36 59 65 63 56 54 58 67 75 75
23 19 23 36 28 30 31 33 39 46 47 54 55 55 51 51 49 48 43 41 42 33 33 39 42 47 39 32 32 34 31 27 28 34 39 64 62 59 57 53 51 52 53 56 64
28 27 20 23 26 28 23 27 26 27 27 36 51 53 56 53 59 50 48 46 46 40 36 32 49 46 40 34 31 30 28 24 29 32 42 60 72 64 54 52 48 46 46 49 52
21 19 25 23 28 33 29 30 27 27 23 30 38 51 57 57 54 53 51 52 51 49 44 36 40 34 38 36 30 30 27 26 25 28 38 57 66 59 54 49 47 43 44 44 46

GFSSW_prec_cthk_084.txt.gz
RH
14 14 15 15 17 21 20 18 16 14 7 5 4 4 4 5 10 14 16 17 17 23 25 30 41 55 72 74 74 84 86 84 84 79 86 86 85 87 75 75 72 63 46 43 44
10 9 9 10 12 14 17 20 18 17 13 7 6 4 4 4 5 9 15 17 15 17 26 38 46 65 73 71 73 92 82 84 76 78 81 81 83 86 77 72 70 62 51 44 48
12 10 9 9 8 10 12 13 18 18 18 11 7 6 4 3 8 9 9 13 14 13 27 43 50 58 65 69 71 85 76 77 77 78 81 79 80 82 76 77 70 60 53 46 47
13 12 10 9 8 8 9 10 12 16 19 17 10 7 5 4 18 18 10 9 12 10 28 43 44 57 60 65 65 84 71 72 74 75 78 77 82 81 80 81 73 65 59 49 46
15 13 11 10 9 8 8 9 10 11 16 20 15 10 6 10 10 11 10 6 10 8 25 35 43 55 56 66 65 80 68 69 72 74 76 76 78 80 82 95 74 71 62 51 46
16 13 11 10 9 8 7 8 9 11 12 17 17 13 10 10 13 10 8 7 11 10 22 28 37 50 61 57 59 72 64 63 68 76 74 73 88 83 88 75 77 72 62 52 49
15 12 10 10 10 8 8 8 9 10 12 13 16 16 15 14 12 14 8 8 11 12 20 23 32 47 49 57 55 68 71 61 65 72 71 75 81 83 85 87 81 70 63 55 52
16 12 9 8 8 8 8 8 9 10 10 12 13 16 18 16 13 14 9 9 12 16 21 22 28 34 44 51 61 64 64 60 62 62 64 70 89 85 85 84 78 72 64 55 52
16 11 8 7 6 4 5 7 11 11 10 11 14 15 21 21 16 16 11 11 14 22 20 20 21 25 32 43 55 58 56 54 58 56 61 63 93 90 80 78 77 73 66 57 53
12 10 8 6 5 5 5 9 13 12 11 11 19 22 18 22 18 18 19 17 19 21 20 19 18 23 26 37 47 47 48 61 54 58 63 69 66 71 77 75 76 76 70 63 55
11 10 7 6 6 6 9 21 25 33 20 18 20 17 20 19 20 23 22 20 19 22 21 21 22 20 22 26 38 44 41 56 59 64 59 58 70 70 77 80 80 78 76 68 61
9 7 7 7 8 10 15 21 17 18 15 18 17 15 18 18 22 23 24 22 18 20 21 23 23 17 16 25 33 44 47 54 54 62 87 59 84 81 76 80 83 82 81 72 67
10 7 7 9 10 10 12 16 13 16 16 14 14 15 15 22 25 24 25 24 19 18 18 21 16 19 19 21 30 35 42 50 51 61 61 71 74 75 77 79 87 86 87 78 68
12 10 8 14 20 17 21 16 17 16 15 13 16 20 16 19 26 26 24 26 23 19 19 18 16 19 25 23 25 29 39 58 58 61 57 55 71 85 80 69 81 87 85 80 71
13 10 8 8 7 18 20 17 18 20 29 31 24 21 20 19 24 27 27 26 30 25 21 19 19 21 23 22 21 31 44 51 43 44 33 43 46 77 87 84 71 75 85 86 79
12 13 15 18 18 16 18 22 26 25 41 37 30 26 21 21 20 29 31 30 30 34 24 23 22 21 22 23 22 30 41 43 46 38 36 43 46 79 77 82 89 74 77 82 87
11 15 17 17 24 26 26 30 39 42 47 42 33 29 24 28 28 35 37 34 36 36 30 24 25 22 28 27 30 35 37 40 45 41 36 29 37 69 70 66 82 75 85 90 98
12 15 17 20 19 23 33 45 59 71 58 46 33 34 32 35 32 34 45 39 36 37 30 28 28 28 30 29 31 31 32 37 42 37 34 28 36 66 64 63 72 73 83 81 79
12 15 26 21 23 28 43 70 71 62 50 41 32 33 36 40 32 41 42 41 38 41 39 32 29 34 34 32 39 37 31 38 35 31 29 36 60 73 69 66 65 65 79 87 90
11 25 33 36 25 36 52 69 83 54 44 38 41 40 51 49 47 42 42 43 50 47 47 40 31 41 38 42 43 47 33 39 35 37 30 43 52 56 59 58 59 63 71 74 76
20 41 47 36 23 51 85 70 55 48 45 47 46 47 55 53 59 54 66 49 53 48 51 47 46 49 49 36 43 43 44 34 33 31 30 57 71 69 68 54 57 56 59 63 69
25 49 42 20 30 60 73 58 45 48 45 52 50 53 60 61 63 61 69 56 58 51 48 48 53 56 43 39 35 43 42 36 40 34 29 57 81 73 66 61 60 57 61 63 64
29 29 26 21 54 71 62 41 39 48 54 56 59 53 53 59 62 70 70 57 54 52 54 59 52 55 44 36 32 32 35 36 35 35 35 54 66 71 73 67 59 57 58 61 62
29 42 43 33 34 45 55 56 46 43 49 52 55 44 48 54 55 58 48 42 49 46 50 50 48 58 52 40 34 31 32 35 38 37 36 58 69 69 72 66 62 54 55 60 66
26 25 21 43 39 31 28 38 38 46 41 45 53 51 49 61 53 54 41 38 38 39 44 47 48 53 57 37 35 27 26 34 36 34 65 76 71 73 72 67 64 59 52 53 65
28 35 23 25 23 33 26 29 32 30 34 38 51 55 55 53 60 56 51 49 45 34 44 46 46 49 42 34 32 33 28 33 29 33 53 57 72 67 67 65 62 55 48 48 53
24 21 35 19 37 45 30 28 27 28 21 26 42 56 62 58 54 58 53 53 49 40 37 44 48 45 41 34 33 35 37 32 29 36 57 63 78 67 66 62 58 51 47 44 46

GFSSW_prec_cthk_090.txt.gz
RH
15 13 11 9 9 9 10 15 17 15 13 12 8 5 5 10 11 16 17 18 22 26 31 36 42 63 75 79 84 89 98 90 88 89 95 84 75 70 67 57 46 39 45 51 61
16 15 13 12 9 9 8 9 12 16 15 13 12 7 5 7 11 13 15 16 19 25 29 35 49 67 73 74 81 90 88 91 83 77 85 82 79 76 72 69 53 46 54 54 56
16 15 14 12 11 9 8 9 9 10 16 15 13 10 6 4 8 14 16 16 15 21 26 31 52 68 71 71 81 87 97 88 85 83 82 85 85 84 79 81 55 46 45 48 55
16 16 14 12 11 10 9 9 9 9 10 15 16 13 8 5 12 16 17 16 16 16 24 33 51 63 66 67 78 83 77 87 82 84 83 85 86 88 85 73 62 50 44 46 51
17 17 14 12 11 11 10 9 9 9 9 11 16 16 9 7 5 12 15 17 16 15 19 37 48 61 66 63 76 77 80 80 81 78 80 82 87 87 83 79 69 52 49 47 48
15 16 14 11 10 9 9 9 9 10 10 10 12 17 14 10 10 11 11 13 15 15 15 36 53 60 60 62 71 78 81 83 77 77 79 82 87 86 83 82 77 59 56 50 45
14 13 11 9 8 8 8 8 10 11 11 11 12 13 17 11 11 13 10 10 10 15 15 35 57 55 53 54 63 75 77 82 77 76 77 80 85 86 85 82 79 70 60 58 51
13 12 10 8 8 7 6 7 10 13 13 12 11 11 15 14 14 11 12 9 7 11 13 37 55 52 51 47 50 71 78 78 74 79 78 75 88 90 87 81 74 73 62 61 55
13 11 10 8 7 7 6 9 14 13 12 12 12 12 14 15 15 14 12 9 7 11 13 31 46 46 43 44 47 53 74 75 79 74 75 78 79 88 86 88 83 76 61 62 55
14 11 9 8 7 7 11 17 20 20 14 11 17 20 15 18 19 17 14 11 7 13 17 21 32 40 39 41 45 53 66 73 72 78 79 82 74 74 76 84 83 76 65 65 63
17 12 9 9 8 8 15 18 18 22 18 12 13 21 19 21 22 21 19 13 11 15 20 19 22 33 34 33 40 48 50 57 75 82 91 89 78 84 86 91 92 80 71 71 64
20 13 11 10 8 11 13 14 13 15 14 12 11 17 18 19 21 20 21 17 16 18 21 23 21 22 30 31 38 46 53 67 80 85 84 95 90 80 86 88 82 79 77 73 73
19 16 11 13 12 16 18 16 16 16 16 11 10 14 17 17 19 20 22 22 21 21 22 23 16 16 25 30 39 46 49 51 61 84 89 83 91 77 80 86 89 84 81 75 73
19 18 13 8 15 20 18 17 17 18 24 21 17 11 18 17 17 21 25 28 28 25 23 22 17 20 18 24 34 41 45 45 61 66 83 86 86 79 86 86 85 82 84 78 76
17 16 12 13 13 18 19 18 17 19 37 32 24 21 19 16 20 23 25 30 32 26 25 21 18 21 22 17 25 28 47 42 53 64 75 79 75 72 78 85 85 79 77 77 79
15 10 11 14 18 22 21 19 19 25 40 41 36 31 27 23 22 27 29 29 31 31 26 21 18 20 19 19 18 19 44 44 63 77 78 69 73 80 72 69 75 84 78 74 79
10 8 10 13 17 20 24 25 29 33 45 52 47 40 34 28 24 26 29 32 33 34 33 25 21 20 19 19 20 21 43 48 61 73 68 60 71 67 68 71 65 63 68 71 75
7 7 10 15 16 22 26 32 42 40 44 48 47 41 39 32 27 31 29 34 34 36 38 36 30 21 20 19 20 22 39 48 57 58 56 66 70 69 66 68 69 66 64 71 75
10 13 15 19 18 22 29 43 53 56 47 47 45 42 46 41 37 40 43 34 35 36 39 39 33 23 23 22 22 21 39 37 46 49 60 74 77 69 69 67 64 64 65 65 76
24 29 35 25 26 30 38 51 52 52 50 50 50 46 50 49 47 48 56 44 46 49 41 41 38 28 24 25 21 22 32 40 45 53 58 77 80 79 73 69 69 66 67 65 71
28 42 36 31 28 42 50 53 47 42 46 46 48 51 51 51 47 58 62 45 55 54 43 41 38 32 29 28 24 23 29 40 43 51 53 75 83 77 74 73 71 71 72 72 71
30 41 41 41 39 52 56 53 45 47 45 49 51 52 49 49 50 56 58 62 61 58 49 45 48 43 34 31 30 24 26 33 48 49 57 73 85 81 78 79 77 75 76 71 73
32 39 47 45 46 48 54 54 52 46 49 50 53 51 53 52 56 54 57 55 61 58 52 51 56 52 43 38 41 33 31 38 42 50 49 63 79 80 82 84 82 78 78 77 78
32 39 44 49 45 39 39 60 58 48 53 57 58 52 54 59 56 56 58 53 57 57 62 54 60 58 64 55 51 43 39 41 42 50 66 72 76 78 77 78 77 76 75 75 79
28 34 35 38 41 30 31 33 37 45 47 48 58 57 59 59 61 57 56 55 54 52 54 57 58 58 54 52 50 50 42 40 44 51 58 72 74 72 73 74 73 76 74 73 74
26 29 30 30 32 38 41 33 32 37 33 37 53 59 58 63 64 58 54 51 49 47 53 56 67 60 59 53 47 40 40 43 46 58 65 69 77 75 75 72 70 73 75 73 73
26 30 34 35 30 32 33 29 28 24 25 26 33 52 58 60 62 59 53 51 53 55 52 53 64 69 68 59 49 46 48 51 50 56 61 66 62 69 72 71 71 74 77 74 73

GFSSW_prec_cthk_093.txt.gz
RH
15 15 13 12 10 8 8 9 14 16 14 12 12 8 5 11 12 13 15 21 25 29 35 37 51 58 70 77 86 91 93 90 90 98 91 81 72 66 64 48 39 43 44 49 52
15 15 14 12 11 10 8 8 9 12 16 13 12 12 6 8 10 12 15 17 23 28 34 38 49 61 73 79 83 86 91 89 90 89 84 81 76 70 67 53 41 46 52 54 58
16 15 14 12 11 11 10 8 8 9 10 15 14 12 10 5 9 15 16 16 18 26 30 41 53 69 74 71 77 81 86 85 85 82 82 82 80 75 72 59 41 41 53 57 65
16 16 15 12 11 11 10 9 9 9 9 10 16 14 11 7 9 16 17 17 16 21 27 41 56 63 73 73 78 82 77 89 85 85 86 85 84 80 75 71 45 41 46 53 66
16 16 15 12 10 10 10 10 9 10 9 9 11 17 13 9 8 14 17 17 17 16 24 38 54 66 69 71 78 81 81 89 91 87 84 88 87 85 83 75 59 43 45 51 61
14 14 12 10 9 9 9 10 10 10 11 10 10 14 16 11 7 13 14 17 16 16 18 38 55 64 69 66 73 78 82 84 88 90 89 87 92 88 88 77 66 48 48 52 56
13 12 11 10 9 8 7 8 9 11 12 12 11 12 17 14 11 12 13 15 16 17 12 31 55 64 63 61 62 74 82 85 84 87 87 91 91 95 87 82 77 61 52 50 48
15 13 12 9 8 8 7 7 10 13 14 13 12 12 13 16 16 13 12 11 13 16 13 31 59 64 61 51 53 72 80 85 84 80 80 86 94 90 84 85 82 68 57 54 49
18 15 12 10 8 7 8 13 17 16 12 12 12 13 15 15 17 15 13 10 9 14 15 40 53 59 54 48 51 61 81 82 83 81 80 78 83 88 87 86 84 75 65 58 52
21 17 14 11 10 10 16 19 19 23 17 12 14 19 17 18 18 16 15 12 9 13 14 34 49 52 49 47 53 55 73 81 80 81 83 87 79 77 77 90 85 82 70 61 59
23 20 15 12 11 13 16 16 17 18 17 16 13 17 19 21 20 21 18 14 10 14 16 28 40 48 48 45 47 47 54 64 77 84 90 91 87 80 83 84 89 83 72 68 62
24 22 15 14 12 13 13 16 16 19 16 13 12 16 19 20 21 22 21 16 12 15 21 28 29 37 42 44 48 52 53 76 85 86 90 92 92 90 91 88 89 84 79 72 70
23 22 15 15 13 15 17 16 17 17 17 14 12 16 18 19 22 21 23 20 16 17 22 27 20 27 35 39 45 53 55 67 75 79 85 85 89 84 86 93 89 89 83 77 75
24 18 17 15 17 18 18 18 16 18 23 20 16 18 17 17 17 20 22 25 23 21 24 23 22 20 25 36 43 49 54 48 64 70 73 73 83 78 77 84 92 91 84 78 75
22 15 15 14 18 18 17 16 15 19 32 27 23 20 21 19 21 20 24 26 29 24 25 22 20 22 22 28 36 47 59 48 54 63 68 73 84 72 78 84 93 95 83 83 76
18 13 11 13 15 19 19 17 17 26 36 36 31 29 24 25 24 27 29 31 33 33 27 22 20 21 21 21 29 46 50 56 63 67 71 73 81 72 75 72 82 81 76 75 74
12 8 8 12 18 20 22 21 25 33 42 43 37 34 31 28 28 30 31 34 37 39 34 26 22 21 21 21 20 31 44 53 76 78 68 66 78 68 68 67 68 70 71 73 75
10 7 9 12 16 20 24 31 38 38 43 43 45 34 38 36 30 32 32 32 36 37 39 35 26 21 20 21 21 22 35 47 64 71 62 68 68 63 70 70 72 70 76 83 81
13 14 19 19 18 21 29 36 42 42 41 44 43 44 42 39 36 37 44 39 41 39 38 38 32 23 22 21 23 22 27 33 45 51 50 67 69 65 68 69 72 68 70 75 79
21 25 26 23 30 34 36 41 43 48 49 42 47 52 52 48 41 42 46 42 43 43 42 38 36 30 24 24 24 24 25 35 43 57 52 63 71 67 71 70 69 68 72 74 76
33 30 28 32 39 45 50 54 52 50 49 46 46 49 51 52 51 48 48 45 45 44 44 42 39 37 29 26 27 27 29 36 43 46 52 59 65 70 69 72 72 70 71 74 74
33 36 35 35 39 53 52 49 43 45 45 43 45 45 48 50 52 53 49 46 46 46 46 46 47 46 36 33 32 28 28 33 45 46 57 55 69 67 71 72 72 75 72 73 69
33 39 40 40 38 44 47 53 51 44 45 45 47 45 48 50 50 50 48 46 44 49 53 48 49 50 42 40 39 37 32 34 39 46 62 63 65 67 73 73 75 74 75 74 73
32 34 37 42 39 40 35 50 51 44 42 49 52 48 52 53 53 48 49 47 48 50 48 53 55 47 58 51 49 46 39 32 35 45 56 59 64 70 70 70 74 78 80 74 69
31 35 35 40 34 34 37 29 32 37 37 39 43 55 57 55 55 56 55 50 47 49 54 63 60 49 56 55 51 50 41 34 33 37 47 60 63 61 65 65 62 68 75 76 72
29 32 31 31 29 32 33 38 34 34 33 39 42 57 62 62 65 60 57 56 53 49 51 57 66 62 56 57 53 50 45 40 44 54 56 59 62 65 67 64 61 62 66 68 71
25 29 30 28 28 32 31 30 25 22 23 23 29 40 54 63 66 60 59 57 57 56 55 55 60 68 64 63 59 51 54 52 55 54 54 62 55 65 68 66 65 67 67 69 70

GFSSW_prec_cthk_096.txt.gz
RH
15 15 15 13 12 10 8 7 8 13 15 13 12 11 9 10 10 10 12 18 23 29 38 42 49 55 69 78 83 90 95 93 89 92 84 75 74 60 51 41 44 48 50 49 44
16 15 15 14 11 11 10 9 8 8 12 15 12 12 11 8 10 10 13 15 23 29 33 39 51 59 73 78 83 88 91 90 86 83 81 74 71 66 54 48 44 45 51 47 42
16 15 16 14 12 11 10 10 9 8 9 12 14 12 12 8 8 12 14 14 20 28 31 37 51 64 73 75 79 86 89 92 89 85 84 79 77 72 55 46 39 43 49 50 45
16 16 15 13 11 10 10 10 9 9 9 9 12 14 13 9 9 15 15 14 18 24 31 40 52 66 78 73 77 84 83 91 90 87 87 84 78 77 59 45 38 44 48 54 52
14 13 13 11 10 10 9 10 10 9 9 10 10 14 14 11 9 15 15 15 20 19 28 41 58 69 81 79 81 84 84 86 91 85 89 87 83 81 79 55 44 46 50 55 59
15 13 11 10 9 9 8 9 9 10 11 11 11 12 17 13 8 13 15 14 19 18 20 40 57 72 71 73 74 81 85 85 87 88 92 92 87 85 85 65 52 45 49 55 61
18 15 12 10 9 8 7 7 9 11 12 14 12 12 15 17 10 14 12 15 18 20 16 31 61 66 70 63 66 81 82 88 91 93 93 95 96 91 90 75 61 44 49 51 54
21 17 13 11 11 9 8 9 13 13 13 14 14 13 14 18 14 13 14 13 16 19 17 26 59 65 64 61 56 79 83 86 90 94 96 96 98 96 90 87 78 60 50 48 50
23 21 15 13 13 12 14 17 18 18 12 12 13 14 14 17 16 17 15 14 13 19 18 24 46 58 60 54 56 70 87 83 87 84 90 91 93 94 93 88 84 67 55 53 53
26 23 18 16 15 17 19 19 17 22 18 13 13 17 18 20 19 20 17 14 12 14 17 25 43 53 57 53 57 58 71 80 83 87 86 84 84 90 89 90 85 82 64 58 53
27 23 20 19 17 20 18 16 17 17 17 16 13 15 17 21 20 17 18 15 11 13 16 25 43 50 51 52 52 54 57 72 89 88 91 91 91 84 82 84 83 82 68 62 58
26 21 22 19 16 18 17 15 17 18 16 15 14 15 17 19 22 22 20 19 13 16 18 27 38 48 50 49 50 51 64 85 88 89 90 96 96 90 85 84 87 90 79 67 62
28 23 22 20 17 18 16 17 17 18 20 17 13 17 19 21 22 24 22 21 15 16 21 26 28 44 44 47 52 50 56 82 78 82 84 82 88 91 86 87 91 91 85 74 63
28 24 20 18 18 18 16 18 18 19 23 21 16 18 20 22 24 24 25 23 19 18 21 25 26 40 45 42 48 52 60 59 73 73 72 70 76 82 83 86 88 90 86 81 74
25 21 15 15 14 17 18 18 17 22 32 28 21 21 21 21 23 23 25 27 26 22 21 25 25 26 39 40 41 49 53 65 65 65 65 68 70 69 74 78 85 87 84 83 80
18 13 11 10 13 16 18 19 18 27 41 35 29 27 23 25 26 30 27 28 32 29 24 24 23 23 23 30 38 42 49 63 71 70 69 63 66 69 73 67 75 82 85 82 81
13 11 8 11 15 18 19 21 24 39 38 37 35 31 31 31 30 33 34 34 37 38 33 26 24 23 23 21 25 36 44 65 81 78 75 64 70 64 68 66 67 73 71 76 81
13 10 9 12 17 22 26 27 35 38 41 38 39 36 36 35 31 34 38 38 39 41 41 36 28 22 21 23 23 28 39 55 70 81 70 69 66 61 70 68 68 73 73 76 80
20 16 17 18 20 24 28 35 39 39 41 42 37 40 44 41 38 38 36 40 39 41 42 41 32 24 20 23 25 24 31 42 55 60 66 70 57 65 71 70 68 70 73 78 79
25 24 25 29 33 36 36 37 40 44 43 48 49 45 42 46 42 43 42 39 40 40 42 41 39 30 26 25 27 26 26 35 45 54 56 60 65 62 72 71 71 71 68 72 74
30 27 32 33 37 42 46 49 46 43 48 52 50 51 53 49 49 47 44 41 39 40 43 43 43 38 32 29 30 30 30 33 35 46 50 60 57 59 67 69 70 70 71 71 72
27 34 33 34 41 47 50 48 43 46 49 51 49 49 47 54 50 50 49 48 45 44 44 43 46 47 39 36 35 33 31 33 37 38 47 45 47 55 62 67 70 72 75 75 77
29 34 37 37 39 41 44 52 48 47 42 42 46 46 47 48 48 50 49 48 48 48 48 47 47 48 45 42 38 41 37 34 36 44 52 44 42 54 59 66 69 72 72 74 75
30 31 34 35 35 33 32 42 48 40 41 45 49 48 50 53 55 49 45 47 48 46 50 51 54 48 53 48 45 44 39 36 35 41 44 47 52 57 64 65 65 68 73 77 74
29 33 30 33 30 33 34 26 27 33 32 35 38 48 54 56 55 52 46 43 48 50 49 52 53 52 51 53 49 48 42 37 34 36 41 39 51 50 56 66 66 66 70 78 80
33 33 32 32 29 29 30 31 28 28 27 28 34 47 51 58 59 59 55 52 53 54 51 53 59 54 56 56 55 48 49 47 40 45 49 49 52 52 55 61 68 65 66 71 74
26 29 26 28 27 27 28 25 23 21 21 20 23 33 43 55 62 59 57 58 61 58 56 56 61 65 63 56 56 54 53 58 52 49 50 50 47 56 60 60 64 67 68 67 66

GFSSW_prec_cthk_099.txt.gz
RH
15 15 15 14 12 11 10 9 7 9 14 13 12 11 10 9 10 10 12 15 18 30 37 44 54 60 65 77 82 89 93 90 86 86 79 72 59 51 47 48 52 51 52 51 48
15 15 15 14 12 11 10 9 9 8 9 13 13 12 11 11 10 10 10 13 17 29 39 42 54 62 69 76 80 86 86 88 88 87 79 69 59 49 44 45 50 53 53 49 46
16 15 15 14 12 11 10 10 9 9 8 9 13 12 12 11 8 11 11 12 16 28 37 39 50 60 70 75 79 83 86 87 86 79 75 70 63 53 47 42 45 50 48 45 43
14 13 13 12 11 10 10 10 10 9 9 9 10 14 12 12 8 14 12 11 15 25 32 38 51 63 74 73 77 84 85 86 86 86 78 74 69 53 40 40 44 50 44 42 43
16 14 12 11 9 8 9 9 9 9 9 10 10 12 15 13 9 12 14 11 16 21 30 39 52 72 81 77 80 84 85 86 86 86 85 81 76 60 44 41 46 51 50 45 45
20 16 13 12 10 8 8 8 8 9 10 11 10 12 16 15 9 12 13 12 18 21 27 37 53 72 78 75 78 84 86 89 86 87 89 87 80 69 60 43 47 51 54 54 53
22 19 15 13 11 9 8 8 9 11 12 13 13 12 15 18 11 14 11 13 18 22 20 34 56 72 73 70 74 84 86 87 88 92 93 92 87 86 74 50 49 53 56 57 58
24 22 17 15 13 11 12 15 17 14 12 13 13 13 14 19 14 15 11 9 17 23 20 26 57 70 69 63 65 81 80 83 91 92 97 95 95 92 80 64 52 53 54 61 61
24 23 20 17 15 17 19 19 18 19 13 12 13 13 15 19 18 17 14 13 13 20 22 23 46 66 65 58 58 75 77 80 91 88 98 93 98 93 88 75 65 55 53 56 57
23 22 23 19 17 22 22 20 17 19 20 16 14 16 18 22 19 20 17 15 13 17 21 23 40 56 61 54 60 69 77 79 88 96 95 88 89 92 89 86 80 60 55 55 51
24 23 23 20 20 25 23 18 17 15 16 16 15 17 18 21 21 24 20 15 13 13 20 23 40 50 55 53 53 58 67 79 89 93 94 93 86 94 88 91 87 75 61 59 51
25 25 21 20 21 24 21 20 18 17 17 15 14 16 18 19 21 20 21 18 13 13 18 22 30 45 51 49 52 56 63 78 89 90 88 95 95 88 85 85 88 83 71 64 63
27 27 23 21 21 21 22 19 17 19 20 17 14 17 20 20 22 21 21 21 15 15 17 17 22 41 49 48 49 50 56 71 78 86 86 82 90 95 88 88 89 85 78 67 64
27 24 20 16 18 20 22 20 18 22 22 22 18 23 25 26 25 26 25 24 20 16 19 21 23 35 46 44 47 51 53 69 68 68 72 73 75 81 82 86 89 90 88 77 59
22 17 13 11 13 17 21 22 17 22 30 29 22 24 27 25 28 28 28 29 23 20 20 22 25 29 43 46 47 52 56 60 62 67 64 67 67 67 76 83 87 88 81 81 67
16 14 11 8 10 16 18 18 20 25 39 35 28 27 26 26 25 29 29 30 31 26 22 25 24 26 36 41 46 57 59 64 65 65 64 55 54 61 68 66 75 85 86 84 79
17 13 9 10 15 18 19 21 21 35 37 37 33 31 30 30 28 29 28 31 36 35 31 26 26 25 24 32 46 47 54 66 69 69 60 61 57 51 58 59 63 70 75 81 81
19 14 11 13 18 21 25 25 30 36 39 39 38 35 35 35 34 32 33 33 35 38 36 30 25 25 24 23 26 38 46 51 64 62 53 64 55 51 56 62 63 65 74 82 82
22 19 17 20 23 24 24 30 34 37 41 39 40 40 40 39 36 35 33 33 35 37 42 37 31 25 22 23 23 24 32 41 52 52 57 59 56 49 63 64 63 67 74 77 79
25 23 26 28 29 31 30 35 38 38 40 39 42 42 43 46 42 40 40 37 37 37 39 41 36 30 26 24 25 26 24 27 39 52 52 53 57 43 56 64 63 67 68 71 75
27 26 29 32 34 36 39 44 45 40 44 46 48 45 45 45 49 47 44 41 39 39 38 38 39 37 35 30 27 28 28 27 29 38 38 42 45 50 54 65 63 63 69 69 73
25 29 31 33 33 39 42 44 42 44 46 46 48 48 49 50 50 50 50 45 42 42 43 41 39 43 38 39 34 32 29 28 27 33 36 36 34 56 58 62 68 65 65 70 71
27 30 33 32 34 35 44 48 47 46 42 39 42 44 46 45 46 48 49 50 47 45 47 48 44 42 44 41 39 37 36 33 30 33 33 32 27 44 54 56 65 69 65 67 70
26 31 31 31 30 30 36 44 46 39 40 39 43 44 45 48 49 47 47 49 48 49 50 51 49 42 41 46 45 40 38 36 32 31 30 32 34 42 47 56 61 67 71 70 71
24 26 26 29 27 30 31 27 27 31 32 33 35 43 50 51 54 52 47 45 50 54 52 48 50 47 43 46 48 45 39 40 33 33 32 29 37 36 41 49 62 64 69 72 72
27 28 27 28 26 25 25 25 25 27 26 25 26 32 48 54 57 56 51 49 50 54 52 49 51 49 52 49 53 49 44 42 40 35 34 40 36 41 48 54 60 68 74 73 74
27 26 24 25 24 24 25 25 23 19 20 21 18 25 35 51 59 60 56 57 56 56 55 52 53 54 52 55 52 54 50 48 49 44 45 44 42 41 48 53 61 67 75 72 70

GFSSW_prec_cthk_102.txt.gz
RH
15 15 14 14 12 10 10 9 9 8 10 13 12 10 10 10 10 8 11 14 16 22 32 47 61 63 64 75 81 88 94 88 76 72 64 58 54 55 56 57 55 58 54 54 49
15 15 14 14 12 11 9 9 9 8 8 11 13 12 10 10 10 9 10 12 15 23 34 49 62 62 65 73 78 84 87 85 77 74 67 59 53 49 51 52 52 53 55 54 49
15 13 13 12 11 10 10 9 8 8 8 9 11 13 11 10 10 10 11 11 14 23 37 46 58 62 65 72 74 80 84 81 83 78 70 62 53 51 50 51 51 49 50 50 46
16 14 12 11 10 9 9 9 9 8 8 8 9 13 13 12 9 13 11 10 13 24 38 43 56 60 67 70 70 83 82 85 84 80 70 66 57 50 45 47 51 51 49 45 46
19 16 13 11 10 9 8 8 9 9 8 9 9 10 16 14 9 12 12 10 12 23 35 41 52 64 73 72 74 80 82 87 83 84 75 69 57 49 42 46 51 51 46 42 49
20 18 15 13 11 10 8 7 7 9 9 9 10 10 16 17 10 11 12 11 16 21 28 36 47 68 75 73 74 79 84 84 90 88 79 73 60 47 43 48 52 48 45 44 46
21 21 17 15 13 11 10 10 12 12 12 12 12 11 15 19 12 14 13 16 18 22 25 36 47 67 71 70 74 84 89 87 87 90 87 81 73 54 43 47 50 52 47 47 50
23 22 20 17 15 15 16 17 18 17 12 12 13 12 15 19 17 17 13 14 22 23 24 33 50 68 68 70 72 86 85 87 87 90 94 88 80 75 52 45 51 58 55 57 53
22 22 22 18 16 20 21 21 20 20 15 13 13 14 15 18 21 19 13 12 18 22 21 25 48 64 64 64 67 87 84 86 92 97 97 92 92 90 70 50 53 57 59 58 60
22 22 20 18 17 22 21 22 23 22 21 17 14 18 18 23 22 22 17 13 14 21 21 22 38 59 62 60 58 66 77 83 83 95 93 98 95 93 78 58 53 56 59 62 63
24 23 20 19 19 21 23 23 27 27 24 19 16 19 17 19 23 24 21 17 13 15 21 21 29 48 63 62 52 61 70 90 97 95 87 88 92 88 84 78 66 54 55 59 60
25 24 22 19 20 23 24 24 24 22 21 18 16 17 18 19 21 25 20 17 14 13 19 22 26 44 58 55 51 64 72 92 95 95 89 97 96 90 85 85 84 67 56 54 55
25 23 21 18 19 22 22 23 22 20 21 16 15 18 21 20 22 23 22 19 15 14 16 19 19 40 49 49 46 53 62 74 85 86 85 82 91 97 89 89 86 82 69 59 53
21 18 17 14 16 18 22 20 17 24 27 21 20 26 26 23 24 22 24 23 17 15 14 18 24 32 42 47 44 50 57 67 73 74 75 73 84 87 91 93 87 81 82 66 57
15 15 14 10 13 17 19 17 19 24 32 29 23 26 29 28 29 25 26 26 23 18 17 19 22 28 31 40 49 52 52 60 66 63 62 66 66 62 73 84 86 82 79 72 61
15 15 11 10 11 17 16 15 18 26 46 34 28 29 26 25 28 28 28 29 29 23 19 29 23 28 31 34 51 48 63 59 54 54 56 55 56 67 68 65 76 81 84 80 74
17 13 12 13 17 16 17 17 23 39 32 33 34 32 32 28 29 29 28 29 33 30 24 27 23 28 31 36 38 57 56 66 71 52 59 56 54 54 58 58 65 71 74 81 78
15 16 16 15 19 21 21 24 31 32 34 34 33 34 39 32 31 31 30 32 36 35 35 28 29 27 22 29 35 37 48 68 62 64 50 58 56 55 50 55 57 68 72 75 81
21 18 20 21 21 21 26 31 32 35 35 35 36 40 37 35 34 34 38 36 37 34 42 35 30 28 26 22 26 33 44 48 59 51 50 52 47 48 48 54 58 65 67 76 79
24 24 24 26 27 25 30 31 32 35 37 37 44 42 47 42 39 37 39 39 42 36 42 44 39 32 25 24 23 26 28 38 45 49 49 49 49 51 51 58 64 63 65 73 81
23 30 26 25 28 36 38 37 37 35 38 38 36 41 41 44 43 41 48 44 35 37 36 43 37 43 30 23 24 23 22 25 31 36 37 42 43 48 48 53 64 65 67 72 75
25 35 27 25 33 33 38 37 38 40 39 44 44 44 43 40 41 41 45 44 40 38 38 40 43 47 37 37 29 33 24 26 25 30 33 39 43 51 49 53 64 67 70 73 74
28 28 28 24 34 36 34 37 42 44 38 40 41 40 43 46 45 44 43 44 41 42 47 45 39 47 47 44 33 28 28 30 30 32 34 32 31 44 48 57 62 69 70 74 75
27 35 29 25 23 30 37 37 40 34 36 36 40 41 41 45 43 45 42 44 44 44 42 45 49 46 41 44 43 40 34 30 31 29 30 33 31 39 42 50 55 64 70 72 74
26 26 27 31 27 26 24 23 29 32 29 30 36 36 44 48 49 48 42 42 47 50 46 46 53 54 49 53 49 52 50 35 29 29 33 32 31 34 36 44 52 60 67 73 74
27 27 26 24 23 25 23 22 22 23 23 24 23 25 36 50 54 54 49 48 53 50 51 50 55 47 49 44 46 50 45 39 36 33 31 34 39 44 38 35 44 56 61 66 72
25 25 25 22 23 28 25 24 23 19 19 19 17 17 32 40 51 52 51 50 48 51 51 49 52 48 48 56 50 48 48 46 44 41 37 34 38 45 42 43 46 51 59 66 69

GFSSW_prec_cthk_105.txt.gz
RH
16 14 13 13 12 10 9 9 9 8 8 11 11 10 9 9 10 9 12 14 15 19 29 51 62 62 65 79 78 86 94 77 70 68 63 54 59 60 61 57 56 59 53 53 51
15 14 12 12 12 11 9 9 8 8 8 8 12 11 10 10 10 12 12 12 12 18 29 50 62 63 64 68 75 85 93 81 76 70 58 56 56 55 53 59 60 55 54 50 52
15 14 12 11 10 10 9 9 8 7 7 8 9 12 12 10 12 13 11 11 13 17 34 48 64 61 63 70 73 80 90 90 80 70 57 53 53 52 54 54 52 52 53 49 51
17 14 13 12 10 9 8 9 9 8 8 7 8 10 13 12 14 15 11 10 12 17 33 47 57 61 64 68 69 80 84 82 75 71 68 53 52 55 52 54 53 54 50 45 50
19 16 14 13 11 9 8 7 7 8 8 8 8 9 14 16 15 12 11 10 11 17 34 43 51 60 66 71 69 78 82 81 76 76 72 59 53 55 51 52 53 54 51 46 47
20 18 15 14 13 11 9 9 8 8 8 9 9 9 13 20 15 15 12 9 12 20 29 40 48 57 68 74 73 79 83 85 83 78 75 59 56 48 41 48 49 52 47 44 48
20 19 17 16 15 13 12 15 16 12 11 11 11 11 15 22 17 16 12 12 15 21 24 36 42 57 69 70 68 80 80 85 82 83 73 66 56 53 42 46 49 48 47 46 49
19 18 19 16 15 16 17 18 18 18 13 12 12 13 19 17 21 18 16 16 20 23 22 31 40 53 66 66 71 81 86 88 88 89 84 80 76 51 46 50 47 47 48 48 50
19 18 18 17 15 16 16 18 19 21 20 16 15 17 19 13 20 20 17 18 20 24 24 28 40 57 63 67 69 92 92 88 96 94 88 80 84 63 45 48 52 50 49 52 53
20 20 19 16 14 16 18 18 20 21 23 21 18 21 16 17 22 19 16 17 19 21 23 21 35 57 60 65 62 80 90 90 92 93 93 90 96 78 49 52 57 61 59 58 58
21 22 20 17 16 19 21 28 35 37 28 32 24 26 25 21 20 21 18 16 15 19 21 20 26 47 56 60 63 74 96 87 98 96 95 94 95 89 76 62 60 59 63 61 64
22 21 19 17 16 20 23 31 26 26 32 21 17 18 20 21 24 21 20 17 13 15 20 22 22 29 58 67 55 57 77 86 92 91 89 97 96 96 87 59 67 63 65 60 65
19 18 15 15 15 18 22 26 23 21 30 17 16 19 20 19 24 22 19 20 16 13 18 23 21 24 52 60 52 54 79 87 84 95 93 87 92 94 92 77 70 65 64 65 66
16 13 14 13 16 18 23 20 21 22 38 22 22 24 20 21 27 26 19 22 19 15 17 21 24 24 52 50 49 54 71 79 83 85 82 83 93 95 92 87 81 76 67 51 56
12 14 13 10 16 18 20 16 19 27 50 37 25 25 25 30 36 23 22 25 23 16 17 17 24 27 37 44 43 54 56 66 85 73 62 75 73 73 86 87 88 79 78 73 59
16 12 10 10 10 16 13 13 17 24 53 37 30 31 28 28 33 33 23 26 30 24 17 31 25 28 34 39 47 45 49 54 56 62 53 59 56 71 69 68 73 78 77 80 81
14 13 12 12 19 14 13 18 29 45 42 34 36 30 35 34 35 28 27 26 29 27 23 24 29 27 32 39 40 45 54 60 55 46 48 54 56 56 55 59 66 69 70 74 73
17 15 13 14 16 14 19 32 46 40 45 29 30 36 42 33 42 37 33 31 31 32 29 23 29 29 27 42 41 42 45 55 65 56 48 48 48 58 53 49 59 65 68 70 72
21 19 21 19 15 20 36 53 47 46 36 40 32 40 40 34 41 38 41 37 38 36 41 30 31 33 27 26 39 38 44 46 54 63 66 61 54 54 57 50 54 63 66 71 75
25 29 23 21 22 32 43 42 33 30 32 32 52 46 46 41 33 32 39 39 43 39 45 48 37 35 31 26 24 36 41 41 40 52 57 52 50 63 58 53 53 59 65 74 74
28 37 20 23 35 47 48 38 37 31 34 46 41 40 43 44 48 39 53 45 46 49 39 51 39 44 36 28 26 24 29 34 36 34 35 39 44 61 50 54 63 64 64 69 75
36 45 18 31 42 44 43 40 39 40 33 40 41 46 47 49 43 41 48 55 48 33 39 36 43 43 42 36 24 30 25 28 28 35 30 29 59 63 56 48 56 65 63 70 74
41 29 19 36 50 38 33 34 39 43 36 40 41 43 43 51 47 42 47 43 34 35 46 49 36 43 42 39 34 30 35 30 26 27 27 28 42 54 54 47 48 59 69 71 75
36 41 29 27 26 39 40 40 37 27 33 33 35 35 39 44 46 52 45 43 37 40 37 46 44 38 48 51 51 43 28 35 33 30 26 26 33 49 46 46 51 53 65 74 74
35 38 35 39 29 31 31 27 32 36 27 27 39 33 41 53 52 54 44 49 39 39 35 37 44 46 50 48 47 49 40 34 33 33 35 29 31 35 50 49 52 57 65 76 77
44 31 20 22 18 27 22 25 26 27 21 30 23 23 28 46 53 67 48 50 52 50 41 46 49 51 45 49 46 46 48 49 42 38 36 35 33 43 62 54 54 54 60 67 78
32 26 33 25 25 32 35 26 25 19 23 17 18 16 27 42 38 44 45 50 60 60 51 54 51 50 53 42 45 44 44 44 44 42 40 38 35 52 68 59 53 53 62 65 72

GFSSW_prec_cthk_108.txt.gz
RH
14 13 13 12 12 11 10 9 8 8 7 9 10 10 10 8 9 11 10 12 15 17 24 42 55 61 64 74 79 87 88 94 72 62 52 48 55 60 61 65 57 55 53 46 53
15 13 12 11 10 9 9 9 8 8 8 7 9 10 10 9 8 11 11 12 14 15 26 47 57 60 65 74 77 91 89 81 69 65 53 51 50 50 59 60 76 56 53 50 53
17 14 13 11 10 9 8 8 8 8 7 7 7 10 11 10 10 12 12 11 12 14 28 51 60 62 63 66 80 81 97 93 83 74 56 57 70 51 56 54 65 51 48 50 51
18 16 13 12 11 10 8 7 7 8 8 7 7 8 12 11 20 18 12 9 12 13 30 44 55 61 61 68 74 77 95 85 90 68 62 48 47 56 60 58 51 53 47 49 51
19 17 14 13 12 11 9 8 7 7 8 8 7 8 10 17 15 14 12 9 10 13 28 41 48 63 70 64 70 88 86 81 83 66 56 51 45 69 60 57 47 51 49 46 49
19 18 16 14 13 12 11 12 12 10 9 8 9 9 10 19 17 15 11 8 11 14 24 38 44 57 61 68 73 80 84 80 78 74 74 64 45 52 56 66 48 51 51 50 48
18 17 16 14 12 14 15 16 16 15 12 11 10 10 13 20 18 18 14 9 11 17 24 36 41 50 61 76 73 76 82 81 84 81 87 77 53 49 45 54 49 50 50 50 48
18 17 15 14 12 14 15 15 15 16 15 14 13 12 19 14 18 21 14 10 12 18 23 32 38 40 56 73 69 75 81 82 79 85 92 68 63 51 45 51 49 50 48 51 50
18 17 17 14 13 14 14 14 15 17 18 16 20 17 25 16 12 20 17 15 19 21 21 27 33 42 53 71 71 78 95 91 87 87 85 70 76 54 50 52 50 48 49 49 53
19 18 18 16 12 14 16 22 26 23 19 24 18 33 28 18 17 19 18 18 18 22 24 26 33 43 53 68 70 86 90 90 96 90 88 86 82 66 51 51 52 48 50 53 55
18 18 17 15 12 15 19 29 35 42 29 32 30 28 29 24 25 18 17 18 18 21 21 21 25 38 54 61 72 76 79 88 98 96 90 93 93 81 66 49 55 54 53 57 58
17 16 15 13 12 14 19 28 25 29 32 29 19 22 24 24 22 22 18 18 17 17 21 23 20 26 47 64 73 72 79 97 93 93 94 98 94 91 84 65 65 55 61 59 64
14 13 11 11 11 13 16 22 22 24 36 25 18 18 19 18 27 24 21 19 16 13 19 24 21 17 30 53 66 81 77 88 90 94 91 94 97 97 89 86 58 63 72 73 60
11 11 12 10 16 19 23 21 22 33 46 37 21 25 18 18 24 27 21 21 20 16 15 19 25 24 22 42 57 82 81 76 72 85 87 81 92 92 91 84 82 61 56 59 59
13 13 10 10 15 20 22 16 20 33 66 41 30 23 24 34 37 27 21 23 23 17 16 18 23 29 24 52 54 71 70 71 71 84 77 85 81 88 90 88 75 72 62 68 72
13 10 9 7 7 12 13 15 18 37 68 47 31 30 27 27 37 33 24 25 27 26 17 18 22 26 27 37 48 59 70 72 69 80 92 78 73 76 80 66 64 60 51 56 78
12 11 8 14 20 15 14 20 46 54 45 42 39 27 35 34 41 34 22 24 29 28 22 18 27 29 31 37 49 57 65 68 71 92 72 57 72 63 56 57 56 60 56 61 60
15 12 11 10 12 14 26 41 63 46 40 37 27 35 43 35 39 32 31 29 26 28 29 23 22 22 21 32 43 40 47 51 60 58 79 80 66 61 52 48 50 54 63 71 76
21 21 17 14 13 26 40 62 56 44 40 37 27 37 45 36 42 37 38 31 32 34 35 40 26 27 29 27 43 45 41 45 59 62 59 73 64 70 56 52 50 52 57 65 69
27 31 20 21 27 35 42 41 37 32 25 40 45 42 51 43 29 29 37 35 41 39 42 46 41 28 32 27 30 42 44 38 38 55 64 61 65 85 67 57 52 56 57 60 63
35 41 18 28 37 44 50 36 33 26 32 46 48 45 47 44 41 42 51 46 49 42 39 46 49 40 35 31 24 25 33 38 36 36 41 62 69 81 62 68 59 61 63 66 63
41 47 24 28 41 50 47 34 36 34 27 35 36 42 45 38 41 43 47 46 45 44 41 43 47 52 41 36 29 28 25 34 34 35 36 37 55 60 54 67 69 65 68 71 61
41 39 23 31 47 47 31 30 38 44 35 41 43 36 36 43 41 51 49 45 44 35 43 41 43 42 44 43 37 26 29 28 25 27 29 30 50 59 47 49 61 54 57 61 60
38 47 38 25 32 43 40 45 43 26 28 28 32 29 35 44 42 41 45 41 35 28 36 35 37 39 48 58 46 41 29 29 34 25 24 25 51 51 53 48 43 48 53 53 61
39 52 50 50 31 33 37 38 34 38 27 25 36 33 37 42 48 54 50 43 46 31 26 28 39 44 47 50 53 51 48 37 33 29 29 27 35 56 53 48 47 42 45 48 54
47 50 30 30 29 24 28 31 27 28 22 30 25 26 19 33 48 47 45 55 52 46 29 31 38 45 53 50 50 48 46 46 36 30 33 36 38 51 67 67 59 58 54 47 54
51 42 36 37 24 33 43 34 25 19 23 16 16 15 17 37 38 34 39 42 49 52 55 40 42 43 45 45 47 48 45 46 46 41 35 36 49 52 49 58 82 69 62 61 65

GFSSW_prec_cthk_111.txt.gz
RH
14 13 12 11 10 10 9 8 8 8 8 6 8 9 9 9 9 11 9 10 16 17 21 42 55 58 63 69 79 83 92 90 86 74 56 51 73 62 67 53 58 56 44 51 62
15 13 12 11 9 9 8 8 8 8 7 7 6 9 9 9 8 9 8 10 15 15 20 44 55 60 65 74 75 86 93 94 88 81 57 52 71 62 67 64 72 57 48 52 50
17 15 13 12 11 9 8 8 7 8 8 7 7 6 10 10 9 11 10 9 12 14 19 46 56 63 68 67 70 83 90 90 94 80 66 51 54 55 70 66 70 49 45 50 59
17 17 14 13 12 10 9 8 7 7 7 8 7 7 8 12 18 16 14 10 11 13 22 45 52 61 69 69 70 80 90 85 76 76 71 53 60 53 65 56 54 47 46 48 46
17 16 15 13 12 11 11 11 11 9 8 8 8 7 8 15 13 14 13 11 10 11 23 44 50 58 67 66 66 76 94 88 85 78 86 73 56 74 69 55 51 45 51 47 43
16 15 15 14 12 13 14 14 15 13 11 10 8 9 8 15 16 13 13 10 9 11 23 39 46 53 71 71 65 76 87 83 94 91 86 69 74 57 68 60 56 47 46 49 47
17 16 15 14 12 12 13 13 13 14 12 12 11 10 10 12 17 16 14 11 9 12 19 33 45 47 58 64 74 79 82 83 85 83 76 75 56 67 64 68 54 47 45 50 46
17 17 16 14 11 11 13 13 12 14 14 12 13 13 11 15 16 19 18 11 9 14 18 31 41 42 42 59 81 91 85 87 86 85 84 80 68 65 59 53 49 43 50 47 49
17 17 16 14 11 11 13 17 19 16 17 14 18 20 22 18 15 15 19 12 10 15 20 26 35 41 42 55 78 80 91 90 89 91 85 89 80 54 49 57 49 45 49 48 50
16 16 16 14 11 11 17 23 27 27 23 27 23 35 28 22 17 18 21 17 15 18 21 24 29 39 48 53 75 90 87 91 92 91 87 90 72 65 55 51 49 47 48 48 50
15 15 14 12 10 10 19 24 28 34 24 24 29 29 32 28 24 23 21 21 19 19 24 24 28 39 52 55 68 77 78 89 93 92 97 96 85 84 69 56 53 50 48 49 48
13 12 10 10 9 10 17 22 24 24 27 27 22 20 26 25 24 18 21 25 22 18 22 25 24 27 47 66 78 80 84 84 85 93 95 96 97 94 85 72 59 56 53 51 50
10 9 9 8 8 9 15 19 18 28 34 30 24 19 19 17 24 20 20 21 21 18 20 24 22 18 35 55 72 84 83 85 82 85 90 96 96 95 87 78 64 57 58 53 58
10 11 8 9 12 17 18 16 23 35 44 35 27 25 22 22 24 26 19 21 22 16 14 19 24 24 20 37 58 73 81 84 85 80 87 89 94 92 90 84 76 64 63 59 57
11 8 7 10 15 17 17 15 23 36 62 39 29 23 30 28 35 31 20 23 25 21 17 14 23 25 27 31 52 78 76 79 79 84 83 88 95 78 81 83 78 71 57 59 59
11 9 6 5 9 12 13 12 26 45 58 46 35 25 25 29 39 33 26 21 25 25 21 15 19 27 27 38 51 63 84 85 79 87 86 77 83 70 76 67 70 71 56 57 66
11 8 7 13 16 12 17 29 55 55 50 45 38 33 34 40 42 37 28 22 27 28 25 17 18 25 27 49 49 66 83 94 94 87 81 80 85 73 65 59 64 69 65 55 55
15 13 10 9 9 21 30 45 61 56 47 33 28 37 43 36 40 39 30 20 25 29 31 26 20 21 24 39 53 57 60 70 77 80 82 81 92 81 72 63 61 66 69 62 56
17 16 14 12 18 31 40 52 53 42 38 42 31 44 47 42 38 36 40 34 24 30 40 44 37 24 20 19 37 43 52 40 68 62 62 76 77 67 66 58 57 62 66 58 59
22 20 22 25 31 36 42 44 29 27 31 42 43 50 49 45 41 39 47 46 41 38 38 45 44 32 25 28 35 44 41 43 51 68 69 66 64 71 64 64 66 55 53 56 62
30 29 24 33 38 44 48 38 33 22 30 39 45 48 51 47 45 44 45 47 44 41 39 45 47 43 34 31 30 37 32 38 40 42 55 67 63 55 54 63 69 76 61 55 58
36 40 23 33 42 47 44 35 25 29 26 32 38 44 50 48 47 46 46 47 42 41 41 45 47 47 42 39 32 31 30 36 41 38 41 47 51 44 45 51 56 70 72 69 67
33 32 30 27 42 49 43 30 26 31 28 30 34 31 36 39 45 43 47 48 41 43 44 38 52 53 47 43 44 35 29 25 28 31 35 38 45 46 47 50 47 53 71 73 73
36 45 42 32 35 38 41 43 38 33 27 21 25 25 29 36 46 49 39 43 37 36 34 35 46 55 62 58 55 46 37 34 29 27 28 31 51 55 50 49 42 36 40 51 59
40 46 49 53 37 32 35 36 37 31 27 22 27 31 24 30 43 50 50 48 40 39 33 30 37 52 53 49 52 47 42 39 36 31 29 38 46 56 65 65 66 52 48 45 54
43 48 41 42 33 32 29 32 25 25 21 24 24 23 19 23 42 54 49 45 41 41 40 26 35 43 49 49 49 51 49 41 38 41 31 54 60 61 54 70 88 71 72 67 65
43 47 43 39 26 28 42 36 30 23 18 18 18 14 14 25 30 34 29 39 42 44 44 44 41 51 48 47 48 52 58 48 46 63 58 69 70 66 61 63 64 72 85 98 77

GFSSW_prec_cthk_114.txt.gz
RH
14 13 11 10 10 9 8 8 8 7 7 7 6 8 8 8 9 11 9 9 16 20 24 42 52 56 66 72 78 85 86 88 77 64 60 58 66 60 64 54 54 53 45 58 70
16 14 13 12 11 9 8 8 7 7 7 7 7 6 8 8 8 9 9 9 14 18 24 46 57 60 66 71 76 83 94 93 84 77 68 58 68 69 69 62 62 52 54 57 58
16 16 13 13 12 10 9 8 8 7 7 7 7 7 7 9 8 10 11 8 11 15 30 51 66 58 66 67 72 84 95 89 81 73 78 62 60 62 62 78 68 51 51 56 50
16 15 14 13 12 12 11 11 10 8 7 7 7 7 7 10 15 13 12 11 10 13 23 47 58 56 63 65 69 87 88 84 82 80 78 65 61 61 66 63 58 49 44 52 52
15 14 14 13 12 13 14 14 13 12 10 8 7 8 7 10 12 14 12 12 10 12 20 45 57 55 61 66 68 77 86 86 80 87 80 78 68 58 67 65 60 51 45 48 45
16 15 14 13 12 12 13 13 12 12 10 10 10 8 8 11 15 14 14 12 10 12 25 41 55 54 62 71 74 74 92 84 87 91 79 73 66 63 76 71 58 52 46 47 46
16 16 15 13 11 11 12 12 11 11 11 10 10 11 10 13 17 17 15 15 10 12 23 47 51 54 53 65 71 78 88 86 91 89 82 80 71 64 68 69 60 59 49 46 49
16 16 15 14 10 10 12 14 12 13 13 11 11 11 9 14 18 17 18 15 9 12 21 42 45 46 43 52 62 79 90 98 96 94 87 83 79 69 67 63 62 58 47 44 48
16 15 14 13 10 10 15 19 19 16 19 19 18 22 20 18 14 17 19 15 9 14 17 36 39 44 38 48 74 79 89 96 91 93 87 80 82 76 66 61 58 49 48 46 51
14 14 14 12 9 12 18 20 24 23 23 26 26 28 24 21 18 13 19 19 13 19 23 29 34 41 40 47 74 88 94 91 91 91 92 87 90 82 63 55 49 48 50 48 53
13 12 10 9 8 12 19 20 23 20 18 18 23 25 25 25 23 21 21 24 19 20 24 25 29 40 48 55 59 72 80 85 84 86 95 95 90 91 75 69 55 47 50 49 53
10 9 8 7 7 11 16 16 18 22 23 20 18 19 21 25 23 22 22 26 26 20 23 26 25 29 52 61 71 73 90 92 84 91 89 95 92 92 86 75 60 50 50 50 50
9 9 8 6 6 12 14 15 23 26 29 25 23 22 21 21 24 21 20 24 26 23 20 25 23 28 49 67 65 67 78 90 86 88 92 92 97 96 91 85 67 59 55 50 48
10 8 6 8 13 15 14 20 24 30 40 32 26 24 25 25 25 24 20 21 21 22 19 23 24 27 32 53 59 69 66 77 83 80 86 91 92 91 91 84 79 61 48 54 51
10 7 6 13 15 15 14 18 24 37 49 33 29 23 29 30 31 29 22 22 22 24 20 19 24 24 26 39 46 57 67 77 81 85 88 87 84 85 87 82 80 77 65 53 56
11 7 5 7 10 10 13 20 34 41 45 36 32 33 37 39 35 35 29 25 24 23 20 19 25 24 25 39 43 56 69 78 86 88 90 80 83 77 80 78 76 75 76 61 58
10 7 9 11 12 16 30 36 42 47 40 37 34 36 40 41 40 37 31 24 27 28 25 22 25 31 41 55 71 67 70 91 94 93 88 84 87 75 73 70 72 72 79 72 62
14 12 8 17 23 27 31 35 45 42 41 35 36 34 43 42 42 41 42 23 26 29 28 31 30 40 46 45 54 61 66 82 89 90 81 83 86 73 70 61 67 69 75 78 75
16 14 16 22 28 35 38 40 35 33 35 44 38 40 44 42 44 45 45 35 37 40 34 35 31 31 39 36 42 60 57 56 66 68 73 77 67 58 59 62 61 67 75 77 73
19 19 23 30 34 34 35 37 27 21 31 33 40 45 46 44 45 44 46 44 46 39 37 38 36 33 28 35 38 39 46 56 57 68 68 74 64 63 57 58 57 64 74 75 71
27 28 29 37 40 37 39 38 30 22 30 36 42 44 51 47 44 48 49 48 50 46 41 43 40 41 31 27 29 35 35 43 46 53 55 67 60 48 48 55 56 60 66 63 67
28 30 26 32 39 42 42 33 31 26 27 32 37 39 47 47 46 46 47 47 46 42 44 42 47 50 38 32 40 38 33 43 44 44 42 50 41 45 48 52 57 58 59 65 66
28 28 31 31 42 41 39 32 27 31 28 27 28 30 34 43 43 44 42 45 42 46 44 39 50 57 46 45 40 44 42 42 40 38 37 40 36 47 48 51 52 58 61 64 70
31 36 35 34 40 37 39 39 36 33 28 20 21 24 28 36 42 44 44 41 44 41 42 42 44 58 57 52 49 48 43 42 43 37 36 38 39 53 61 58 58 57 63 66 69
33 39 45 46 38 36 34 36 35 31 24 23 23 21 21 25 35 51 47 40 41 37 38 40 44 50 56 50 50 51 46 49 47 37 32 38 61 60 67 61 56 64 61 59 65
32 44 48 47 42 37 35 28 31 26 22 20 21 20 22 24 30 41 38 47 46 39 41 41 40 47 48 53 52 53 54 57 55 50 50 56 65 61 58 57 63 67 69 66 73
36 42 44 42 42 43 36 34 31 33 28 21 17 17 15 18 19 26 30 36 42 44 44 43 46 47 52 50 49 61 63 66 65 64 62 67 67 63 61 58 63 78 78 77 71

GFSSW_prec_cthk_117.txt.gz
RH
15 13 12 12 11 9 8 8 8 8 7 7 6 8 7 8 9 10 10 10 15 20 27 42 47 49 63 70 74 75 82 84 79 70 58 60 64 56 51 52 50 45 53 67 60
16 15 13 12 12 10 9 8 7 7 8 7 7 6 8 8 8 9 10 9 12 17 30 43 49 57 64 70 78 78 83 81 81 67 64 61 61 62 64 54 52 44 55 68 62
16 15 13 12 13 12 11 10 9 7 7 8 7 7 7 9 8 11 11 9 11 15 29 41 51 57 64 71 70 80 86 83 83 71 66 72 70 63 63 62 57 45 49 60 59
14 14 13 13 12 14 14 14 13 11 9 7 8 7 7 9 12 12 11 9 10 14 28 41 54 60 63 72 68 82 81 84 86 78 80 67 69 62 69 65 56 47 47 50 55
16 15 14 13 12 12 13 13 12 12 10 9 8 8 8 9 15 14 13 12 10 12 32 41 51 58 61 68 66 71 83 87 88 87 81 76 68 66 66 68 59 51 48 48 50
15 15 15 13 11 10 11 12 11 11 11 9 9 9 8 10 16 16 15 12 11 11 27 39 52 54 54 69 73 74 82 91 89 88 88 81 76 63 72 71 60 52 51 49 50
16 15 15 13 11 9 10 11 11 11 11 10 9 9 8 13 18 17 16 15 11 12 19 44 53 50 45 64 80 78 90 92 95 95 90 83 80 76 75 75 62 57 54 50 51
15 15 14 13 10 10 15 14 13 15 15 12 11 13 11 12 14 17 18 15 10 13 28 56 47 46 43 56 62 74 94 92 97 96 90 86 77 74 76 71 66 59 55 50 50
14 14 14 12 9 11 15 18 17 18 19 21 21 21 19 18 15 14 20 17 9 14 37 42 38 40 41 51 65 79 94 93 95 92 92 88 83 79 70 64 62 58 54 50 50
13 13 11 9 8 14 16 18 20 17 20 22 24 25 23 23 20 14 18 18 13 16 38 36 34 35 37 45 65 80 93 93 93 91 97 91 87 82 79 73 61 55 52 50 48
11 9 8 7 8 15 15 17 17 18 16 17 19 22 21 23 24 16 18 21 20 17 27 32 32 37 41 46 54 71 82 95 94 89 97 96 92 89 83 74 64 53 50 49 51
9 9 7 6 7 12 14 16 18 21 21 20 20 19 21 23 23 24 22 24 23 23 25 27 30 39 46 49 66 73 78 90 93 93 91 91 95 95 94 80 60 56 49 48 50
9 7 6 5 7 12 14 19 22 24 25 23 24 23 23 23 23 25 24 24 24 25 24 28 26 28 43 62 76 74 64 78 84 90 91 92 95 97 90 84 71 54 49 50 51
9 7 6 8 11 12 15 20 26 28 34 28 25 25 27 28 29 26 27 26 23 22 23 27 26 26 44 65 71 72 60 67 78 82 89 89 92 90 96 89 80 61 52 50 50
10 6 7 12 12 12 18 20 29 31 34 27 26 27 30 32 33 26 23 24 24 22 20 26 27 30 34 46 46 53 62 72 76 83 85 91 94 78 86 90 82 69 60 50 49
9 6 7 10 10 13 19 28 30 34 37 34 31 33 32 34 37 34 25 26 24 22 21 28 31 30 28 28 40 56 64 74 77 83 89 82 90 84 89 89 83 76 69 62 51
9 8 8 10 15 27 31 33 36 40 31 32 33 33 37 42 40 37 30 29 28 27 26 31 33 38 37 47 53 58 71 80 86 91 88 86 85 73 76 76 77 76 74 72 64
13 12 10 16 25 30 30 33 36 31 33 28 29 36 40 45 43 39 37 30 34 30 28 37 45 45 47 44 50 58 62 75 89 91 81 84 81 68 65 67 66 65 71 76 74
14 18 21 26 28 30 30 35 29 26 30 32 32 42 44 43 43 40 35 37 40 32 28 38 38 42 52 48 48 61 66 58 66 72 78 76 69 60 59 62 65 64 66 69 73
19 23 26 28 31 32 33 34 26 24 30 30 37 38 45 46 43 46 45 48 48 38 33 37 43 43 48 51 51 51 58 61 63 72 70 69 66 62 60 61 66 64 66 68 73
23 26 28 29 32 36 39 35 29 24 25 30 35 41 47 46 44 48 52 44 49 46 39 35 42 45 40 39 46 44 45 50 54 62 60 62 56 54 55 59 63 65 66 70 77
26 31 32 33 37 40 40 35 30 26 25 29 29 35 43 46 43 45 49 48 50 48 47 41 42 46 44 39 33 41 41 40 46 43 48 46 39 54 58 61 62 64 66 74 76
30 29 30 31 38 39 36 33 30 29 29 26 29 28 32 43 46 45 44 44 46 44 45 42 47 56 52 48 41 47 43 40 38 38 38 35 34 58 64 66 62 59 66 68 76
28 33 34 33 36 33 36 34 33 32 29 23 20 21 25 28 34 37 36 40 43 42 43 39 48 53 63 54 52 53 48 46 39 46 39 37 59 67 63 69 66 62 63 66 71
30 35 39 43 38 36 35 33 36 33 31 25 22 22 21 29 34 36 45 40 39 42 44 42 42 45 54 58 50 54 54 51 50 49 41 58 69 69 71 73 71 70 67 67 69
33 41 44 45 43 42 37 33 33 28 27 25 24 22 23 25 27 30 36 35 45 43 46 44 43 45 45 56 57 66 61 57 59 61 67 69 70 71 74 76 72 69 66 63 67
33 39 48 46 47 43 41 38 37 34 34 29 18 17 18 18 20 22 25 33 36 36 41 43 45 47 49 58 59 62 67 67 66 70 65 68 68 75 77 70 68 67 67 66 65

GFSSW_prec_cthk_120.txt.gz
RH
16 14 13 12 11 10 8 7 8 8 7 7 7 8 7 8 8 10 10 9 14 18 23 37 45 46 50 65 74 68 75 79 77 74 57 64 65 62 59 54 47 51 58 60 63
16 15 13 12 13 12 12 10 8 7 7 7 7 7 8 7 8 8 10 9 13 15 24 38 43 49 61 65 70 79 78 81 82 76 61 66 69 70 63 60 51 50 57 58 54
15 14 13 13 12 14 14 14 12 10 8 7 7 7 7 8 8 10 11 9 12 14 27 38 45 55 60 66 71 74 80 86 84 79 65 67 66 65 67 65 48 45 51 57 54
14 15 14 13 12 13 13 13 12 12 10 8 7 7 7 10 12 12 10 10 11 14 27 39 48 55 61 69 71 78 74 82 86 77 63 73 67 63 63 65 50 45 50 51 53
15 15 15 13 11 11 12 12 12 11 10 9 8 7 7 10 15 13 11 9 11 13 28 39 49 57 62 67 69 67 83 84 84 78 77 66 64 70 66 66 54 47 48 48 51
15 14 14 14 11 10 10 11 11 11 10 9 9 8 7 11 17 17 12 10 12 13 27 41 53 61 53 56 70 75 80 86 89 89 82 76 66 64 69 64 55 47 47 46 50
15 15 14 13 10 9 11 12 11 13 12 10 9 10 8 13 16 17 17 14 12 13 32 44 55 50 43 62 78 77 79 86 96 92 90 85 74 70 73 70 62 52 48 49 53
14 14 13 12 10 13 15 14 16 16 15 15 14 12 10 13 15 15 17 17 11 13 26 40 53 52 44 60 66 76 78 88 99 94 92 86 85 80 75 75 64 61 52 51 50
14 13 12 11 9 13 15 17 16 18 19 19 20 20 19 17 13 16 18 17 10 12 16 39 52 48 53 56 64 75 83 87 97 97 97 91 87 76 77 77 69 60 54 50 50
12 11 10 8 9 14 15 16 14 17 18 19 20 22 21 22 18 15 19 16 13 14 27 40 41 47 41 50 61 71 81 82 91 92 96 90 88 76 75 77 66 61 55 53 50
10 9 8 7 11 13 14 14 15 14 14 16 16 18 19 22 22 15 18 19 17 17 36 36 33 36 37 43 52 66 78 83 86 88 92 94 94 90 85 72 67 60 58 53 49
9 7 6 5 11 12 15 17 18 20 21 19 19 18 20 21 22 24 22 20 19 22 35 36 35 35 35 45 59 74 76 84 85 87 92 94 97 95 89 83 69 58 57 51 51
9 6 5 6 9 13 18 19 22 23 23 22 23 22 23 21 21 22 24 23 22 23 31 34 33 39 42 51 65 74 68 75 81 86 92 94 94 97 89 88 76 62 55 53 48
10 6 6 8 10 14 20 24 25 24 28 25 22 26 26 25 25 23 25 24 24 24 26 28 31 32 43 49 66 74 64 67 78 79 95 93 95 89 95 91 83 77 53 50 50
10 6 8 11 10 14 19 24 28 28 32 28 27 28 31 32 31 24 26 28 25 26 25 26 26 26 39 44 66 71 62 69 75 79 84 94 92 79 90 95 87 81 59 52 48
10 7 8 11 11 15 20 27 28 30 35 31 28 29 34 37 37 31 28 29 27 24 23 25 26 26 29 42 45 52 61 72 78 81 82 81 82 79 83 78 84 81 64 55 46
13 10 8 9 17 25 28 28 28 35 29 28 27 30 36 39 39 34 28 27 27 27 27 27 27 37 38 50 49 47 60 77 81 87 87 82 89 72 66 68 69 77 70 57 56
14 11 12 23 27 29 28 27 30 27 30 28 30 32 40 41 41 38 33 31 31 30 30 32 34 42 43 46 52 53 58 70 82 86 84 86 87 69 63 68 72 76 75 70 64
17 18 23 25 24 26 28 30 25 27 26 29 30 38 41 40 42 40 33 32 36 35 32 37 36 42 50 52 55 63 64 65 67 68 82 76 69 65 67 71 74 72 74 70 72
23 27 27 26 28 29 30 32 26 24 25 27 31 33 39 40 42 46 40 41 44 40 38 35 41 45 49 57 59 62 65 67 67 72 79 67 68 68 66 67 67 68 65 66 68
23 27 30 29 29 29 33 32 28 25 25 27 31 35 39 43 45 48 47 39 40 42 41 42 44 43 43 54 59 56 65 60 62 62 62 65 52 67 70 64 65 66 64 64 70
24 28 31 32 32 34 34 34 30 27 26 28 26 30 37 46 48 46 46 45 36 41 43 43 49 47 45 43 43 51 49 53 55 50 56 53 44 60 69 67 66 68 62 65 75
27 30 32 32 36 35 34 33 30 27 26 27 27 27 28 40 44 47 48 45 44 42 46 43 49 58 53 50 44 46 44 45 43 44 45 42 42 58 61 64 66 62 58 64 81
28 34 34 34 36 35 33 34 33 31 29 28 23 22 23 28 31 38 36 35 36 41 42 45 48 52 60 55 48 45 45 43 40 39 38 41 61 63 63 68 68 66 63 61 69
31 35 39 40 39 38 35 34 35 34 29 28 25 22 21 25 28 30 33 39 38 38 42 42 46 47 51 54 52 52 58 60 57 54 42 57 62 66 70 71 73 69 67 67 70
33 39 41 42 42 39 36 33 34 34 32 29 26 25 22 23 23 26 26 32 36 40 42 47 46 46 51 52 58 68 68 61 63 69 68 60 65 67 74 74 70 70 67 69 75
34 39 42 46 45 44 44 41 34 36 37 35 33 27 18 18 18 18 20 27 36 38 39 46 51 48 44 52 54 59 64 61 70 72 69 67 65 72 72 74 78 75 70 68 72

GFSSW_prec_cthk_123.txt.gz
RH
15 14 13 13 13 12 11 9 8 7 7 7 7 7 7 8 9 10 11 11 15 19 22 33 45 46 49 59 65 63 70 74 73 68 57 61 59 58 55 48 49 59 55 57 59
15 15 14 13 13 14 14 13 11 9 8 7 7 7 7 7 8 9 11 9 12 17 21 34 45 46 55 64 66 72 75 79 80 76 55 62 64 66 59 50 48 54 57 58 61
14 14 13 12 12 13 13 13 13 11 9 8 7 7 7 7 8 10 10 10 13 14 21 37 45 51 59 63 70 74 78 84 85 76 59 62 63 68 62 53 45 49 57 57 56
14 15 15 14 12 12 12 13 12 11 10 8 8 7 7 10 12 11 10 10 13 14 24 38 46 56 60 67 71 70 78 79 87 83 63 68 65 63 71 56 45 48 48 53 58
14 14 14 14 11 10 11 11 11 11 10 9 8 7 7 12 15 13 11 10 12 14 27 40 49 55 59 65 74 70 74 85 90 86 65 77 69 64 66 57 48 49 52 54 57
15 15 14 13 11 10 10 11 11 11 10 9 9 8 7 13 17 16 11 8 12 14 28 40 52 57 52 61 69 74 79 88 88 85 75 72 69 66 66 60 51 49 48 50 59
14 14 13 12 9 12 12 12 14 13 12 11 9 9 9 15 18 18 14 11 12 14 24 40 52 53 47 62 69 78 77 85 92 89 80 76 67 69 67 60 56 49 46 51 56
14 14 13 11 9 13 14 15 16 16 15 15 12 11 12 15 17 18 18 14 11 14 24 41 53 50 50 56 65 72 79 82 83 89 87 82 67 70 76 65 61 58 46 49 50
12 12 11 9 9 13 15 14 16 17 17 18 18 18 18 14 14 17 19 13 10 13 27 41 45 44 60 49 56 72 76 79 81 87 97 90 75 76 78 75 64 56 52 49 49
10 10 9 8 12 13 14 12 14 16 16 17 18 19 20 20 16 16 18 13 10 12 25 39 46 38 51 49 52 58 71 76 82 91 97 92 86 85 85 83 72 56 54 50 46
10 8 7 7 11 12 14 13 13 14 14 14 16 17 18 20 19 17 19 18 12 14 19 34 42 40 44 46 42 52 69 71 80 89 94 95 91 85 86 84 75 60 56 52 47
10 7 6 8 10 13 16 17 18 18 20 19 18 18 17 18 21 22 21 20 17 18 24 38 42 40 36 40 47 60 61 76 80 86 91 93 90 89 83 79 76 60 56 50 47
9 7 6 9 10 16 16 19 20 20 21 21 21 22 22 20 19 21 24 23 20 20 29 40 38 39 38 40 53 63 64 73 76 87 93 93 91 92 90 91 79 60 55 50 45
10 7 8 9 13 17 19 22 22 21 24 24 24 26 25 24 23 21 24 25 23 22 33 35 37 32 39 40 52 60 64 60 75 79 85 89 92 87 95 93 78 68 54 50 45
10 7 10 10 11 18 20 24 24 24 25 26 27 26 28 26 27 24 23 24 25 24 24 29 29 31 33 37 53 65 59 66 71 76 79 88 88 80 91 92 81 70 63 49 46
11 8 10 10 11 16 21 26 26 24 29 27 28 27 30 30 31 29 26 28 27 24 23 23 24 24 26 34 48 70 65 62 70 74 77 73 82 74 80 75 79 79 72 51 45
13 11 10 10 13 21 25 26 24 25 24 26 25 28 33 36 35 32 28 27 26 25 23 24 25 31 33 40 47 52 56 66 74 76 74 78 84 68 68 69 72 74 71 60 49
13 14 18 22 24 24 25 25 26 23 25 25 26 31 36 39 37 35 33 29 27 26 26 26 30 35 39 40 41 44 43 53 68 72 69 81 75 67 69 69 68 73 80 67 48
16 19 26 26 25 24 25 24 24 24 24 27 28 33 36 39 40 38 34 30 30 30 30 31 30 39 47 49 48 53 47 54 59 59 62 65 66 67 68 69 72 72 77 69 60
21 23 26 25 26 26 25 26 26 26 23 24 28 29 34 38 39 42 44 41 38 35 33 34 36 43 52 57 56 57 54 64 67 65 66 61 64 65 71 76 77 77 78 76 72
23 27 27 27 28 27 28 28 28 26 23 25 28 30 31 37 40 43 44 44 40 40 37 36 38 46 53 57 60 61 65 64 64 61 59 59 56 66 77 75 74 72 74 72 71
21 25 31 29 30 32 31 31 28 26 26 25 26 27 34 37 40 43 43 45 46 38 40 40 40 45 45 46 46 52 52 62 62 59 58 57 51 60 72 76 74 72 72 71 73
22 24 29 31 33 33 33 33 31 30 25 26 25 25 26 32 39 39 40 43 43 44 41 42 44 47 47 45 45 45 47 44 50 50 49 45 45 58 61 68 71 69 66 65 67
22 28 32 35 35 34 35 33 32 31 30 30 28 22 22 25 28 33 34 35 34 39 44 46 46 48 47 47 45 47 50 46 39 41 39 37 48 59 61 65 69 68 67 67 76
21 30 38 40 38 38 37 35 35 34 34 32 28 24 22 22 21 23 27 28 31 35 39 43 45 47 47 51 49 53 56 56 50 48 39 40 49 59 64 67 69 70 71 69 72
25 32 41 45 43 38 36 34 35 37 36 36 34 29 26 23 21 21 23 25 33 36 36 39 44 47 43 50 55 57 55 56 57 57 52 51 53 59 64 67 72 72 75 74 74
28 31 40 47 44 38 38 37 37 38 35 36 37 34 30 26 18 18 20 23 27 32 35 38 43 48 48 46 50 54 53 51 56 66 59 60 54 62 64 65 72 77 79 83 81